Time,TemperatureF,DewpointF,PressureIn,WindDirection,WindDirectionDegrees,WindSpeedMPH,WindSpeedGustMPH,Humidity,HourlyPrecipIn,Conditions,Clouds,dailyrainin,SoftwareType,DateUTC
2013-03-03 00:00:00,49.4,46.9,30.23,NNW,329,0.0,0.0,91,0.00,,SCT200,0.00,VWS V14.01,2013-03-02 10:00:00,
2013-03-03 00:01:00,48.7,46.5,30.20,NNW,330,0.0,0.0,92,0.00,,BKN050,0.00,VWS V14.01,2013-03-02 10:01:00,
2013-03-03 00:02:00,48.6,46.4,30.20,NNW,329,0.0,0.0,92,0.00,,BKN050,0.00,VWS V14.01,2013-03-02 10:02:00,
2013-03-03 00:03:00,48.6,46.4,30.20,NNW,329,0.0,0.0,92,0.00,,BKN050,0.00,VWS V14.01,2013-03-02 10:03:00,
2013-03-03 00:04:00,48.6,46.4,30.20,NNW,329,0.0,0.0,92,0.00,,BKN050,0.00,VWS V14.01,2013-03-02 10:04:00,
2013-03-03 00:05:00,49.3,46.8,30.23,NNW,329,0.0,0.0,91,0.00,,SCT200,0.00,VWS V14.01,2013-03-02 10:05:00,
2013-03-03 00:06:00,48.6,46.7,30.20,NNW,329,0.0,0.0,93,0.00,,BKN050,0.00,VWS V14.01,2013-03-02 10:06:00,
2013-03-03 00:08:00,48.7,46.8,30.20,NNW,329,0.0,0.0,93,0.00,,BKN050,0.00,VWS V14.01,2013-03-02 10:08:00,
2013-03-03 00:10:00,49.3,46.8,30.23,NNW,329,0.0,0.0,91,0.00,,SCT200,0.00,VWS V14.01,2013-03-02 10:10:00,
2013-03-03 00:11:00,48.7,46.8,30.20,NNW,329,0.0,0.0,93,0.00,,BKN050,0.00,VWS V14.01,2013-03-02 10:11:00,
2013-03-03 00:12:00,48.7,46.8,30.20,NNW,329,0.0,0.0,93,0.00,,BKN050,0.00,VWS V14.01,2013-03-02 10:12:00,
2013-03-03 00:13:00,48.7,46.8,30.20,NNW,329,0.0,0.0,93,0.00,,BKN050,0.00,VWS V14.01,2013-03-02 10:13:00,
2013-03-03 00:14:00,48.8,46.9,30.19,NNW,330,0.0,0.0,93,0.00,,BKN050,0.00,VWS V14.01,2013-03-02 10:14:00,
2013-03-03 00:15:00,49.2,46.7,30.22,NNW,329,0.0,0.0,91,0.00,,SCT200,0.00,VWS V14.01,2013-03-02 10:15:00,
2013-03-03 00:18:00,48.8,46.9,30.19,NNW,329,0.0,0.0,93,0.00,,BKN050,0.00,VWS V14.01,2013-03-02 10:18:00,
2013-03-03 00:20:00,49.1,46.9,30.22,NNW,329,0.0,0.0,92,0.00,,SCT200,0.00,VWS V14.01,2013-03-02 10:20:00,
2013-03-03 00:21:00,48.7,46.5,30.19,NNW,329,0.0,0.0,92,0.00,,BKN050,0.00,VWS V14.01,2013-03-02 10:21:00,
2013-03-03 00:22:00,48.7,46.5,30.19,NNW,329,0.0,0.0,92,0.00,,BKN050,0.00,VWS V14.01,2013-03-02 10:22:00,
2013-03-03 00:23:00,48.7,46.5,30.19,NNW,329,0.0,0.0,92,0.00,,BKN050,0.00,VWS V14.01,2013-03-02 10:23:00,
2013-03-03 00:24:00,48.7,46.5,30.19,NNW,329,0.0,0.0,92,0.00,,BKN050,0.00,VWS V14.01,2013-03-02 10:24:00,
2013-03-03 00:25:00,49.0,46.8,30.22,NNW,329,0.0,0.0,92,0.00,,SCT200,0.00,VWS V14.01,2013-03-02 10:25:00,
2013-03-03 00:26:00,48.6,46.4,30.19,NNW,329,0.0,0.0,92,0.00,,BKN050,0.00,VWS V14.01,2013-03-02 10:26:00,
2013-03-03 00:27:00,48.6,46.4,30.19,NNW,329,0.0,0.0,92,0.00,,BKN050,0.00,VWS V14.01,2013-03-02 10:27:00,
2013-03-03 00:28:00,48.6,46.7,30.19,NNW,329,0.0,0.0,93,0.00,,BKN050,0.00,VWS V14.01,2013-03-02 10:28:00,
2013-03-03 00:29:00,48.6,46.7,30.19,NNW,329,0.0,0.0,93,0.00,,BKN050,0.00,VWS V14.01,2013-03-02 10:29:00,
2013-03-03 00:30:00,48.8,46.6,30.21,NNW,329,0.0,0.0,92,0.00,,SCT200,0.00,VWS V14.01,2013-03-02 10:30:00,
2013-03-03 00:31:00,48.6,46.4,30.19,NNW,330,0.0,0.0,92,0.00,,BKN050,0.00,VWS V14.01,2013-03-02 10:31:00,
2013-03-03 00:32:00,48.5,46.6,30.19,NNW,329,0.0,0.0,93,0.00,,BKN050,0.00,VWS V14.01,2013-03-02 10:32:00,
2013-03-03 00:33:00,48.5,46.6,30.19,NNW,329,0.0,0.0,93,0.00,,BKN050,0.00,VWS V14.01,2013-03-02 10:33:00,
2013-03-03 00:34:00,48.5,46.6,30.19,NNW,329,0.0,0.0,93,0.00,,BKN050,0.00,VWS V14.01,2013-03-02 10:34:00,
2013-03-03 00:35:00,48.6,46.4,30.21,NNW,329,0.0,0.0,92,0.00,,SCT200,0.00,VWS V14.01,2013-03-02 10:35:00,
2013-03-03 00:36:00,48.6,46.7,30.19,NNW,329,0.0,0.0,93,0.00,,BKN050,0.00,VWS V14.01,2013-03-02 10:36:00,
2013-03-03 00:37:00,48.6,46.7,30.19,NNW,329,0.0,0.0,93,0.00,,BKN050,0.00,VWS V14.01,2013-03-02 10:37:00,
2013-03-03 00:38:00,48.6,46.7,30.19,NNW,329,0.0,0.0,93,0.00,,BKN050,0.00,VWS V14.01,2013-03-02 10:38:00,
2013-03-03 00:39:00,48.6,46.7,30.19,NNW,329,0.0,0.0,93,0.00,,BKN050,0.00,VWS V14.01,2013-03-02 10:39:00,
2013-03-03 00:40:00,48.6,46.7,30.21,NNW,329,0.0,0.0,93,0.00,,SCT200,0.00,VWS V14.01,2013-03-02 10:40:00,
2013-03-03 00:41:00,48.6,46.7,30.19,NNW,329,0.0,0.0,93,0.00,,BKN050,0.00,VWS V14.01,2013-03-02 10:41:00,
2013-03-03 00:42:00,48.6,46.7,30.19,NNW,329,0.0,0.0,93,0.00,,BKN050,0.00,VWS V14.01,2013-03-02 10:42:00,
2013-03-03 00:43:00,48.5,46.3,30.19,NNW,329,0.0,0.0,92,0.00,,BKN050,0.00,VWS V14.01,2013-03-02 10:43:00,
2013-03-03 00:44:00,48.5,46.3,30.19,NNW,329,0.0,0.0,92,0.00,,BKN050,0.00,VWS V14.01,2013-03-02 10:44:00,
2013-03-03 00:45:00,48.7,46.8,30.21,NNW,329,0.0,0.0,93,0.00,,SCT200,0.00,VWS V14.01,2013-03-02 10:45:00,
2013-03-03 00:46:00,48.5,46.3,30.19,NNW,329,0.0,0.0,92,0.00,,BKN050,0.00,VWS V14.01,2013-03-02 10:46:00,
2013-03-03 00:47:00,48.5,46.3,30.19,NNW,329,0.0,0.0,92,0.00,,BKN050,0.00,VWS V14.01,2013-03-02 10:47:00,
2013-03-03 00:48:00,48.5,46.3,30.19,NNW,329,0.0,0.0,92,0.00,,BKN050,0.00,VWS V14.01,2013-03-02 10:48:00,
2013-03-03 00:49:00,48.5,46.3,30.19,NNW,329,0.0,0.0,92,0.00,,BKN050,0.00,VWS V14.01,2013-03-02 10:49:00,
2013-03-03 00:50:00,48.6,46.4,30.20,NNW,329,0.0,0.0,92,0.00,,SCT200,0.00,VWS V14.01,2013-03-02 10:50:00,
2013-03-03 00:51:00,48.5,46.6,30.19,NNW,329,0.0,0.0,93,0.00,,BKN050,0.00,VWS V14.01,2013-03-02 10:51:00,
2013-03-03 00:52:00,48.4,46.2,30.19,NNW,329,0.0,0.0,92,0.00,,BKN050,0.00,VWS V14.01,2013-03-02 10:52:00,
2013-03-03 00:53:00,48.4,46.2,30.19,NNW,329,0.0,0.0,92,0.00,,BKN050,0.00,VWS V14.01,2013-03-02 10:53:00,
2013-03-03 00:54:00,48.4,46.5,30.19,NNW,329,0.0,0.0,93,0.00,,BKN050,0.00,VWS V14.01,2013-03-02 10:54:00,
2013-03-03 00:55:00,48.7,46.8,30.20,NNW,329,0.0,0.0,93,0.00,,SCT200,0.00,VWS V14.01,2013-03-02 10:55:00,
2013-03-03 00:56:00,48.4,46.5,30.19,NNW,329,0.0,0.0,93,0.00,,BKN050,0.00,VWS V14.01,2013-03-02 10:56:00,
2013-03-03 00:57:00,48.4,46.5,30.19,NNW,329,0.0,0.0,93,0.00,,BKN050,0.00,VWS V14.01,2013-03-02 10:57:00,
2013-03-03 00:58:00,48.4,46.5,30.19,NNW,329,0.0,0.0,93,0.00,,BKN050,0.00,VWS V14.01,2013-03-02 10:58:00,
2013-03-03 00:59:00,48.3,46.4,30.19,NNW,329,0.0,0.0,93,0.00,,BKN050,0.00,VWS V14.01,2013-03-02 10:59:00,
2013-03-03 01:00:00,48.6,46.4,30.20,NNW,329,0.0,0.0,92,0.00,,SCT200,0.00,VWS V14.01,2013-03-02 11:00:00,
2013-03-03 01:01:00,48.3,46.4,30.19,NNW,329,0.0,0.0,93,0.00,,BKN050,0.00,VWS V14.01,2013-03-02 11:01:00,
2013-03-03 01:03:00,48.4,46.5,30.19,NNW,329,0.0,0.0,93,0.00,,BKN050,0.00,VWS V14.01,2013-03-02 11:03:00,
2013-03-03 01:04:00,48.4,46.5,30.19,NNW,329,0.0,0.0,93,0.00,,BKN050,0.00,VWS V14.01,2013-03-02 11:04:00,
2013-03-03 01:05:00,48.6,46.7,30.20,NNW,329,0.0,0.0,93,0.00,,SCT200,0.00,VWS V14.01,2013-03-02 11:05:00,
2013-03-03 01:06:00,48.4,46.5,30.19,NNW,329,0.0,0.0,93,0.00,,BKN050,0.00,VWS V14.01,2013-03-02 11:06:00,
2013-03-03 01:07:00,48.4,46.5,30.19,NNW,329,0.0,0.0,93,0.00,,BKN050,0.00,VWS V14.01,2013-03-02 11:07:00,
2013-03-03 01:08:00,48.5,46.6,30.19,NNW,329,0.0,0.0,93,0.00,,BKN050,0.00,VWS V14.01,2013-03-02 11:08:00,
2013-03-03 01:09:00,48.5,46.6,30.19,NNW,329,0.0,0.0,93,0.00,,BKN050,0.00,VWS V14.01,2013-03-02 11:09:00,
2013-03-03 01:10:00,48.7,46.8,30.20,NNW,329,0.0,0.0,93,0.00,,SCT200,0.00,VWS V14.01,2013-03-02 11:10:00,
2013-03-03 01:11:00,48.3,46.4,30.19,NNW,329,0.0,0.0,93,0.00,,BKN050,0.00,VWS V14.01,2013-03-02 11:11:00,
2013-03-03 01:12:00,48.3,46.1,30.19,NNW,329,0.0,0.0,92,0.00,,BKN050,0.00,VWS V14.01,2013-03-02 11:12:00,
2013-03-03 01:13:00,48.3,46.4,30.19,NNW,329,0.0,0.0,93,0.00,,BKN050,0.00,VWS V14.01,2013-03-02 11:13:00,
2013-03-03 01:14:00,48.2,46.3,30.19,NNW,329,0.0,0.0,93,0.00,,BKN050,0.00,VWS V14.01,2013-03-02 11:14:00,
2013-03-03 01:15:00,48.8,46.9,30.19,NNW,329,0.0,0.0,93,0.00,,SCT200,0.00,VWS V14.01,2013-03-02 11:15:00,
2013-03-03 01:16:00,48.2,46.3,30.19,NNW,329,0.0,0.0,93,0.00,,BKN050,0.00,VWS V14.01,2013-03-02 11:16:00,
2013-03-03 01:17:00,48.2,46.3,30.19,NNW,329,0.0,0.0,93,0.00,,BKN050,0.00,VWS V14.01,2013-03-02 11:17:00,
2013-03-03 01:18:00,48.2,46.3,30.19,NNW,329,0.0,0.0,93,0.00,,BKN050,0.00,VWS V14.01,2013-03-02 11:18:00,
2013-03-03 01:19:00,48.2,46.3,30.19,NNW,329,0.0,0.0,93,0.00,,BKN050,0.00,VWS V14.01,2013-03-02 11:19:00,
2013-03-03 01:20:00,48.7,46.5,30.19,NNW,329,0.0,0.0,92,0.00,,SCT200,0.00,VWS V14.01,2013-03-02 11:20:00,
2013-03-03 01:21:00,48.2,46.3,30.19,NNW,329,0.0,0.0,93,0.00,,BKN050,0.00,VWS V14.01,2013-03-02 11:21:00,
2013-03-03 01:22:00,48.2,46.3,30.19,NNW,329,0.0,0.0,93,0.00,,BKN050,0.00,VWS V14.01,2013-03-02 11:22:00,
2013-03-03 01:23:00,48.1,46.2,30.19,NNW,329,0.0,0.0,93,0.00,,BKN050,0.00,VWS V14.01,2013-03-02 11:23:00,
2013-03-03 01:24:00,48.1,46.2,30.19,NNW,329,0.0,0.0,93,0.00,,BKN050,0.00,VWS V14.01,2013-03-02 11:24:00,
2013-03-03 01:25:00,48.6,46.4,30.19,NNW,329,0.0,0.0,92,0.00,,SCT200,0.00,VWS V14.01,2013-03-02 11:25:00,
2013-03-03 01:26:00,48.1,46.2,30.19,NNW,329,0.0,0.0,93,0.00,,BKN050,0.00,VWS V14.01,2013-03-02 11:26:00,
2013-03-03 01:27:00,48.1,46.2,30.19,NNW,329,0.0,0.0,93,0.00,,BKN050,0.00,VWS V14.01,2013-03-02 11:27:00,
2013-03-03 01:28:00,48.1,46.2,30.19,NNW,330,0.0,0.0,93,0.00,,BKN050,0.00,VWS V14.01,2013-03-02 11:28:00,
2013-03-03 01:29:00,48.1,46.2,30.19,NNW,329,0.0,0.0,93,0.00,,BKN050,0.00,VWS V14.01,2013-03-02 11:29:00,
2013-03-03 01:30:00,48.6,46.4,30.19,NNW,329,0.0,0.0,92,0.00,,SCT200,0.00,VWS V14.01,2013-03-02 11:30:00,
2013-03-03 01:31:00,48.1,46.2,30.19,NNW,329,0.0,0.0,93,0.00,,BKN050,0.00,VWS V14.01,2013-03-02 11:31:00,
2013-03-03 01:32:00,48.1,46.2,30.19,NNW,329,0.0,0.0,93,0.00,,BKN050,0.00,VWS V14.01,2013-03-02 11:32:00,
2013-03-03 01:33:00,48.0,46.1,30.19,NNW,329,0.0,0.0,93,0.00,,BKN050,0.00,VWS V14.01,2013-03-02 11:33:00,
2013-03-03 01:34:00,48.0,46.1,30.19,NNW,329,0.0,0.0,93,0.00,,BKN050,0.00,VWS V14.01,2013-03-02 11:34:00,
2013-03-03 01:35:00,48.6,46.7,30.19,NNW,329,0.0,0.0,93,0.00,,SCT200,0.00,VWS V14.01,2013-03-02 11:35:00,
2013-03-03 01:36:00,48.1,46.2,30.19,NNW,329,0.0,0.0,93,0.00,,BKN050,0.00,VWS V14.01,2013-03-02 11:36:00,
2013-03-03 01:37:00,48.1,46.2,30.19,NNW,329,0.0,0.0,93,0.00,,BKN050,0.00,VWS V14.01,2013-03-02 11:37:00,
2013-03-03 01:38:00,48.1,46.2,30.19,NNW,329,0.0,0.0,93,0.00,,BKN050,0.00,VWS V14.01,2013-03-02 11:38:00,
2013-03-03 01:39:00,48.1,46.2,30.19,NNW,329,0.0,0.0,93,0.00,,BKN050,0.00,VWS V14.01,2013-03-02 11:39:00,
2013-03-03 01:40:00,48.6,46.7,30.19,NNW,329,0.0,0.0,93,0.00,,SCT200,0.00,VWS V14.01,2013-03-02 11:40:00,
2013-03-03 01:41:00,48.1,46.2,30.19,NNW,329,0.0,0.0,93,0.00,,BKN050,0.00,VWS V14.01,2013-03-02 11:41:00,
2013-03-03 01:43:00,48.0,46.1,30.19,NNW,329,0.0,0.0,93,0.00,,BKN050,0.00,VWS V14.01,2013-03-02 11:43:00,
2013-03-03 01:44:00,48.0,46.1,30.19,NNW,329,0.0,0.0,93,0.00,,BKN050,0.00,VWS V14.01,2013-03-02 11:44:00,
2013-03-03 01:45:00,48.5,46.3,30.19,NNW,329,0.0,0.0,92,0.00,,SCT200,0.00,VWS V14.01,2013-03-02 11:45:00,
2013-03-03 01:46:00,47.9,46.0,30.19,NNW,329,0.0,0.0,93,0.00,,BKN050,0.00,VWS V14.01,2013-03-02 11:46:00,
2013-03-03 01:47:00,47.9,46.0,30.19,NNW,329,0.0,0.0,93,0.00,,BKN050,0.00,VWS V14.01,2013-03-02 11:47:00,
2013-03-03 01:48:00,47.9,46.0,30.19,NNW,329,0.0,0.0,93,0.00,,BKN050,0.00,VWS V14.01,2013-03-02 11:48:00,
2013-03-03 01:49:00,47.9,46.0,30.19,NNW,329,0.0,0.0,93,0.00,,BKN050,0.00,VWS V14.01,2013-03-02 11:49:00,
2013-03-03 01:50:00,48.5,46.3,30.19,NNW,329,0.0,0.0,92,0.00,,SCT200,0.00,VWS V14.01,2013-03-02 11:50:00,
2013-03-03 01:51:00,47.9,46.0,30.19,NNW,329,0.0,0.0,93,0.00,,BKN050,0.00,VWS V14.01,2013-03-02 11:51:00,
2013-03-03 01:52:00,47.9,46.0,30.19,NNW,329,0.0,0.0,93,0.00,,BKN050,0.00,VWS V14.01,2013-03-02 11:52:00,
2013-03-03 01:53:00,47.9,46.0,30.19,NNW,329,0.0,0.0,93,0.00,,BKN050,0.00,VWS V14.01,2013-03-02 11:53:00,
2013-03-03 01:55:00,48.4,46.5,30.19,NNW,329,0.0,0.0,93,0.00,,SCT200,0.00,VWS V14.01,2013-03-02 11:55:00,
2013-03-03 01:56:00,47.9,46.0,30.19,NNW,330,0.0,0.0,93,0.00,,BKN050,0.00,VWS V14.01,2013-03-02 11:56:00,
2013-03-03 01:57:00,47.9,46.0,30.19,NNW,329,0.0,0.0,93,0.00,,BKN050,0.00,VWS V14.01,2013-03-02 11:57:00,
2013-03-03 01:58:00,48.0,46.1,30.19,NNW,329,0.0,0.0,93,0.00,,BKN050,0.00,VWS V14.01,2013-03-02 11:58:00,
2013-03-03 01:59:00,48.0,46.1,30.19,NNW,329,0.0,0.0,93,0.00,,BKN050,0.00,VWS V14.01,2013-03-02 11:59:00,
2013-03-03 02:00:00,48.3,46.4,30.19,NNW,329,0.0,0.0,93,0.00,,SCT200,0.00,VWS V14.01,2013-03-02 12:00:00,
2013-03-03 02:01:00,47.9,46.0,30.18,NNW,329,0.0,0.0,93,0.00,,BKN050,0.00,VWS V14.01,2013-03-02 12:01:00,
2013-03-03 02:02:00,47.9,46.0,30.18,NNW,329,0.0,0.0,93,0.00,,BKN050,0.00,VWS V14.01,2013-03-02 12:02:00,
2013-03-03 02:03:00,47.9,46.0,30.18,NNW,329,0.0,0.0,93,0.00,,BKN050,0.00,VWS V14.01,2013-03-02 12:03:00,
2013-03-03 02:04:00,48.0,46.1,30.18,NNW,329,0.0,0.0,93,0.00,,BKN050,0.00,VWS V14.01,2013-03-02 12:04:00,
2013-03-03 02:05:00,48.4,46.5,30.19,NNW,329,0.0,0.0,93,0.00,,SCT200,0.00,VWS V14.01,2013-03-02 12:05:00,
2013-03-03 02:06:00,48.0,46.1,30.18,NNW,329,0.0,0.0,93,0.00,,BKN050,0.00,VWS V14.01,2013-03-02 12:06:00,
2013-03-03 02:07:00,48.1,46.2,30.18,NNW,329,0.0,0.0,93,0.00,,BKN050,0.00,VWS V14.01,2013-03-02 12:07:00,
2013-03-03 02:08:00,48.1,46.2,30.18,NNW,329,0.0,0.0,93,0.00,,BKN050,0.00,VWS V14.01,2013-03-02 12:08:00,
2013-03-03 02:09:00,48.1,46.2,30.18,NNW,329,0.0,0.0,93,0.00,,BKN050,0.00,VWS V14.01,2013-03-02 12:09:00,
2013-03-03 02:10:00,48.3,46.4,30.19,NNW,329,0.0,0.0,93,0.00,,SCT200,0.00,VWS V14.01,2013-03-02 12:10:00,
2013-03-03 02:11:00,48.1,46.2,30.18,NNW,329,0.0,0.0,93,0.00,,BKN050,0.00,VWS V14.01,2013-03-02 12:11:00,
2013-03-03 02:12:00,48.1,46.2,30.18,NNW,330,0.0,0.0,93,0.00,,BKN050,0.00,VWS V14.01,2013-03-02 12:12:00,
2013-03-03 02:14:00,48.1,46.2,30.18,NNW,329,0.0,0.0,93,0.00,,BKN050,0.00,VWS V14.01,2013-03-02 12:14:00,
2013-03-03 02:15:00,48.2,46.3,30.19,NNW,329,0.0,0.0,93,0.00,,SCT200,0.00,VWS V14.01,2013-03-02 12:15:00,
2013-03-03 02:16:00,48.0,46.1,30.18,NNW,329,0.0,0.0,93,0.00,,BKN050,0.00,VWS V14.01,2013-03-02 12:16:00,
2013-03-03 02:17:00,48.0,46.1,30.18,NNW,329,0.0,0.0,93,0.00,,BKN050,0.00,VWS V14.01,2013-03-02 12:17:00,
2013-03-03 02:18:00,48.0,46.1,30.18,NNW,329,0.0,0.0,93,0.00,,BKN050,0.00,VWS V14.01,2013-03-02 12:18:00,
2013-03-03 02:19:00,47.9,46.0,30.18,NNW,329,0.0,0.0,93,0.00,,BKN050,0.00,VWS V14.01,2013-03-02 12:19:00,
2013-03-03 02:20:00,48.2,46.3,30.19,NNW,329,0.0,0.0,93,0.00,,SCT200,0.00,VWS V14.01,2013-03-02 12:20:00,
2013-03-03 02:21:00,47.9,46.0,30.19,NNW,329,0.0,0.0,93,0.00,,BKN050,0.00,VWS V14.01,2013-03-02 12:21:00,
2013-03-03 02:22:00,47.9,46.0,30.19,NNW,329,0.0,0.0,93,0.00,,BKN050,0.00,VWS V14.01,2013-03-02 12:22:00,
2013-03-03 02:23:00,47.9,46.0,30.19,NNW,329,0.0,0.0,93,0.00,,BKN050,0.00,VWS V14.01,2013-03-02 12:23:00,
2013-03-03 02:24:00,47.8,45.9,30.19,NNW,329,0.0,0.0,93,0.00,,BKN050,0.00,VWS V14.01,2013-03-02 12:24:00,
2013-03-03 02:25:00,48.1,46.2,30.19,NNW,329,0.0,0.0,93,0.00,,SCT200,0.00,VWS V14.01,2013-03-02 12:25:00,
2013-03-03 02:26:00,47.9,46.0,30.19,NNW,329,0.0,0.0,93,0.00,,BKN050,0.00,VWS V14.01,2013-03-02 12:26:00,
2013-03-03 02:27:00,47.8,45.9,30.19,NNW,329,0.0,0.0,93,0.00,,BKN050,0.00,VWS V14.01,2013-03-02 12:27:00,
2013-03-03 02:28:00,47.9,46.0,30.19,NNW,329,0.0,0.0,93,0.00,,BKN050,0.00,VWS V14.01,2013-03-02 12:28:00,
2013-03-03 02:29:00,47.8,45.9,30.19,NNW,329,0.0,0.0,93,0.00,,BKN050,0.00,VWS V14.01,2013-03-02 12:29:00,
2013-03-03 02:30:00,48.1,46.2,30.19,NNW,329,0.0,0.0,93,0.00,,SCT200,0.00,VWS V14.01,2013-03-02 12:30:00,
2013-03-03 02:31:00,47.8,45.9,30.19,NNW,330,0.0,0.0,93,0.00,,BKN050,0.00,VWS V14.01,2013-03-02 12:31:00,
2013-03-03 02:33:00,47.8,45.9,30.19,NNW,329,0.0,0.0,93,0.00,,BKN050,0.00,VWS V14.01,2013-03-02 12:33:00,
2013-03-03 02:35:00,48.1,46.2,30.19,NNW,329,0.0,0.0,93,0.00,,SCT200,0.00,VWS V14.01,2013-03-02 12:35:00,
2013-03-03 02:37:00,47.9,46.3,30.19,NNW,329,0.0,0.0,94,0.00,,BKN050,0.00,VWS V14.01,2013-03-02 12:37:00,
2013-03-03 02:38:00,47.9,46.0,30.19,NNW,329,0.0,0.0,93,0.00,,BKN050,0.00,VWS V14.01,2013-03-02 12:38:00,
2013-03-03 02:39:00,47.9,46.0,30.19,NNW,329,0.0,0.0,93,0.00,,BKN050,0.00,VWS V14.01,2013-03-02 12:39:00,
2013-03-03 02:40:00,48.1,46.2,30.19,NNW,329,0.0,0.0,93,0.00,,SCT200,0.00,VWS V14.01,2013-03-02 12:40:00,
2013-03-03 02:41:00,47.8,45.9,30.18,NNW,329,0.0,0.0,93,0.00,,BKN050,0.00,VWS V14.01,2013-03-02 12:41:00,
2013-03-03 02:45:00,47.9,46.0,30.19,NNW,329,0.0,0.0,93,0.00,,SCT200,0.00,VWS V14.01,2013-03-02 12:45:00,
2013-03-03 02:47:00,47.7,45.8,30.19,NNW,329,0.0,0.0,93,0.00,,BKN050,0.00,VWS V14.01,2013-03-02 12:47:00,
2013-03-03 02:48:00,47.6,45.7,30.19,NNW,329,0.0,0.0,93,0.00,,BKN050,0.00,VWS V14.01,2013-03-02 12:48:00,
2013-03-03 02:50:00,47.9,46.0,30.19,NNW,329,0.0,0.0,93,0.00,,SCT200,0.00,VWS V14.01,2013-03-02 12:50:00,
2013-03-03 02:51:00,47.6,46.0,30.19,NNW,329,0.0,0.0,94,0.00,,BKN050,0.00,VWS V14.01,2013-03-02 12:51:00,
2013-03-03 02:52:00,47.6,46.0,30.19,NNW,329,0.0,0.0,94,0.00,,BKN050,0.00,VWS V14.01,2013-03-02 12:52:00,
2013-03-03 02:53:00,47.5,45.9,30.19,NNW,329,0.0,0.0,94,0.00,,BKN050,0.00,VWS V14.01,2013-03-02 12:53:00,
2013-03-03 02:55:00,47.9,46.0,30.19,NNW,329,0.0,0.0,93,0.00,,SCT200,0.00,VWS V14.01,2013-03-02 12:55:00,
2013-03-03 02:56:00,47.4,45.5,30.19,NNW,329,0.0,0.0,93,0.00,,BKN050,0.00,VWS V14.01,2013-03-02 12:56:00,
2013-03-03 02:57:00,47.4,45.5,30.19,NNW,329,0.0,0.0,93,0.00,,BKN050,0.00,VWS V14.01,2013-03-02 12:57:00,
2013-03-03 02:59:00,47.4,45.8,30.18,NNW,329,0.0,0.0,94,0.00,,BKN050,0.00,VWS V14.01,2013-03-02 12:59:00,
2013-03-03 03:00:00,48.0,46.1,30.18,NNW,329,0.0,0.0,93,0.00,,SCT200,0.00,VWS V14.01,2013-03-02 13:00:00,
2013-03-03 03:01:00,47.4,45.8,30.18,NNW,329,0.0,0.0,94,0.00,,BKN050,0.00,VWS V14.01,2013-03-02 13:01:00,
2013-03-03 03:02:00,47.4,45.8,30.18,NNW,329,0.0,0.0,94,0.00,,BKN050,0.00,VWS V14.01,2013-03-02 13:02:00,
2013-03-03 03:03:00,47.4,45.8,30.18,NNW,329,0.0,0.0,94,0.00,,BKN050,0.00,VWS V14.01,2013-03-02 13:03:00,
2013-03-03 03:05:00,48.0,46.1,30.18,NNW,329,0.0,0.0,93,0.00,,SCT200,0.00,VWS V14.01,2013-03-02 13:05:00,
2013-03-03 03:06:00,47.5,45.9,30.18,NNW,329,0.0,0.0,94,0.00,,BKN050,0.00,VWS V14.01,2013-03-02 13:06:00,
2013-03-03 03:07:00,47.5,45.9,30.18,NNW,329,0.0,0.0,94,0.00,,BKN050,0.00,VWS V14.01,2013-03-02 13:07:00,
2013-03-03 03:08:00,47.5,45.9,30.18,NNW,329,0.0,1.0,94,0.00,,BKN050,0.00,VWS V14.01,2013-03-02 13:08:00,
2013-03-03 03:09:00,47.5,45.9,30.18,NNW,329,0.0,0.0,94,0.00,,BKN050,0.00,VWS V14.01,2013-03-02 13:09:00,
2013-03-03 03:10:00,48.1,46.2,30.18,NNW,329,0.0,0.0,93,0.00,,SCT200,0.00,VWS V14.01,2013-03-02 13:10:00,
2013-03-03 03:11:00,47.5,45.9,30.18,NNW,329,0.0,0.0,94,0.00,,BKN050,0.00,VWS V14.01,2013-03-02 13:11:00,
2013-03-03 03:12:00,47.6,46.0,30.18,NNW,330,0.0,0.0,94,0.00,,BKN050,0.00,VWS V14.01,2013-03-02 13:12:00,
2013-03-03 03:13:00,47.6,46.0,30.18,NNW,329,0.0,0.0,94,0.00,,BKN050,0.00,VWS V14.01,2013-03-02 13:13:00,
2013-03-03 03:14:00,47.6,46.0,30.18,NNW,329,0.0,0.0,94,0.00,,BKN050,0.00,VWS V14.01,2013-03-02 13:14:00,
2013-03-03 03:15:00,48.0,46.1,30.18,NNW,329,0.0,0.0,93,0.00,,SCT200,0.00,VWS V14.01,2013-03-02 13:15:00,
2013-03-03 03:16:00,47.6,46.0,30.18,NNW,329,0.0,0.0,94,0.00,,BKN050,0.00,VWS V14.01,2013-03-02 13:16:00,
2013-03-03 03:17:00,47.6,46.0,30.18,NNW,329,0.0,0.0,94,0.00,,BKN050,0.00,VWS V14.01,2013-03-02 13:17:00,
2013-03-03 03:18:00,47.6,46.0,30.18,NNW,329,0.0,0.0,94,0.00,,BKN050,0.00,VWS V14.01,2013-03-02 13:18:00,
2013-03-03 03:19:00,47.6,46.0,30.18,NNW,329,0.0,0.0,94,0.00,,BKN050,0.00,VWS V14.01,2013-03-02 13:19:00,
2013-03-03 03:20:00,47.9,46.0,30.19,NNW,329,0.0,0.0,93,0.00,,SCT200,0.00,VWS V14.01,2013-03-02 13:20:00,
2013-03-03 03:21:00,47.7,46.1,30.18,NNW,329,0.0,0.0,94,0.00,,BKN050,0.00,VWS V14.01,2013-03-02 13:21:00,
2013-03-03 03:22:00,47.7,46.1,30.18,NNW,329,0.0,0.0,94,0.00,,BKN050,0.00,VWS V14.01,2013-03-02 13:22:00,
2013-03-03 03:23:00,47.7,46.1,30.18,NNW,330,0.0,0.0,94,0.00,,BKN050,0.00,VWS V14.01,2013-03-02 13:23:00,
2013-03-03 03:24:00,47.8,46.2,30.18,NNW,329,0.0,0.0,94,0.00,,BKN050,0.00,VWS V14.01,2013-03-02 13:24:00,
2013-03-03 03:25:00,47.8,45.9,30.19,NNW,329,0.0,0.0,93,0.00,,SCT200,0.00,VWS V14.01,2013-03-02 13:25:00,
2013-03-03 03:26:00,47.8,46.2,30.18,NNW,329,0.0,0.0,94,0.00,,BKN050,0.00,VWS V14.01,2013-03-02 13:26:00,
2013-03-03 03:27:00,47.8,46.2,30.18,NNW,329,0.0,0.0,94,0.00,,BKN050,0.00,VWS V14.01,2013-03-02 13:27:00,
2013-03-03 03:28:00,47.9,46.3,30.18,NNW,329,0.0,0.0,94,0.00,,BKN050,0.00,VWS V14.01,2013-03-02 13:28:00,
2013-03-03 03:29:00,47.9,46.3,30.18,NNW,329,0.0,0.0,94,0.00,,BKN050,0.00,VWS V14.01,2013-03-02 13:29:00,
2013-03-03 03:30:00,47.8,45.9,30.19,NNW,329,0.0,0.0,93,0.00,,SCT200,0.00,VWS V14.01,2013-03-02 13:30:00,
2013-03-03 03:31:00,47.9,46.3,30.18,NNW,329,0.0,0.0,94,0.00,,BKN050,0.00,VWS V14.01,2013-03-02 13:31:00,
2013-03-03 03:32:00,47.9,46.3,30.18,NNW,329,0.0,0.0,94,0.00,,BKN050,0.00,VWS V14.01,2013-03-02 13:32:00,
2013-03-03 03:33:00,47.8,46.2,30.18,NNW,329,0.0,0.0,94,0.00,,BKN050,0.00,VWS V14.01,2013-03-02 13:33:00,
2013-03-03 03:34:00,47.8,46.2,30.18,NNW,329,0.0,0.0,94,0.00,,BKN050,0.00,VWS V14.01,2013-03-02 13:34:00,
2013-03-03 03:35:00,47.9,46.3,30.19,NNW,329,0.0,0.0,94,0.00,,SCT200,0.00,VWS V14.01,2013-03-02 13:35:00,
2013-03-03 03:36:00,47.9,46.3,30.18,NNW,329,0.0,0.0,94,0.00,,BKN050,0.00,VWS V14.01,2013-03-02 13:36:00,
2013-03-03 03:37:00,47.9,46.3,30.18,NNW,329,0.0,0.0,94,0.00,,BKN050,0.00,VWS V14.01,2013-03-02 13:37:00,
2013-03-03 03:38:00,47.9,46.3,30.18,NNW,330,0.0,0.0,94,0.00,,BKN050,0.00,VWS V14.01,2013-03-02 13:38:00,
2013-03-03 03:39:00,47.8,46.2,30.18,NNW,329,0.0,0.0,94,0.00,,BKN050,0.00,VWS V14.01,2013-03-02 13:39:00,
2013-03-03 03:40:00,47.8,45.9,30.18,NNW,329,0.0,0.0,93,0.00,,SCT200,0.00,VWS V14.01,2013-03-02 13:40:00,
2013-03-03 03:41:00,47.8,46.2,30.18,NNW,329,0.0,0.0,94,0.00,,BKN050,0.00,VWS V14.01,2013-03-02 13:41:00,
2013-03-03 03:42:00,47.8,46.2,30.18,NNW,329,0.0,0.0,94,0.00,,BKN050,0.00,VWS V14.01,2013-03-02 13:42:00,
2013-03-03 03:43:00,47.8,46.2,30.18,NNW,329,0.0,0.0,94,0.00,,BKN050,0.00,VWS V14.01,2013-03-02 13:43:00,
2013-03-03 03:44:00,47.8,46.2,30.18,NNW,329,0.0,0.0,94,0.00,,BKN050,0.00,VWS V14.01,2013-03-02 13:44:00,
2013-03-03 03:45:00,47.7,45.8,30.19,NNW,329,0.0,0.0,93,0.00,,SCT200,0.00,VWS V14.01,2013-03-02 13:45:00,
2013-03-03 03:46:00,47.7,46.1,30.18,NNW,329,0.0,0.0,94,0.00,,BKN050,0.00,VWS V14.01,2013-03-02 13:46:00,
2013-03-03 03:47:00,47.7,46.1,30.18,NNW,329,0.0,0.0,94,0.00,,BKN050,0.00,VWS V14.01,2013-03-02 13:47:00,
2013-03-03 03:48:00,47.7,46.1,30.18,NNW,329,0.0,0.0,94,0.00,,BKN050,0.00,VWS V14.01,2013-03-02 13:48:00,
2013-03-03 03:49:00,47.6,46.0,30.18,NNW,329,0.0,0.0,94,0.00,,BKN050,0.00,VWS V14.01,2013-03-02 13:49:00,
2013-03-03 03:50:00,47.6,46.0,30.19,NNW,329,0.0,0.0,94,0.00,,SCT200,0.00,VWS V14.01,2013-03-02 13:50:00,
2013-03-03 03:51:00,47.6,46.0,30.18,NNW,329,0.0,0.0,94,0.00,,BKN050,0.00,VWS V14.01,2013-03-02 13:51:00,
2013-03-03 03:52:00,47.6,46.0,30.18,NNW,329,0.0,0.0,94,0.00,,BKN050,0.00,VWS V14.01,2013-03-02 13:52:00,
2013-03-03 03:53:00,47.6,46.0,30.18,NNW,329,0.0,0.0,94,0.00,,BKN050,0.00,VWS V14.01,2013-03-02 13:53:00,
2013-03-03 03:54:00,47.7,46.1,30.18,NNW,329,0.0,0.0,94,0.00,,BKN050,0.00,VWS V14.01,2013-03-02 13:54:00,
2013-03-03 03:55:00,47.4,45.5,30.19,NNW,329,0.0,0.0,93,0.00,,SCT200,0.00,VWS V14.01,2013-03-02 13:55:00,
2013-03-03 03:56:00,47.8,46.2,30.18,NNW,329,0.0,0.0,94,0.00,,BKN050,0.00,VWS V14.01,2013-03-02 13:56:00,
2013-03-03 03:57:00,48.0,46.4,30.18,NNW,329,0.0,0.0,94,0.00,,BKN050,0.00,VWS V14.01,2013-03-02 13:57:00,
2013-03-03 03:58:00,48.2,46.8,30.18,NNW,329,0.0,0.0,95,0.00,,BKN050,0.00,VWS V14.01,2013-03-02 13:58:00,
2013-03-03 03:59:00,48.3,46.9,30.18,NNW,329,0.0,0.0,95,0.00,,BKN050,0.00,VWS V14.01,2013-03-02 13:59:00,
2013-03-03 04:00:00,47.4,45.8,30.18,NNW,329,0.0,0.0,94,0.00,,SCT200,0.00,VWS V14.01,2013-03-02 14:00:00,
2013-03-03 04:01:00,48.7,47.3,30.18,NNW,329,0.0,0.0,95,0.00,,BKN050,0.00,VWS V14.01,2013-03-02 14:01:00,
2013-03-03 04:02:00,48.8,47.4,30.19,NNW,329,0.0,0.0,95,0.00,,BKN050,0.00,VWS V14.01,2013-03-02 14:02:00,
2013-03-03 04:04:00,48.6,46.7,30.19,NNW,329,0.0,0.0,93,0.00,,BKN050,0.00,VWS V14.01,2013-03-02 14:04:00,
2013-03-03 04:05:00,47.5,45.9,30.18,NNW,329,0.0,0.0,94,0.00,,SCT200,0.00,VWS V14.01,2013-03-02 14:05:00,
2013-03-03 04:06:00,48.6,46.7,30.19,NNW,329,0.0,0.0,93,0.00,,BKN050,0.00,VWS V14.01,2013-03-02 14:06:00,
2013-03-03 04:07:00,48.7,47.0,30.19,NNW,330,0.0,0.0,94,0.00,,BKN050,0.00,VWS V14.01,2013-03-02 14:07:00,
2013-03-03 04:08:00,48.8,47.2,30.19,NNW,329,0.0,0.0,94,0.00,,BKN050,0.00,VWS V14.01,2013-03-02 14:08:00,
2013-03-03 04:09:00,49.0,47.3,30.19,NNW,329,0.0,0.0,94,0.00,,BKN050,0.00,VWS V14.01,2013-03-02 14:09:00,
2013-03-03 04:10:00,47.6,46.0,30.18,NNW,329,0.0,0.0,94,0.00,,SCT200,0.00,VWS V14.01,2013-03-02 14:10:00,
2013-03-03 04:11:00,49.1,47.5,30.19,NNW,329,0.0,0.0,94,0.00,,BKN050,0.00,VWS V14.01,2013-03-02 14:11:00,
2013-03-03 04:12:00,49.0,47.1,30.19,NNW,329,0.0,0.0,93,0.00,,BKN050,0.00,VWS V14.01,2013-03-02 14:12:00,
2013-03-03 04:13:00,48.9,47.0,30.19,NNW,329,0.0,0.0,93,0.00,,BKN050,0.00,VWS V14.01,2013-03-02 14:13:00,
2013-03-03 04:14:00,48.8,46.9,30.19,NNW,330,0.0,0.0,93,0.00,,BKN050,0.00,VWS V14.01,2013-03-02 14:14:00,
2013-03-03 04:15:00,47.6,46.0,30.18,NNW,329,0.0,0.0,94,0.00,,SCT200,0.00,VWS V14.01,2013-03-02 14:15:00,
2013-03-03 04:16:00,48.9,47.0,30.19,NNW,330,0.0,0.0,93,0.00,,BKN050,0.00,VWS V14.01,2013-03-02 14:16:00,
2013-03-03 04:17:00,49.0,47.1,30.19,NNW,329,0.0,0.0,93,0.00,,BKN050,0.00,VWS V14.01,2013-03-02 14:17:00,
2013-03-03 04:18:00,49.0,47.1,30.19,NNW,330,0.0,0.0,93,0.00,,BKN050,0.00,VWS V14.01,2013-03-02 14:18:00,
2013-03-03 04:19:00,49.0,47.1,30.19,NNW,329,0.0,1.0,93,0.00,,BKN050,0.00,VWS V14.01,2013-03-02 14:19:00,
2013-03-03 04:20:00,47.7,46.1,30.18,NNW,329,0.0,0.0,94,0.00,,SCT200,0.00,VWS V14.01,2013-03-02 14:20:00,
2013-03-03 04:21:00,48.8,46.6,30.19,NNW,329,0.0,1.0,92,0.00,,BKN050,0.00,VWS V14.01,2013-03-02 14:21:00,
2013-03-03 04:22:00,48.9,47.0,30.19,NNW,329,0.0,0.0,93,0.00,,BKN050,0.00,VWS V14.01,2013-03-02 14:22:00,
2013-03-03 04:23:00,49.0,47.1,30.19,NNW,329,0.0,0.0,93,0.00,,BKN050,0.00,VWS V14.01,2013-03-02 14:23:00,
2013-03-03 04:24:00,49.2,47.3,30.19,NNW,329,0.0,0.0,93,0.00,,BKN050,0.00,VWS V14.01,2013-03-02 14:24:00,
2013-03-03 04:25:00,47.8,46.2,30.18,NNW,329,0.0,0.0,94,0.00,,SCT200,0.00,VWS V14.01,2013-03-02 14:25:00,
2013-03-03 04:26:00,49.4,47.5,30.19,NNW,329,0.0,0.0,93,0.00,,BKN050,0.00,VWS V14.01,2013-03-02 14:26:00,
2013-03-03 04:27:00,49.7,47.8,30.19,NNW,329,0.0,0.0,93,0.00,,BKN050,0.00,VWS V14.01,2013-03-02 14:27:00,
2013-03-03 04:28:00,49.8,47.9,30.19,NNW,329,0.0,0.0,93,0.00,,BKN050,0.00,VWS V14.01,2013-03-02 14:28:00,
2013-03-03 04:29:00,49.7,47.5,30.19,NNW,329,0.0,0.0,92,0.00,,BKN050,0.00,VWS V14.01,2013-03-02 14:29:00,
2013-03-03 04:30:00,47.9,46.3,30.18,NNW,329,0.0,0.0,94,0.00,,SCT200,0.00,VWS V14.01,2013-03-02 14:30:00,
2013-03-03 04:31:00,49.9,48.0,30.19,NNW,329,0.0,0.0,93,0.00,,BKN050,0.00,VWS V14.01,2013-03-02 14:31:00,
2013-03-03 04:32:00,50.1,48.2,30.19,NNW,329,0.0,0.0,93,0.00,,BKN050,0.00,VWS V14.01,2013-03-02 14:32:00,
2013-03-03 04:33:00,50.2,48.0,30.19,NNW,329,0.0,0.0,92,0.00,,BKN050,0.00,VWS V14.01,2013-03-02 14:33:00,
2013-03-03 04:34:00,50.2,48.0,30.19,NNW,329,0.0,0.0,92,0.00,,BKN050,0.00,VWS V14.01,2013-03-02 14:34:00,
2013-03-03 04:35:00,47.9,46.3,30.18,NNW,329,0.0,0.0,94,0.00,,SCT200,0.00,VWS V14.01,2013-03-02 14:35:00,
2013-03-03 04:36:00,50.4,48.2,30.19,NNW,330,0.0,0.0,92,0.00,,BKN050,0.00,VWS V14.01,2013-03-02 14:36:00,
2013-03-03 04:37:00,50.3,47.8,30.19,NNW,329,0.0,0.0,91,0.00,,BKN050,0.00,VWS V14.01,2013-03-02 14:37:00,
2013-03-03 04:38:00,50.2,47.7,30.19,NNW,329,0.0,0.0,91,0.00,,BKN050,0.00,VWS V14.01,2013-03-02 14:38:00,
2013-03-03 04:39:00,50.1,47.6,30.19,NNW,329,0.0,0.0,91,0.00,,BKN050,0.00,VWS V14.01,2013-03-02 14:39:00,
2013-03-03 04:40:00,47.8,46.2,30.18,NNW,329,0.0,0.0,94,0.00,,SCT200,0.00,VWS V14.01,2013-03-02 14:40:00,
2013-03-03 04:41:00,50.3,48.1,30.19,NNW,329,0.0,0.0,92,0.00,,BKN050,0.00,VWS V14.01,2013-03-02 14:41:00,
2013-03-03 04:42:00,50.4,47.9,30.19,NNW,329,0.0,0.0,91,0.00,,BKN050,0.00,VWS V14.01,2013-03-02 14:42:00,
2013-03-03 04:43:00,50.5,48.0,30.19,NNW,329,0.0,0.0,91,0.00,,BKN050,0.00,VWS V14.01,2013-03-02 14:43:00,
2013-03-03 04:44:00,50.4,47.9,30.19,NNW,329,0.0,0.0,91,0.00,,BKN050,0.00,VWS V14.01,2013-03-02 14:44:00,
2013-03-03 04:45:00,47.7,46.1,30.18,NNW,329,0.0,0.0,94,0.00,,SCT200,0.00,VWS V14.01,2013-03-02 14:45:00,
2013-03-03 04:46:00,50.6,48.1,30.19,NNW,329,0.0,0.0,91,0.00,,BKN050,0.00,VWS V14.01,2013-03-02 14:46:00,
2013-03-03 04:47:00,50.6,48.1,30.20,NNW,329,0.0,0.0,91,0.00,,BKN050,0.00,VWS V14.01,2013-03-02 14:47:00,
2013-03-03 04:48:00,50.6,47.8,30.19,NNW,329,0.0,0.0,90,0.00,,BKN050,0.00,VWS V14.01,2013-03-02 14:48:00,
2013-03-03 04:49:00,50.5,47.7,30.19,NNW,329,0.0,0.0,90,0.00,,BKN050,0.00,VWS V14.01,2013-03-02 14:49:00,
2013-03-03 04:50:00,47.6,46.0,30.18,NNW,329,0.0,0.0,94,0.00,,SCT200,0.00,VWS V14.01,2013-03-02 14:50:00,
2013-03-03 04:51:00,50.8,48.3,30.19,NNW,329,0.0,0.0,91,0.00,,BKN050,0.00,VWS V14.01,2013-03-02 14:51:00,
2013-03-03 04:52:00,51.0,48.8,30.19,NNW,329,0.0,1.0,92,0.00,,BKN050,0.00,VWS V14.01,2013-03-02 14:52:00,
2013-03-03 04:53:00,51.0,48.5,30.20,NNW,330,0.0,0.0,91,0.00,,BKN050,0.00,VWS V14.01,2013-03-02 14:53:00,
2013-03-03 04:54:00,51.2,48.7,30.19,NNW,330,0.0,0.0,91,0.00,,BKN050,0.00,VWS V14.01,2013-03-02 14:54:00,
2013-03-03 04:55:00,47.9,46.3,30.18,NNW,330,0.0,0.0,94,0.00,,SCT200,0.00,VWS V14.01,2013-03-02 14:55:00,
2013-03-03 04:56:00,51.2,48.4,30.20,NNW,329,0.0,0.0,90,0.00,,BKN050,0.00,VWS V14.01,2013-03-02 14:56:00,
2013-03-03 04:57:00,51.2,48.4,30.20,NNW,329,0.0,0.0,90,0.00,,BKN050,0.00,VWS V14.01,2013-03-02 14:57:00,
2013-03-03 04:58:00,51.4,48.9,30.20,NNW,329,0.0,0.0,91,0.00,,BKN050,0.00,VWS V14.01,2013-03-02 14:58:00,
2013-03-03 04:59:00,51.6,49.1,30.20,NNW,330,0.0,0.0,91,0.00,,BKN050,0.00,VWS V14.01,2013-03-02 14:59:00,
2013-03-03 05:00:00,48.7,47.3,30.18,NNW,329,0.0,0.0,95,0.00,,BKN200,0.00,VWS V14.01,2013-03-02 15:00:00,
2013-03-03 05:01:00,51.9,49.1,30.20,NNW,330,0.0,0.0,90,0.00,,BKN050,0.00,VWS V14.01,2013-03-02 15:01:00,
2013-03-03 05:02:00,52.0,49.2,30.20,NNW,329,0.0,0.0,90,0.00,,BKN050,0.00,VWS V14.01,2013-03-02 15:02:00,
2013-03-03 05:03:00,52.0,48.9,30.20,NNW,329,0.0,0.0,89,0.00,,BKN050,0.00,VWS V14.01,2013-03-02 15:03:00,
2013-03-03 05:04:00,52.2,49.1,30.20,NNW,329,0.0,0.0,89,0.00,,BKN050,0.00,VWS V14.01,2013-03-02 15:04:00,
2013-03-03 05:05:00,48.7,47.0,30.19,NNW,329,0.0,0.0,94,0.00,,BKN200,0.00,VWS V14.01,2013-03-02 15:05:00,
2013-03-03 05:06:00,52.3,49.2,30.20,NNW,329,0.0,0.0,89,0.00,,BKN050,0.00,VWS V14.01,2013-03-02 15:06:00,
2013-03-03 05:07:00,52.4,49.3,30.20,NNW,329,0.0,0.0,89,0.00,,BKN050,0.00,VWS V14.01,2013-03-02 15:07:00,
2013-03-03 05:08:00,52.4,49.3,30.20,NNW,329,0.0,1.0,89,0.00,,BKN050,0.00,VWS V14.01,2013-03-02 15:08:00,
2013-03-03 05:09:00,52.5,49.1,30.20,NNW,329,0.0,1.0,88,0.00,,BKN050,0.00,VWS V14.01,2013-03-02 15:09:00,
2013-03-03 05:10:00,49.1,47.2,30.19,NNW,329,0.0,0.0,93,0.00,,BKN200,0.00,VWS V14.01,2013-03-02 15:10:00,
2013-03-03 05:11:00,52.6,49.2,30.20,NNW,329,1.0,1.0,88,0.00,,BKN050,0.00,VWS V14.01,2013-03-02 15:11:00,
2013-03-03 05:12:00,52.6,49.2,30.20,NNW,329,0.0,1.0,88,0.00,,BKN050,0.00,VWS V14.01,2013-03-02 15:12:00,
2013-03-03 05:13:00,52.7,49.2,30.20,NNW,329,0.0,0.0,88,0.00,,BKN050,0.00,VWS V14.01,2013-03-02 15:13:00,
2013-03-03 05:14:00,52.8,49.3,30.20,NNW,329,0.0,1.0,88,0.00,,BKN050,0.00,VWS V14.01,2013-03-02 15:14:00,
2013-03-03 05:15:00,49.0,47.1,30.19,NNW,330,0.0,0.0,93,0.00,,BKN200,0.00,VWS V14.01,2013-03-02 15:15:00,
2013-03-03 05:16:00,52.9,49.5,30.20,NNW,329,0.0,1.0,88,0.00,,BKN050,0.00,VWS V14.01,2013-03-02 15:16:00,
2013-03-03 05:17:00,53.0,49.5,30.20,NNW,329,0.0,0.0,88,0.00,,BKN050,0.00,VWS V14.01,2013-03-02 15:17:00,
2013-03-03 05:18:00,53.1,49.7,30.20,NNW,329,0.0,1.0,88,0.00,,BKN050,0.00,VWS V14.01,2013-03-02 15:18:00,
2013-03-03 05:20:00,48.9,47.0,30.19,NNW,329,0.0,0.0,93,0.00,,BKN200,0.00,VWS V14.01,2013-03-02 15:20:00,
2013-03-03 05:21:00,53.3,49.5,30.20,NNW,329,0.0,1.0,87,0.00,,BKN050,0.00,VWS V14.01,2013-03-02 15:21:00,
2013-03-03 05:22:00,53.4,49.9,30.20,NNW,329,0.0,0.0,88,0.00,,BKN050,0.00,VWS V14.01,2013-03-02 15:22:00,
2013-03-03 05:23:00,53.5,50.0,30.20,NNW,329,1.0,1.0,88,0.00,,BKN050,0.00,VWS V14.01,2013-03-02 15:23:00,
2013-03-03 05:25:00,49.6,47.7,30.19,NNW,329,0.0,0.0,93,0.00,,BKN200,0.00,VWS V14.01,2013-03-02 15:25:00,
2013-03-03 05:26:00,53.6,49.8,30.20,NNW,329,0.0,1.0,87,0.00,,BKN050,0.00,VWS V14.01,2013-03-02 15:26:00,
2013-03-03 05:27:00,53.7,49.9,30.20,NNW,329,0.0,1.0,87,0.00,,BKN050,0.00,VWS V14.01,2013-03-02 15:27:00,
2013-03-03 05:28:00,53.7,49.9,30.20,NNW,329,0.0,1.0,87,0.00,,BKN050,0.00,VWS V14.01,2013-03-02 15:28:00,
2013-03-03 05:29:00,53.8,50.0,30.19,NNW,329,0.0,0.0,87,0.00,,BKN050,0.00,VWS V14.01,2013-03-02 15:29:00,
2013-03-03 05:30:00,50.0,48.1,30.19,NNW,329,0.0,0.0,93,0.00,,BKN200,0.00,VWS V14.01,2013-03-02 15:30:00,
2013-03-03 05:31:00,54.0,50.2,30.19,NNW,329,0.0,0.0,87,0.00,,BKN050,0.00,VWS V14.01,2013-03-02 15:31:00,
2013-03-03 05:32:00,54.1,50.3,30.19,NNW,329,0.0,0.0,87,0.00,,BKN050,0.00,VWS V14.01,2013-03-02 15:32:00,
2013-03-03 05:33:00,54.2,50.4,30.20,NNW,329,0.0,0.0,87,0.00,,BKN050,0.00,VWS V14.01,2013-03-02 15:33:00,
2013-03-03 05:34:00,54.3,50.5,30.20,NNW,329,0.0,0.0,87,0.00,,BKN050,0.00,VWS V14.01,2013-03-02 15:34:00,
2013-03-03 05:35:00,50.4,48.2,30.19,NNW,329,0.0,0.0,92,0.00,,BKN200,0.00,VWS V14.01,2013-03-02 15:35:00,
2013-03-03 05:36:00,54.3,50.2,30.20,NNW,329,0.0,0.0,86,0.00,,BKN050,0.00,VWS V14.01,2013-03-02 15:36:00,
2013-03-03 05:37:00,54.4,50.3,30.20,NNW,330,0.0,0.0,86,0.00,,BKN050,0.00,VWS V14.01,2013-03-02 15:37:00,
2013-03-03 05:38:00,54.4,50.3,30.20,NNW,329,0.0,0.0,86,0.00,,BKN050,0.00,VWS V14.01,2013-03-02 15:38:00,
2013-03-03 05:39:00,54.5,50.4,30.20,NNW,329,0.0,0.0,86,0.00,,BKN050,0.00,VWS V14.01,2013-03-02 15:39:00,
2013-03-03 05:40:00,50.4,48.2,30.19,NNW,329,0.0,0.0,92,0.00,,BKN200,0.00,VWS V14.01,2013-03-02 15:40:00,
2013-03-03 05:41:00,54.6,50.5,30.20,NNW,329,0.0,0.0,86,0.00,,BKN050,0.00,VWS V14.01,2013-03-02 15:41:00,
2013-03-03 05:42:00,54.7,50.6,30.20,NNW,329,0.0,0.0,86,0.00,,BKN050,0.00,VWS V14.01,2013-03-02 15:42:00,
2013-03-03 05:43:00,54.9,51.1,30.20,NNW,329,0.0,0.0,87,0.00,,BKN050,0.00,VWS V14.01,2013-03-02 15:43:00,
2013-03-03 05:44:00,55.0,50.9,30.20,NNW,329,0.0,1.0,86,0.00,,BKN050,0.00,VWS V14.01,2013-03-02 15:44:00,
2013-03-03 05:45:00,50.6,48.1,30.19,NNW,330,0.0,0.0,91,0.00,,BKN200,0.00,VWS V14.01,2013-03-02 15:45:00,
2013-03-03 05:46:00,55.1,51.0,30.20,NNW,329,2.0,2.0,86,0.00,,BKN050,0.00,VWS V14.01,2013-03-02 15:46:00,
2013-03-03 05:47:00,55.2,50.8,30.20,NNW,330,0.0,2.0,85,0.00,,BKN050,0.00,VWS V14.01,2013-03-02 15:47:00,
2013-03-03 05:48:00,55.2,50.8,30.20,NNW,329,3.0,3.0,85,0.00,,BKN050,0.00,VWS V14.01,2013-03-02 15:48:00,
2013-03-03 05:49:00,55.2,50.8,30.20,NNW,329,1.0,3.0,85,0.00,,BKN050,0.00,VWS V14.01,2013-03-02 15:49:00,
2013-03-03 05:50:00,50.9,48.7,30.19,NNW,329,0.0,1.0,92,0.00,,BKN200,0.00,VWS V14.01,2013-03-02 15:50:00,
2013-03-03 05:51:00,55.2,50.8,30.20,NNW,329,2.0,3.0,85,0.00,,BKN050,0.00,VWS V14.01,2013-03-02 15:51:00,
2013-03-03 05:52:00,55.3,50.9,30.20,NNW,329,1.0,3.0,85,0.00,,BKN050,0.00,VWS V14.01,2013-03-02 15:52:00,
2013-03-03 05:54:00,55.3,50.9,30.20,NNW,329,0.0,1.0,85,0.00,,BKN050,0.00,VWS V14.01,2013-03-02 15:54:00,
2013-03-03 05:55:00,51.1,48.3,30.20,NNW,329,0.0,0.0,90,0.00,,BKN200,0.00,VWS V14.01,2013-03-02 15:55:00,
2013-03-03 05:56:00,55.4,51.0,30.20,NNW,329,0.0,0.0,85,0.00,,BKN050,0.00,VWS V14.01,2013-03-02 15:56:00,
2013-03-03 05:57:00,55.5,51.1,30.20,NNW,329,0.0,1.0,85,0.00,,BKN050,0.00,VWS V14.01,2013-03-02 15:57:00,
2013-03-03 05:58:00,55.5,51.1,30.20,NNW,329,0.0,1.0,85,0.00,,BKN050,0.00,VWS V14.01,2013-03-02 15:58:00,
2013-03-03 05:59:00,55.7,51.3,30.20,NNW,329,0.0,0.0,85,0.00,,BKN050,0.00,VWS V14.01,2013-03-02 15:59:00,
2013-03-03 06:00:00,51.9,49.1,30.20,NNW,329,0.0,0.0,90,0.00,,BKN200,0.00,VWS V14.01,2013-03-02 16:00:00,
2013-03-03 06:01:00,55.9,51.5,30.20,NNW,329,0.0,1.0,85,0.00,,BKN050,0.00,VWS V14.01,2013-03-02 16:01:00,
2013-03-03 06:02:00,56.0,51.6,30.20,NNW,329,0.0,0.0,85,0.00,,BKN050,0.00,VWS V14.01,2013-03-02 16:02:00,
2013-03-03 06:03:00,56.0,51.6,30.20,NNW,329,2.0,2.0,85,0.00,,BKN050,0.00,VWS V14.01,2013-03-02 16:03:00,
2013-03-03 06:04:00,56.0,51.2,30.20,NNW,329,0.0,2.0,84,0.00,,BKN050,0.00,VWS V14.01,2013-03-02 16:04:00,
2013-03-03 06:05:00,52.3,49.2,30.20,NNW,329,0.0,0.0,89,0.00,,BKN200,0.00,VWS V14.01,2013-03-02 16:05:00,
2013-03-03 06:06:00,56.0,51.2,30.20,NNW,329,1.0,1.0,84,0.00,,BKN050,0.00,VWS V14.01,2013-03-02 16:06:00,
2013-03-03 06:07:00,56.0,51.2,30.20,NNW,329,2.0,3.0,84,0.00,,BKN050,0.00,VWS V14.01,2013-03-02 16:07:00,
2013-03-03 06:08:00,56.0,51.2,30.20,NNW,329,3.0,3.0,84,0.00,,BKN050,0.00,VWS V14.01,2013-03-02 16:08:00,
2013-03-03 06:09:00,55.9,51.1,30.20,NNW,329,0.0,3.0,84,0.00,,BKN050,0.00,VWS V14.01,2013-03-02 16:09:00,
2013-03-03 06:10:00,52.6,49.2,30.20,NNW,329,0.0,1.0,88,0.00,,BKN200,0.00,VWS V14.01,2013-03-02 16:10:00,
2013-03-03 06:11:00,56.1,51.7,30.20,NNW,329,1.0,1.0,85,0.00,,BKN050,0.00,VWS V14.01,2013-03-02 16:11:00,
2013-03-03 06:12:00,56.2,51.8,30.20,NNW,329,0.0,1.0,85,0.00,,BKN050,0.00,VWS V14.01,2013-03-02 16:12:00,
2013-03-03 06:13:00,56.4,52.0,30.20,NNW,329,0.0,1.0,85,0.00,,BKN050,0.00,VWS V14.01,2013-03-02 16:13:00,
2013-03-03 06:14:00,56.7,52.2,30.20,NNW,329,1.0,1.0,85,0.00,,BKN050,0.00,VWS V14.01,2013-03-02 16:14:00,
2013-03-03 06:15:00,53.0,49.5,30.20,NNW,329,0.0,0.0,88,0.00,,BKN200,0.00,VWS V14.01,2013-03-02 16:15:00,
2013-03-03 06:16:00,57.1,52.3,30.20,NNW,329,0.0,1.0,84,0.00,,BKN050,0.00,VWS V14.01,2013-03-02 16:16:00,
2013-03-03 06:17:00,57.3,52.2,30.20,NNW,329,0.0,0.0,83,0.00,,BKN050,0.00,VWS V14.01,2013-03-02 16:17:00,
2013-03-03 06:18:00,57.5,52.4,30.20,NNW,329,0.0,1.0,83,0.00,,BKN050,0.00,VWS V14.01,2013-03-02 16:18:00,
2013-03-03 06:19:00,57.5,52.1,30.20,NNW,329,0.0,1.0,82,0.00,,BKN050,0.00,VWS V14.01,2013-03-02 16:19:00,
2013-03-03 06:20:00,53.3,49.8,30.20,NNW,329,0.0,0.0,88,0.00,,BKN200,0.00,VWS V14.01,2013-03-02 16:20:00,
2013-03-03 06:21:00,57.3,51.9,30.20,NNW,329,1.0,3.0,82,0.00,,BKN050,0.00,VWS V14.01,2013-03-02 16:21:00,
2013-03-03 06:22:00,57.3,51.9,30.20,NNW,329,0.0,2.0,82,0.00,,BKN050,0.00,VWS V14.01,2013-03-02 16:22:00,
2013-03-03 06:23:00,57.3,52.2,30.20,NNW,329,0.0,1.0,83,0.00,,BKN050,0.00,VWS V14.01,2013-03-02 16:23:00,
2013-03-03 06:24:00,57.3,52.2,30.20,NNW,329,0.0,1.0,83,0.00,,BKN050,0.00,VWS V14.01,2013-03-02 16:24:00,
2013-03-03 06:25:00,53.7,49.9,30.20,NNW,329,1.0,1.0,87,0.00,,BKN200,0.00,VWS V14.01,2013-03-02 16:25:00,
2013-03-03 06:26:00,57.5,52.4,30.20,NNW,329,0.0,2.0,83,0.00,,BKN050,0.00,VWS V14.01,2013-03-02 16:26:00,
2013-03-03 06:27:00,57.5,52.4,30.20,NNW,329,0.0,0.0,83,0.00,,BKN050,0.00,VWS V14.01,2013-03-02 16:27:00,
2013-03-03 06:28:00,57.7,52.6,30.20,NNW,329,0.0,0.0,83,0.00,,BKN050,0.00,VWS V14.01,2013-03-02 16:28:00,
2013-03-03 06:29:00,57.9,52.5,30.20,NNW,329,0.0,0.0,82,0.00,,BKN050,0.00,VWS V14.01,2013-03-02 16:29:00,
2013-03-03 06:30:00,54.0,50.2,30.19,NNW,329,0.0,0.0,87,0.00,,BKN200,0.00,VWS V14.01,2013-03-02 16:30:00,
2013-03-03 06:31:00,58.0,52.5,30.19,NNW,329,0.0,1.0,82,0.00,,BKN050,0.00,VWS V14.01,2013-03-02 16:31:00,
2013-03-03 06:32:00,58.1,52.6,30.20,NNW,329,0.0,2.0,82,0.00,,BKN050,0.00,VWS V14.01,2013-03-02 16:32:00,
2013-03-03 06:33:00,58.1,52.3,30.19,NNW,329,2.0,2.0,81,0.00,,BKN050,0.00,VWS V14.01,2013-03-02 16:33:00,
2013-03-03 06:34:00,58.1,52.3,30.19,NNW,329,0.0,2.0,81,0.00,,BKN050,0.00,VWS V14.01,2013-03-02 16:34:00,
2013-03-03 06:35:00,54.4,50.3,30.20,NNW,329,0.0,0.0,86,0.00,,BKN200,0.00,VWS V14.01,2013-03-02 16:35:00,
2013-03-03 06:36:00,58.7,53.2,30.19,NNW,329,0.0,0.0,82,0.00,,BKN050,0.00,VWS V14.01,2013-03-02 16:36:00,
2013-03-03 06:37:00,58.7,52.6,30.19,NNW,329,0.0,0.0,80,0.00,,BKN050,0.00,VWS V14.01,2013-03-02 16:37:00,
2013-03-03 06:38:00,58.7,52.6,30.19,NNW,329,0.0,0.0,80,0.00,,BKN050,0.00,VWS V14.01,2013-03-02 16:38:00,
2013-03-03 06:39:00,58.8,52.7,30.20,NNW,329,0.0,1.0,80,0.00,,BKN050,0.00,VWS V14.01,2013-03-02 16:39:00,
2013-03-03 06:40:00,54.7,50.6,30.20,NNW,329,0.0,0.0,86,0.00,,BKN200,0.00,VWS V14.01,2013-03-02 16:40:00,
2013-03-03 06:41:00,58.7,52.6,30.19,NNW,329,1.0,1.0,80,0.00,,BKN050,0.00,VWS V14.01,2013-03-02 16:41:00,
2013-03-03 06:42:00,58.8,52.7,30.19,NNW,329,0.0,3.0,80,0.00,,BKN050,0.00,VWS V14.01,2013-03-02 16:42:00,
2013-03-03 06:43:00,58.7,52.6,30.20,NNW,329,1.0,2.0,80,0.00,,BKN050,0.00,VWS V14.01,2013-03-02 16:43:00,
2013-03-03 06:44:00,58.9,52.8,30.20,NNW,329,1.0,2.0,80,0.00,,BKN050,0.00,VWS V14.01,2013-03-02 16:44:00,
2013-03-03 06:45:00,55.1,51.0,30.20,NNW,329,0.0,2.0,86,0.00,,BKN200,0.00,VWS V14.01,2013-03-02 16:45:00,
2013-03-03 06:46:00,59.0,52.8,30.19,NNW,329,0.0,1.0,80,0.00,,BKN050,0.00,VWS V14.01,2013-03-02 16:46:00,
2013-03-03 06:47:00,59.0,52.5,30.19,NNW,329,0.0,1.0,79,0.00,,BKN050,0.00,VWS V14.01,2013-03-02 16:47:00,
2013-03-03 06:48:00,59.0,52.5,30.19,NNW,329,0.0,1.0,79,0.00,,BKN050,0.00,VWS V14.01,2013-03-02 16:48:00,
2013-03-03 06:49:00,59.1,52.6,30.19,NNW,329,0.0,0.0,79,0.00,,BKN050,0.00,VWS V14.01,2013-03-02 16:49:00,
2013-03-03 06:50:00,55.2,50.8,30.20,NNW,329,2.0,2.0,85,0.00,,BKN200,0.00,VWS V14.01,2013-03-02 16:50:00,
2013-03-03 06:51:00,59.5,52.7,30.19,NNW,329,1.0,3.0,78,0.00,,BKN050,0.00,VWS V14.01,2013-03-02 16:51:00,
2013-03-03 06:52:00,59.4,52.2,30.20,NNW,329,1.0,2.0,77,0.00,,BKN050,0.00,VWS V14.01,2013-03-02 16:52:00,
2013-03-03 06:53:00,59.4,52.5,30.19,NNW,329,0.0,1.0,78,0.00,,BKN050,0.00,VWS V14.01,2013-03-02 16:53:00,
2013-03-03 06:54:00,59.4,52.5,30.19,NNW,329,2.0,2.0,78,0.00,,BKN050,0.00,VWS V14.01,2013-03-02 16:54:00,
2013-03-03 06:55:00,55.5,51.1,30.20,NNW,329,1.0,1.0,85,0.00,,BKN200,0.00,VWS V14.01,2013-03-02 16:55:00,
2013-03-03 06:56:00,59.8,53.3,30.19,NNW,329,0.0,2.0,79,0.00,,BKN050,0.00,VWS V14.01,2013-03-02 16:56:00,
2013-03-03 06:57:00,59.9,53.0,30.19,NNW,329,1.0,1.0,78,0.00,,BKN050,0.00,VWS V14.01,2013-03-02 16:57:00,
2013-03-03 06:58:00,59.9,52.7,30.19,NNW,329,1.0,2.0,77,0.00,,BKN050,0.00,VWS V14.01,2013-03-02 16:58:00,
2013-03-03 06:59:00,59.8,52.6,30.19,NNW,329,1.0,2.0,77,0.00,,BKN050,0.00,VWS V14.01,2013-03-02 16:59:00,
2013-03-03 07:00:00,55.9,51.5,30.20,NNW,329,0.0,0.0,85,0.00,,BKN200,0.00,VWS V14.01,2013-03-02 17:00:00,
2013-03-03 07:01:00,60.0,53.1,30.19,NNW,329,1.0,1.0,78,0.00,,BKN050,0.00,VWS V14.01,2013-03-02 17:01:00,
2013-03-03 07:02:00,60.2,53.3,30.19,NNW,329,0.0,1.0,78,0.00,,BKN050,0.00,VWS V14.01,2013-03-02 17:02:00,
2013-03-03 07:03:00,60.5,53.3,30.19,NNW,329,0.0,1.0,77,0.00,,BKN050,0.00,VWS V14.01,2013-03-02 17:03:00,
2013-03-03 07:04:00,60.6,53.4,30.19,NNW,329,1.0,2.0,77,0.00,,BKN050,0.00,VWS V14.01,2013-03-02 17:04:00,
2013-03-03 07:05:00,56.0,51.2,30.20,NNW,329,2.0,2.0,84,0.00,,BKN200,0.00,VWS V14.01,2013-03-02 17:05:00,
2013-03-03 07:06:00,60.7,53.1,30.19,NNW,329,0.0,1.0,76,0.00,,BKN050,0.00,VWS V14.01,2013-03-02 17:06:00,
2013-03-03 07:07:00,60.8,53.2,30.19,NNW,329,0.0,1.0,76,0.00,,BKN050,0.00,VWS V14.01,2013-03-02 17:07:00,
2013-03-03 07:08:00,60.9,53.3,30.19,NNW,329,0.0,1.0,76,0.00,,BKN050,0.00,VWS V14.01,2013-03-02 17:08:00,
2013-03-03 07:09:00,60.9,52.9,30.19,NNW,329,1.0,2.0,75,0.00,,BKN050,0.00,VWS V14.01,2013-03-02 17:09:00,
2013-03-03 07:10:00,56.2,51.8,30.20,NNW,329,0.0,1.0,85,0.00,,BKN200,0.00,VWS V14.01,2013-03-02 17:10:00,
2013-03-03 07:11:00,60.6,53.0,30.19,NNW,329,1.0,1.0,76,0.00,,BKN050,0.00,VWS V14.01,2013-03-02 17:11:00,
2013-03-03 07:12:00,60.5,52.5,30.19,NNW,329,0.0,1.0,75,0.00,,BKN050,0.00,VWS V14.01,2013-03-02 17:12:00,
2013-03-03 07:13:00,60.4,52.5,30.19,NNW,329,0.0,0.0,75,0.00,,BKN050,0.00,VWS V14.01,2013-03-02 17:13:00,
2013-03-03 07:14:00,60.7,53.1,30.19,NNW,329,0.0,0.0,76,0.00,,BKN050,0.00,VWS V14.01,2013-03-02 17:14:00,
2013-03-03 07:15:00,57.2,52.4,30.20,NNW,329,0.0,0.0,84,0.00,,BKN200,0.00,VWS V14.01,2013-03-02 17:15:00,
2013-03-03 07:16:00,61.1,52.8,30.19,NNW,329,0.0,1.0,74,0.00,,BKN050,0.00,VWS V14.01,2013-03-02 17:16:00,
2013-03-03 07:17:00,61.2,53.2,30.19,NNW,329,0.0,1.0,75,0.00,,BKN050,0.00,VWS V14.01,2013-03-02 17:17:00,
2013-03-03 07:18:00,61.4,53.4,30.19,NNW,329,0.0,0.0,75,0.00,,BKN050,0.00,VWS V14.01,2013-03-02 17:18:00,
2013-03-03 07:19:00,61.8,53.8,30.19,NNW,329,0.0,1.0,75,0.00,,BKN050,0.00,VWS V14.01,2013-03-02 17:19:00,
2013-03-03 07:20:00,57.3,51.9,30.20,NNW,329,0.0,2.0,82,0.00,,BKN200,0.00,VWS V14.01,2013-03-02 17:20:00,
2013-03-03 07:21:00,61.7,53.3,30.19,NNW,329,0.0,1.0,74,0.00,,BKN050,0.00,VWS V14.01,2013-03-02 17:21:00,
2013-03-03 07:22:00,61.9,53.9,30.19,NNW,329,0.0,1.0,75,0.00,,BKN050,0.00,VWS V14.01,2013-03-02 17:22:00,
2013-03-03 07:23:00,62.2,53.8,30.19,NNW,329,0.0,0.0,74,0.00,,BKN050,0.00,VWS V14.01,2013-03-02 17:23:00,
2013-03-03 07:24:00,62.3,53.9,30.19,NNW,329,1.0,1.0,74,0.00,,BKN050,0.00,VWS V14.01,2013-03-02 17:24:00,
2013-03-03 07:25:00,57.5,52.4,30.20,NNW,329,0.0,0.0,83,0.00,,BKN200,0.00,VWS V14.01,2013-03-02 17:25:00,
2013-03-03 07:26:00,62.6,53.8,30.18,NNW,329,1.0,1.0,73,0.00,,BKN050,0.00,VWS V14.01,2013-03-02 17:26:00,
2013-03-03 07:27:00,62.4,53.3,30.18,NNW,329,0.0,1.0,72,0.00,,BKN050,0.00,VWS V14.01,2013-03-02 17:27:00,
2013-03-03 07:28:00,62.4,53.6,30.18,NNW,329,0.0,0.0,73,0.00,,BKN050,0.00,VWS V14.01,2013-03-02 17:28:00,
2013-03-03 07:29:00,62.4,53.6,30.18,NNW,329,0.0,1.0,73,0.00,,BKN050,0.00,VWS V14.01,2013-03-02 17:29:00,
2013-03-03 07:30:00,58.0,52.5,30.19,NNW,329,2.0,2.0,82,0.00,,BKN200,0.00,VWS V14.01,2013-03-02 17:30:00,
2013-03-03 07:31:00,62.5,53.7,30.18,NNW,329,1.0,2.0,73,0.00,,BKN050,0.00,VWS V14.01,2013-03-02 17:31:00,
2013-03-03 07:32:00,62.3,53.5,30.18,NNW,330,1.0,2.0,73,0.00,,BKN050,0.00,VWS V14.01,2013-03-02 17:32:00,
2013-03-03 07:33:00,62.2,53.5,30.18,North,355,1.0,2.0,73,0.00,,BKN050,0.00,VWS V14.01,2013-03-02 17:33:00,
2013-03-03 07:34:00,62.2,53.5,30.18,North,355,2.0,3.0,73,0.00,,BKN050,0.00,VWS V14.01,2013-03-02 17:34:00,
2013-03-03 07:35:00,58.7,53.2,30.19,NNW,329,0.0,0.0,82,0.00,,BKN200,0.00,VWS V14.01,2013-03-02 17:35:00,
2013-03-03 07:36:00,61.9,53.2,30.18,North,355,1.0,1.0,73,0.00,,BKN050,0.00,VWS V14.01,2013-03-02 17:36:00,
2013-03-03 07:37:00,62.0,53.6,30.18,North,355,1.0,1.0,74,0.00,,BKN050,0.00,VWS V14.01,2013-03-02 17:37:00,
2013-03-03 07:38:00,62.1,53.3,30.18,North,355,1.0,1.0,73,0.00,,BKN050,0.00,VWS V14.01,2013-03-02 17:38:00,
2013-03-03 07:39:00,62.2,53.5,30.18,North,355,0.0,1.0,73,0.00,,BKN050,0.00,VWS V14.01,2013-03-02 17:39:00,
2013-03-03 07:40:00,58.7,52.6,30.19,NNW,329,3.0,3.0,80,0.00,,BKN200,0.00,VWS V14.01,2013-03-02 17:40:00,
2013-03-03 07:41:00,62.3,53.5,30.18,North,355,0.0,1.0,73,0.00,,BKN050,0.00,VWS V14.01,2013-03-02 17:41:00,
2013-03-03 07:42:00,62.2,53.1,30.18,North,355,0.0,1.0,72,0.00,,BKN050,0.00,VWS V14.01,2013-03-02 17:42:00,
2013-03-03 07:43:00,62.3,53.9,30.18,North,355,1.0,1.0,74,0.00,,BKN050,0.00,VWS V14.01,2013-03-02 17:43:00,
2013-03-03 07:44:00,62.7,53.9,30.18,North,355,0.0,1.0,73,0.00,,BKN050,0.00,VWS V14.01,2013-03-02 17:44:00,
2013-03-03 07:45:00,58.9,52.8,30.19,NNW,329,0.0,1.0,80,0.00,,BKN200,0.00,VWS V14.01,2013-03-02 17:45:00,
2013-03-03 07:46:00,62.9,53.4,30.18,North,355,1.0,1.0,71,0.00,,BKN050,0.00,VWS V14.01,2013-03-02 17:46:00,
2013-03-03 07:47:00,62.9,53.8,30.18,North,355,0.0,1.0,72,0.00,,BKN050,0.00,VWS V14.01,2013-03-02 17:47:00,
2013-03-03 07:48:00,62.8,53.7,30.18,North,355,0.0,1.0,72,0.00,,BKN050,0.00,VWS V14.01,2013-03-02 17:48:00,
2013-03-03 07:49:00,62.8,53.7,30.18,North,355,1.0,1.0,72,0.00,,BKN050,0.00,VWS V14.01,2013-03-02 17:49:00,
2013-03-03 07:50:00,59.5,52.6,30.19,NNW,329,1.0,2.0,78,0.00,,BKN200,0.00,VWS V14.01,2013-03-02 17:50:00,
2013-03-03 07:51:00,63.0,53.8,30.18,North,355,1.0,2.0,72,0.00,,BKN050,0.00,VWS V14.01,2013-03-02 17:51:00,
2013-03-03 07:52:00,63.0,53.5,30.18,North,355,0.0,1.0,71,0.00,,BKN050,0.00,VWS V14.01,2013-03-02 17:52:00,
2013-03-03 07:53:00,62.9,53.4,30.18,North,360,0.0,2.0,71,0.00,,BKN050,0.00,VWS V14.01,2013-03-02 17:53:00,
2013-03-03 07:54:00,63.0,54.2,30.18,North,360,0.0,1.0,73,0.00,,BKN050,0.00,VWS V14.01,2013-03-02 17:54:00,
2013-03-03 07:55:00,59.9,53.0,30.19,NNW,329,0.0,1.0,78,0.00,,BKN200,0.00,VWS V14.01,2013-03-02 17:55:00,
2013-03-03 07:56:00,63.3,55.2,30.18,NE,52,1.0,2.0,75,0.00,,BKN050,0.00,VWS V14.01,2013-03-02 17:56:00,
2013-03-03 07:57:00,63.4,55.3,30.18,NE,52,1.0,2.0,75,0.00,,BKN050,0.00,VWS V14.01,2013-03-02 17:57:00,
2013-03-03 07:58:00,63.6,55.5,30.18,SE,128,3.0,3.0,75,0.00,,BKN050,0.00,VWS V14.01,2013-03-02 17:58:00,
2013-03-03 07:59:00,63.6,55.2,30.18,SE,128,1.0,3.0,74,0.00,,BKN050,0.00,VWS V14.01,2013-03-02 17:59:00,
2013-03-03 08:00:00,60.1,53.2,30.19,NNW,329,0.0,1.0,78,0.00,,BKN200,0.00,VWS V14.01,2013-03-02 18:00:00,
2013-03-03 08:01:00,63.6,55.2,30.17,ENE,73,4.0,4.0,74,0.00,,BKN050,0.00,VWS V14.01,2013-03-02 18:01:00,
2013-03-03 08:02:00,63.5,55.1,30.17,NE,46,2.0,4.0,74,0.00,,BKN050,0.00,VWS V14.01,2013-03-02 18:02:00,
2013-03-03 08:03:00,63.3,54.9,30.17,NE,53,4.0,5.0,74,0.00,,BKN050,0.00,VWS V14.01,2013-03-02 18:03:00,
2013-03-03 08:04:00,63.2,55.2,30.17,NE,56,6.0,6.0,75,0.00,,BKN050,0.00,VWS V14.01,2013-03-02 18:04:00,
2013-03-03 08:05:00,60.7,53.1,30.19,NNW,329,0.0,0.0,76,0.00,,BKN200,0.00,VWS V14.01,2013-03-02 18:05:00,
2013-03-03 08:06:00,63.0,55.0,30.17,NE,54,1.0,3.0,75,0.00,,BKN050,0.00,VWS V14.01,2013-03-02 18:06:00,
2013-03-03 08:07:00,63.0,55.3,30.17,NE,54,2.0,2.0,76,0.00,,BKN050,0.00,VWS V14.01,2013-03-02 18:07:00,
2013-03-03 08:08:00,63.1,55.4,30.17,NE,54,0.0,2.0,76,0.00,,BKN050,0.00,VWS V14.01,2013-03-02 18:08:00,
2013-03-03 08:09:00,63.4,55.7,30.17,NNW,331,2.0,2.0,76,0.00,,BKN050,0.00,VWS V14.01,2013-03-02 18:09:00,
2013-03-03 08:10:00,60.6,53.0,30.19,NNW,329,0.0,1.0,76,0.00,,BKN200,0.00,VWS V14.01,2013-03-02 18:10:00,
2013-03-03 08:11:00,63.5,55.4,30.17,ENE,57,4.0,4.0,75,0.00,,BKN050,0.00,VWS V14.01,2013-03-02 18:11:00,
2013-03-03 08:12:00,63.4,55.0,30.17,ENE,57,0.0,4.0,74,0.00,,BKN050,0.00,VWS V14.01,2013-03-02 18:12:00,
2013-03-03 08:13:00,63.3,54.9,30.17,ENE,57,2.0,3.0,74,0.00,,BKN050,0.00,VWS V14.01,2013-03-02 18:13:00,
2013-03-03 08:14:00,63.3,54.9,30.17,ENE,57,1.0,2.0,74,0.00,,BKN050,0.00,VWS V14.01,2013-03-02 18:14:00,
2013-03-03 08:15:00,61.2,52.9,30.19,NNW,329,0.0,0.0,74,0.00,,BKN200,0.00,VWS V14.01,2013-03-02 18:15:00,
2013-03-03 08:16:00,63.7,55.3,30.17,NE,53,3.0,4.0,74,0.00,,BKN050,0.00,VWS V14.01,2013-03-02 18:16:00,
2013-03-03 08:17:00,63.8,55.4,30.17,NE,53,3.0,3.0,74,0.00,,BKN050,0.00,VWS V14.01,2013-03-02 18:17:00,
2013-03-03 08:19:00,63.7,54.9,30.17,ENE,66,2.0,4.0,73,0.00,,BKN050,0.00,VWS V14.01,2013-03-02 18:19:00,
2013-03-03 08:20:00,61.7,53.3,30.19,NNW,329,0.0,0.0,74,0.00,,BKN200,0.00,VWS V14.01,2013-03-02 18:20:00,
2013-03-03 08:21:00,63.4,55.0,30.17,ENE,63,1.0,4.0,74,0.00,,BKN050,0.00,VWS V14.01,2013-03-02 18:21:00,
2013-03-03 08:22:00,63.5,55.1,30.17,SE,125,1.0,4.0,74,0.00,,BKN050,0.00,VWS V14.01,2013-03-02 18:22:00,
2013-03-03 08:23:00,63.6,54.8,30.17,SE,125,0.0,2.0,73,0.00,,BKN050,0.00,VWS V14.01,2013-03-02 18:23:00,
2013-03-03 08:24:00,63.7,54.5,30.17,SE,125,0.0,2.0,72,0.00,,BKN050,0.00,VWS V14.01,2013-03-02 18:24:00,
2013-03-03 08:25:00,62.6,53.8,30.18,NNW,329,1.0,1.0,73,0.00,,BKN200,0.00,VWS V14.01,2013-03-02 18:25:00,
2013-03-03 08:26:00,63.9,54.7,30.17,SE,125,0.0,2.0,72,0.00,,BKN050,0.00,VWS V14.01,2013-03-02 18:26:00,
2013-03-03 08:27:00,63.9,54.3,30.17,SE,125,1.0,1.0,71,0.00,,BKN050,0.00,VWS V14.01,2013-03-02 18:27:00,
2013-03-03 08:28:00,63.9,54.3,30.17,SE,125,0.0,1.0,71,0.00,,BKN050,0.00,VWS V14.01,2013-03-02 18:28:00,
2013-03-03 08:29:00,64.0,54.4,30.17,East,86,2.0,2.0,71,0.00,,BKN050,0.00,VWS V14.01,2013-03-02 18:29:00,
2013-03-03 08:30:00,62.5,53.7,30.18,NNW,330,2.0,2.0,73,0.00,,BKN200,0.00,VWS V14.01,2013-03-02 18:30:00,
2013-03-03 08:31:00,64.0,54.0,30.17,ENE,59,2.0,5.0,70,0.00,,BKN050,0.00,VWS V14.01,2013-03-02 18:31:00,
2013-03-03 08:32:00,63.9,53.9,30.17,ENE,59,1.0,2.0,70,0.00,,BKN050,0.00,VWS V14.01,2013-03-02 18:32:00,
2013-03-03 08:33:00,64.0,54.0,30.17,ENE,59,1.0,1.0,70,0.00,,BKN050,0.00,VWS V14.01,2013-03-02 18:33:00,
2013-03-03 08:34:00,64.2,54.2,30.17,ENE,59,0.0,2.0,70,0.00,,BKN050,0.00,VWS V14.01,2013-03-02 18:34:00,
2013-03-03 08:35:00,61.9,53.2,30.18,North,355,0.0,1.0,73,0.00,,BKN200,0.00,VWS V14.01,2013-03-02 18:35:00,
2013-03-03 08:36:00,64.6,53.8,30.17,ENE,59,0.0,1.0,68,0.00,,BKN050,0.00,VWS V14.01,2013-03-02 18:36:00,
2013-03-03 08:37:00,64.7,53.9,30.17,SE,136,1.0,3.0,68,0.00,,BKN050,0.00,VWS V14.01,2013-03-02 18:37:00,
2013-03-03 08:38:00,64.9,54.1,30.17,SE,136,2.0,2.0,68,0.00,,BKN050,0.00,VWS V14.01,2013-03-02 18:38:00,
2013-03-03 08:39:00,64.9,54.1,30.17,East,93,2.0,3.0,68,0.00,,BKN050,0.00,VWS V14.01,2013-03-02 18:39:00,
2013-03-03 08:40:00,62.2,53.5,30.18,North,355,0.0,0.0,73,0.00,,BKN200,0.00,VWS V14.01,2013-03-02 18:40:00,
2013-03-03 08:41:00,64.5,53.3,30.17,East,93,2.0,2.0,67,0.00,,BKN050,0.00,VWS V14.01,2013-03-02 18:41:00,
2013-03-03 08:42:00,64.5,53.7,30.17,East,93,0.0,2.0,68,0.00,,BKN050,0.00,VWS V14.01,2013-03-02 18:42:00,
2013-03-03 08:43:00,64.8,54.0,30.17,East,93,0.0,0.0,68,0.00,,BKN050,0.00,VWS V14.01,2013-03-02 18:43:00,
2013-03-03 08:44:00,65.0,54.2,30.17,East,90,3.0,3.0,68,0.00,,BKN050,0.00,VWS V14.01,2013-03-02 18:44:00,
2013-03-03 08:45:00,62.9,53.4,30.18,North,355,0.0,1.0,71,0.00,,BKN200,0.00,VWS V14.01,2013-03-02 18:45:00,
2013-03-03 08:46:00,64.7,53.1,30.17,East,80,0.0,3.0,66,0.00,,BKN050,0.00,VWS V14.01,2013-03-02 18:46:00,
2013-03-03 08:47:00,64.9,53.7,30.17,East,80,0.0,0.0,67,0.00,,BKN050,0.00,VWS V14.01,2013-03-02 18:47:00,
2013-03-03 08:48:00,65.0,53.8,30.17,East,80,0.0,2.0,67,0.00,,BKN050,0.00,VWS V14.01,2013-03-02 18:48:00,
2013-03-03 08:49:00,65.4,54.2,30.17,East,80,0.0,1.0,67,0.00,,BKN050,0.00,VWS V14.01,2013-03-02 18:49:00,
2013-03-03 08:50:00,63.0,53.8,30.18,North,355,0.0,1.0,72,0.00,,BKN200,0.00,VWS V14.01,2013-03-02 18:50:00,
2013-03-03 08:51:00,66.3,54.2,30.16,East,80,1.0,2.0,65,0.00,,BKN050,0.00,VWS V14.01,2013-03-02 18:51:00,
2013-03-03 08:52:00,66.1,53.6,30.16,ENE,61,1.0,4.0,64,0.00,,BKN050,0.00,VWS V14.01,2013-03-02 18:52:00,
2013-03-03 08:53:00,65.9,53.8,30.16,ENE,61,0.0,3.0,65,0.00,,BKN050,0.00,VWS V14.01,2013-03-02 18:53:00,
2013-03-03 08:54:00,65.7,53.6,30.16,ENE,61,1.0,1.0,65,0.00,,BKN050,0.00,VWS V14.01,2013-03-02 18:54:00,
2013-03-03 08:55:00,63.4,55.3,30.18,NE,52,0.0,1.0,75,0.00,,BKN200,0.00,VWS V14.01,2013-03-02 18:55:00,
2013-03-03 08:56:00,66.0,53.9,30.16,NNE,24,1.0,2.0,65,0.00,,BKN050,0.00,VWS V14.01,2013-03-02 18:56:00,
2013-03-03 08:57:00,66.1,54.0,30.16,NNE,24,1.0,2.0,65,0.00,,BKN050,0.00,VWS V14.01,2013-03-02 18:57:00,
2013-03-03 08:58:00,66.3,54.2,30.16,NNE,19,1.0,3.0,65,0.00,,BKN050,0.00,VWS V14.01,2013-03-02 18:58:00,
2013-03-03 08:59:00,66.6,54.1,30.16,NW,313,0.0,3.0,64,0.00,,BKN050,0.00,VWS V14.01,2013-03-02 18:59:00,
2013-03-03 09:00:00,63.6,55.2,30.17,NE,45,3.0,4.0,74,0.00,,BKN200,0.00,VWS V14.01,2013-03-02 19:00:00,
2013-03-03 09:01:00,67.9,55.3,30.15,NW,312,1.0,3.0,64,0.00,,BKN050,0.00,VWS V14.01,2013-03-02 19:01:00,
2013-03-03 09:02:00,68.3,54.8,30.15,NE,39,3.0,3.0,62,0.00,,BKN050,0.00,VWS V14.01,2013-03-02 19:02:00,
2013-03-03 09:03:00,68.0,54.1,30.15,NE,43,2.0,3.0,61,0.00,,BKN050,0.00,VWS V14.01,2013-03-02 19:03:00,
2013-03-03 09:05:00,63.0,55.0,30.17,NE,54,1.0,2.0,75,0.00,,BKN200,0.00,VWS V14.01,2013-03-02 19:05:00,
2013-03-03 09:06:00,66.6,53.6,30.15,NE,53,2.0,3.0,63,0.00,,BKN050,0.00,VWS V14.01,2013-03-02 19:06:00,
2013-03-03 09:07:00,66.3,53.3,30.15,NE,53,2.0,3.0,63,0.00,,BKN050,0.00,VWS V14.01,2013-03-02 19:07:00,
2013-03-03 09:08:00,66.1,53.2,30.15,NE,53,2.0,3.0,63,0.00,,BKN050,0.00,VWS V14.01,2013-03-02 19:08:00,
2013-03-03 09:09:00,66.2,53.2,30.15,NE,53,2.0,3.0,63,0.00,,BKN050,0.00,VWS V14.01,2013-03-02 19:09:00,
2013-03-03 09:10:00,63.5,55.1,30.17,ENE,57,2.0,4.0,74,0.00,,BKN200,0.00,VWS V14.01,2013-03-02 19:10:00,
2013-03-03 09:11:00,66.3,53.3,30.15,ESE,115,0.0,5.0,63,0.00,,BKN050,0.00,VWS V14.01,2013-03-02 19:11:00,
2013-03-03 09:12:00,66.6,54.1,30.15,ESE,115,2.0,2.0,64,0.00,,BKN050,0.00,VWS V14.01,2013-03-02 19:12:00,
2013-03-03 09:13:00,66.8,53.4,30.15,ESE,113,2.0,2.0,62,0.00,,BKN050,0.00,VWS V14.01,2013-03-02 19:13:00,
2013-03-03 09:14:00,66.7,53.3,30.15,ESE,113,1.0,2.0,62,0.00,,BKN050,0.00,VWS V14.01,2013-03-02 19:14:00,
2013-03-03 09:15:00,63.7,55.3,30.17,NE,53,1.0,3.0,74,0.00,,BKN200,0.00,VWS V14.01,2013-03-02 19:15:00,
2013-03-03 09:16:00,66.7,53.3,30.15,SE,126,2.0,2.0,62,0.00,,BKN050,0.00,VWS V14.01,2013-03-02 19:16:00,
2013-03-03 09:17:00,66.7,53.3,30.15,SE,140,0.0,3.0,62,0.00,,BKN050,0.00,VWS V14.01,2013-03-02 19:17:00,
2013-03-03 09:18:00,67.0,54.0,30.15,SE,140,1.0,2.0,63,0.00,,BKN050,0.00,VWS V14.01,2013-03-02 19:18:00,
2013-03-03 09:19:00,67.3,53.8,30.15,East,90,0.0,3.0,62,0.00,,BKN050,0.00,VWS V14.01,2013-03-02 19:19:00,
2013-03-03 09:20:00,63.4,55.0,30.17,ENE,63,1.0,1.0,74,0.00,,BKN200,0.00,VWS V14.01,2013-03-02 19:20:00,
2013-03-03 09:21:00,67.9,54.0,30.15,East,90,1.0,1.0,61,0.00,,BKN050,0.00,VWS V14.01,2013-03-02 19:21:00,
2013-03-03 09:22:00,68.0,54.1,30.15,East,88,1.0,3.0,61,0.00,,BKN050,0.00,VWS V14.01,2013-03-02 19:22:00,
2013-03-03 09:23:00,67.9,54.0,30.14,NE,43,4.0,5.0,61,0.00,,BKN050,0.00,VWS V14.01,2013-03-02 19:23:00,
2013-03-03 09:24:00,67.8,53.9,30.14,NE,55,0.0,5.0,61,0.00,,BKN050,0.00,VWS V14.01,2013-03-02 19:24:00,
2013-03-03 09:25:00,63.9,54.7,30.17,SE,125,0.0,1.0,72,0.00,,BKN200,0.00,VWS V14.01,2013-03-02 19:25:00,
2013-03-03 09:26:00,68.1,54.2,30.14,NE,55,1.0,2.0,61,0.00,,BKN050,0.00,VWS V14.01,2013-03-02 19:26:00,
2013-03-03 09:27:00,68.0,54.1,30.14,NE,55,2.0,3.0,61,0.00,,BKN050,0.00,VWS V14.01,2013-03-02 19:27:00,
2013-03-03 09:28:00,67.7,53.3,30.14,NE,55,2.0,4.0,60,0.00,,BKN050,0.00,VWS V14.01,2013-03-02 19:28:00,
2013-03-03 09:29:00,67.3,53.4,30.14,NE,55,1.0,4.0,61,0.00,,BKN050,0.00,VWS V14.01,2013-03-02 19:29:00,
2013-03-03 09:30:00,64.0,54.0,30.17,ENE,59,2.0,2.0,70,0.00,,BKN200,0.00,VWS V14.01,2013-03-02 19:30:00,
2013-03-03 09:31:00,67.0,53.6,30.14,NE,55,1.0,4.0,62,0.00,,BKN050,0.00,VWS V14.01,2013-03-02 19:31:00,
2013-03-03 09:32:00,66.9,53.5,30.14,NE,55,0.0,2.0,62,0.00,,BKN050,0.00,VWS V14.01,2013-03-02 19:32:00,
2013-03-03 09:33:00,67.0,53.6,30.14,NE,55,0.0,1.0,62,0.00,,BKN050,0.00,VWS V14.01,2013-03-02 19:33:00,
2013-03-03 09:34:00,67.0,53.6,30.14,NE,55,1.0,2.0,62,0.00,,BKN050,0.00,VWS V14.01,2013-03-02 19:34:00,
2013-03-03 09:35:00,64.6,53.8,30.17,ENE,59,1.0,1.0,68,0.00,,BKN200,0.00,VWS V14.01,2013-03-02 19:35:00,
2013-03-03 09:36:00,66.8,53.4,30.14,NE,55,1.0,3.0,62,0.00,,BKN050,0.00,VWS V14.01,2013-03-02 19:36:00,
2013-03-03 09:37:00,66.8,53.8,30.14,NE,55,3.0,4.0,63,0.00,,BKN050,0.00,VWS V14.01,2013-03-02 19:37:00,
2013-03-03 09:38:00,66.7,53.7,30.14,ENE,67,3.0,5.0,63,0.00,,BKN050,0.00,VWS V14.01,2013-03-02 19:38:00,
2013-03-03 09:39:00,66.6,53.6,30.14,ENE,64,3.0,3.0,63,0.00,,BKN050,0.00,VWS V14.01,2013-03-02 19:39:00,
2013-03-03 09:40:00,64.5,53.7,30.17,East,93,1.0,2.0,68,0.00,,BKN200,0.00,VWS V14.01,2013-03-02 19:40:00,
2013-03-03 09:41:00,66.1,53.2,30.14,NE,53,4.0,4.0,63,0.00,,BKN050,0.00,VWS V14.01,2013-03-02 19:41:00,
2013-03-03 09:42:00,65.9,53.4,30.14,NE,42,2.0,4.0,64,0.00,,BKN050,0.00,VWS V14.01,2013-03-02 19:42:00,
2013-03-03 09:43:00,65.8,53.3,30.14,NE,42,2.0,3.0,64,0.00,,BKN050,0.00,VWS V14.01,2013-03-02 19:43:00,
2013-03-03 09:44:00,65.7,53.2,30.13,NE,42,2.0,3.0,64,0.00,,BKN050,0.00,VWS V14.01,2013-03-02 19:44:00,
2013-03-03 09:45:00,64.7,53.1,30.17,East,80,0.0,0.0,66,0.00,,BKN200,0.00,VWS V14.01,2013-03-02 19:45:00,
2013-03-03 09:46:00,65.9,53.4,30.13,NE,48,2.0,3.0,64,0.00,,BKN050,0.00,VWS V14.01,2013-03-02 19:46:00,
2013-03-03 09:49:00,65.9,53.4,30.13,NE,55,2.0,2.0,64,0.00,,BKN050,0.00,VWS V14.01,2013-03-02 19:49:00,
2013-03-03 09:50:00,66.3,54.2,30.16,East,80,2.0,2.0,65,0.00,,BKN200,0.00,VWS V14.01,2013-03-02 19:50:00,
2013-03-03 09:51:00,66.2,53.2,30.13,ENE,61,3.0,5.0,63,0.00,,BKN050,0.00,VWS V14.01,2013-03-02 19:51:00,
2013-03-03 09:52:00,66.3,53.3,30.13,ENE,61,0.0,3.0,63,0.00,,BKN050,0.00,VWS V14.01,2013-03-02 19:52:00,
2013-03-03 09:53:00,66.6,53.2,30.13,ENE,59,4.0,4.0,62,0.00,,BKN050,0.00,VWS V14.01,2013-03-02 19:53:00,
2013-03-03 09:54:00,66.6,53.2,30.13,ENE,59,2.0,4.0,62,0.00,,BKN050,0.00,VWS V14.01,2013-03-02 19:54:00,
2013-03-03 09:55:00,66.0,53.9,30.16,NNE,24,0.0,1.0,65,0.00,,BKN200,0.00,VWS V14.01,2013-03-02 19:55:00,
2013-03-03 09:56:00,66.5,53.5,30.13,ENE,59,0.0,1.0,63,0.00,,BKN050,0.00,VWS V14.01,2013-03-02 19:56:00,
2013-03-03 09:57:00,66.6,53.6,30.13,ENE,59,1.0,1.0,63,0.00,,BKN050,0.00,VWS V14.01,2013-03-02 19:57:00,
2013-03-03 09:58:00,66.8,53.8,30.13,ENE,59,0.0,1.0,63,0.00,,BKN050,0.00,VWS V14.01,2013-03-02 19:58:00,
2013-03-03 10:00:00,67.9,55.3,30.15,NW,312,0.0,1.0,64,0.00,,BKN200,0.00,VWS V14.01,2013-03-02 20:00:00,
2013-03-03 10:01:00,66.9,53.5,30.13,ENE,59,2.0,2.0,62,0.00,,BKN050,0.00,VWS V14.01,2013-03-02 20:01:00,
2013-03-03 10:02:00,66.8,53.4,30.13,ENE,59,0.0,2.0,62,0.00,,BKN050,0.00,VWS V14.01,2013-03-02 20:02:00,
2013-03-03 10:03:00,66.8,53.4,30.13,ENE,59,0.0,1.0,62,0.00,,BKN050,0.00,VWS V14.01,2013-03-02 20:03:00,
2013-03-03 10:04:00,66.9,53.5,30.13,ENE,59,2.0,2.0,62,0.00,,BKN050,0.00,VWS V14.01,2013-03-02 20:04:00,
2013-03-03 10:05:00,66.5,53.5,30.15,NE,53,2.0,3.0,63,0.00,,BKN200,0.00,VWS V14.01,2013-03-02 20:05:00,
2013-03-03 10:06:00,66.8,52.9,30.12,ENE,59,1.0,4.0,61,0.00,,BKN050,0.00,VWS V14.01,2013-03-02 20:06:00,
2013-03-03 10:07:00,66.8,53.4,30.12,ENE,59,0.0,1.0,62,0.00,,BKN050,0.00,VWS V14.01,2013-03-02 20:07:00,
2013-03-03 10:08:00,67.0,53.6,30.12,ENE,59,1.0,2.0,62,0.00,,BKN050,0.00,VWS V14.01,2013-03-02 20:08:00,
2013-03-03 10:09:00,67.0,53.6,30.12,ENE,59,0.0,1.0,62,0.00,,BKN050,0.00,VWS V14.01,2013-03-02 20:09:00,
2013-03-03 10:10:00,66.3,53.3,30.15,ESE,115,0.0,1.0,63,0.00,,BKN200,0.00,VWS V14.01,2013-03-02 20:10:00,
2013-03-03 10:11:00,67.0,54.0,30.12,ENE,59,0.0,2.0,63,0.00,,BKN050,0.00,VWS V14.01,2013-03-02 20:11:00,
2013-03-03 10:12:00,67.1,54.1,30.12,ENE,59,1.0,1.0,63,0.00,,BKN050,0.00,VWS V14.01,2013-03-02 20:12:00,
2013-03-03 10:13:00,67.1,54.1,30.13,NNW,336,3.0,4.0,63,0.00,,BKN050,0.00,VWS V14.01,2013-03-02 20:13:00,
2013-03-03 10:14:00,67.0,54.0,30.13,NNW,336,2.0,3.0,63,0.00,,BKN050,0.00,VWS V14.01,2013-03-02 20:14:00,
2013-03-03 10:15:00,66.7,53.3,30.15,SE,133,3.0,3.0,62,0.00,,BKN200,0.00,VWS V14.01,2013-03-02 20:15:00,
2013-03-03 10:16:00,66.8,53.8,30.12,North,5,1.0,2.0,63,0.00,,BKN050,0.00,VWS V14.01,2013-03-02 20:16:00,
2013-03-03 10:17:00,66.8,53.8,30.12,North,5,1.0,2.0,63,0.00,,BKN050,0.00,VWS V14.01,2013-03-02 20:17:00,
2013-03-03 10:18:00,66.9,53.9,30.12,North,5,1.0,2.0,63,0.00,,BKN050,0.00,VWS V14.01,2013-03-02 20:18:00,
2013-03-03 10:19:00,67.1,54.1,30.12,North,5,1.0,1.0,63,0.00,,BKN050,0.00,VWS V14.01,2013-03-02 20:19:00,
2013-03-03 10:20:00,67.9,54.0,30.15,East,90,0.0,1.0,61,0.00,,BKN200,0.00,VWS V14.01,2013-03-02 20:20:00,
2013-03-03 10:21:00,67.0,53.6,30.13,North,360,0.0,3.0,62,0.00,,BKN050,0.00,VWS V14.01,2013-03-02 20:21:00,
2013-03-03 10:22:00,66.9,53.5,30.13,North,360,1.0,1.0,62,0.00,,BKN050,0.00,VWS V14.01,2013-03-02 20:22:00,
2013-03-03 10:23:00,66.7,53.3,30.13,NNE,12,2.0,2.0,62,0.00,,BKN050,0.00,VWS V14.01,2013-03-02 20:23:00,
2013-03-03 10:24:00,66.5,53.1,30.13,NNE,12,1.0,2.0,62,0.00,,BKN050,0.00,VWS V14.01,2013-03-02 20:24:00,
2013-03-03 10:25:00,68.1,54.2,30.14,NE,55,2.0,2.0,61,0.00,,BKN200,0.00,VWS V14.01,2013-03-02 20:25:00,
2013-03-03 10:26:00,66.5,53.5,30.12,North,11,2.0,3.0,63,0.00,,BKN050,0.00,VWS V14.01,2013-03-02 20:26:00,
2013-03-03 10:27:00,66.6,54.1,30.12,NNE,12,0.0,2.0,64,0.00,,BKN050,0.00,VWS V14.01,2013-03-02 20:27:00,
2013-03-03 10:28:00,66.7,53.7,30.12,NNE,12,0.0,1.0,63,0.00,,BKN050,0.00,VWS V14.01,2013-03-02 20:28:00,
2013-03-03 10:29:00,66.8,53.8,30.12,North,11,0.0,1.0,63,0.00,,BKN050,0.00,VWS V14.01,2013-03-02 20:29:00,
2013-03-03 10:30:00,67.0,53.6,30.14,NE,55,1.0,2.0,62,0.00,,BKN200,0.00,VWS V14.01,2013-03-02 20:30:00,
2013-03-03 10:31:00,67.0,54.0,30.12,NNE,12,0.0,2.0,63,0.00,,BKN050,0.00,VWS V14.01,2013-03-02 20:31:00,
2013-03-03 10:32:00,67.0,54.0,30.12,North,11,1.0,2.0,63,0.00,,BKN050,0.00,VWS V14.01,2013-03-02 20:32:00,
2013-03-03 10:33:00,67.0,54.0,30.12,North,11,0.0,1.0,63,0.00,,BKN050,0.00,VWS V14.01,2013-03-02 20:33:00,
2013-03-03 10:34:00,67.0,54.0,30.12,NE,39,3.0,3.0,63,0.00,,BKN050,0.00,VWS V14.01,2013-03-02 20:34:00,
2013-03-03 10:35:00,66.8,53.4,30.14,NE,55,1.0,1.0,62,0.00,,BKN200,0.00,VWS V14.01,2013-03-02 20:35:00,
2013-03-03 10:36:00,66.6,53.6,30.11,NE,44,0.0,1.0,63,0.00,,BKN050,0.00,VWS V14.01,2013-03-02 20:36:00,
2013-03-03 10:37:00,66.5,54.0,30.11,NE,44,1.0,2.0,64,0.00,,BKN050,0.00,VWS V14.01,2013-03-02 20:37:00,
2013-03-03 10:38:00,66.5,54.0,30.11,NE,44,1.0,2.0,64,0.00,,BKN050,0.00,VWS V14.01,2013-03-02 20:38:00,
2013-03-03 10:39:00,66.6,54.1,30.11,NE,44,0.0,3.0,64,0.00,,BKN050,0.00,VWS V14.01,2013-03-02 20:39:00,
2013-03-03 10:40:00,66.1,53.2,30.14,NE,53,4.0,4.0,63,0.00,,BKN200,0.00,VWS V14.01,2013-03-02 20:40:00,
2013-03-03 10:42:00,67.0,54.4,30.11,NE,44,0.0,1.0,64,0.00,,BKN050,0.00,VWS V14.01,2013-03-02 20:42:00,
2013-03-03 10:43:00,67.2,54.2,30.11,NE,44,1.0,1.0,63,0.00,,BKN050,0.00,VWS V14.01,2013-03-02 20:43:00,
2013-03-03 10:44:00,67.2,54.2,30.11,NE,44,0.0,1.0,63,0.00,,BKN050,0.00,VWS V14.01,2013-03-02 20:44:00,
2013-03-03 10:45:00,65.9,53.4,30.13,NE,48,2.0,2.0,64,0.00,,BKN200,0.00,VWS V14.01,2013-03-02 20:45:00,
2013-03-03 10:46:00,67.2,54.2,30.11,NE,44,1.0,2.0,63,0.00,,BKN050,0.00,VWS V14.01,2013-03-02 20:46:00,
2013-03-03 10:47:00,67.1,54.1,30.11,NE,44,1.0,2.0,63,0.00,,BKN050,0.00,VWS V14.01,2013-03-02 20:47:00,
2013-03-03 10:48:00,66.9,53.9,30.10,NE,44,2.0,3.0,63,0.00,,BKN050,0.00,VWS V14.01,2013-03-02 20:48:00,
2013-03-03 10:49:00,66.8,53.8,30.10,NE,44,0.0,2.0,63,0.00,,BKN050,0.00,VWS V14.01,2013-03-02 20:49:00,
2013-03-03 10:50:00,66.2,53.2,30.13,ENE,61,2.0,3.0,63,0.00,,BKN200,0.00,VWS V14.01,2013-03-02 20:50:00,
2013-03-03 10:51:00,66.8,53.8,30.10,NE,44,0.0,1.0,63,0.00,,BKN050,0.00,VWS V14.01,2013-03-02 20:51:00,
2013-03-03 10:52:00,67.0,54.4,30.10,NE,44,0.0,1.0,64,0.00,,BKN050,0.00,VWS V14.01,2013-03-02 20:52:00,
2013-03-03 10:53:00,67.2,54.2,30.10,NE,44,2.0,3.0,63,0.00,,BKN050,0.00,VWS V14.01,2013-03-02 20:53:00,
2013-03-03 10:54:00,67.3,54.3,30.10,NE,44,1.0,2.0,63,0.00,,BKN050,0.00,VWS V14.01,2013-03-02 20:54:00,
2013-03-03 10:55:00,66.5,53.5,30.13,ENE,59,1.0,1.0,63,0.00,,BKN200,0.00,VWS V14.01,2013-03-02 20:55:00,
2013-03-03 10:56:00,67.7,54.7,30.10,NE,42,1.0,3.0,63,0.00,,BKN050,0.00,VWS V14.01,2013-03-02 20:56:00,
2013-03-03 10:57:00,67.7,54.2,30.10,NE,42,0.0,1.0,62,0.00,,BKN050,0.00,VWS V14.01,2013-03-02 20:57:00,
2013-03-03 10:58:00,67.8,54.3,30.10,NE,42,0.0,1.0,62,0.00,,BKN050,0.00,VWS V14.01,2013-03-02 20:58:00,
2013-03-03 10:59:00,67.8,54.3,30.10,NE,42,0.0,1.0,62,0.00,,BKN050,0.00,VWS V14.01,2013-03-02 20:59:00,
2013-03-03 11:00:00,66.8,53.4,30.13,ENE,59,1.0,2.0,62,0.00,,BKN200,0.00,VWS V14.01,2013-03-02 21:00:00,
2013-03-03 11:01:00,67.8,54.3,30.10,NE,42,1.0,2.0,62,0.00,,BKN050,0.00,VWS V14.01,2013-03-02 21:01:00,
2013-03-03 11:02:00,67.9,54.4,30.10,NE,42,2.0,2.0,62,0.00,,BKN050,0.00,VWS V14.01,2013-03-02 21:02:00,
2013-03-03 11:03:00,67.9,54.4,30.10,NE,42,1.0,2.0,62,0.00,,BKN050,0.00,VWS V14.01,2013-03-02 21:03:00,
2013-03-03 11:05:00,66.8,52.9,30.12,ENE,59,0.0,1.0,61,0.00,,BKN200,0.00,VWS V14.01,2013-03-02 21:05:00,
2013-03-03 11:06:00,68.5,55.0,30.10,NE,42,0.0,1.0,62,0.00,,BKN050,0.00,VWS V14.01,2013-03-02 21:06:00,
2013-03-03 11:07:00,68.4,54.4,30.10,NE,42,0.0,1.0,61,0.00,,BKN050,0.00,VWS V14.01,2013-03-02 21:07:00,
2013-03-03 11:08:00,68.2,54.7,30.10,NE,42,0.0,1.0,62,0.00,,BKN050,0.00,VWS V14.01,2013-03-02 21:08:00,
2013-03-03 11:09:00,68.1,54.6,30.09,NE,42,3.0,3.0,62,0.00,,BKN050,0.00,VWS V14.01,2013-03-02 21:09:00,
2013-03-03 11:10:00,67.1,54.1,30.12,ENE,59,1.0,1.0,63,0.00,,BKN200,0.00,VWS V14.01,2013-03-02 21:10:00,
2013-03-03 11:11:00,67.6,54.1,30.09,NE,42,2.0,3.0,62,0.00,,BKN050,0.00,VWS V14.01,2013-03-02 21:11:00,
2013-03-03 11:12:00,67.5,54.0,30.09,NE,42,1.0,3.0,62,0.00,,BKN050,0.00,VWS V14.01,2013-03-02 21:12:00,
2013-03-03 11:13:00,67.5,54.5,30.09,NE,42,1.0,3.0,63,0.00,,BKN050,0.00,VWS V14.01,2013-03-02 21:13:00,
2013-03-03 11:14:00,67.6,54.6,30.09,NE,42,1.0,1.0,63,0.00,,BKN050,0.00,VWS V14.01,2013-03-02 21:14:00,
2013-03-03 11:15:00,66.8,53.8,30.12,North,5,1.0,1.0,63,0.00,,BKN200,0.00,VWS V14.01,2013-03-02 21:15:00,
2013-03-03 11:16:00,67.7,54.2,30.09,NE,45,2.0,4.0,62,0.00,,BKN050,0.00,VWS V14.01,2013-03-02 21:16:00,
2013-03-03 11:17:00,67.5,54.0,30.09,NE,45,1.0,3.0,62,0.00,,BKN050,0.00,VWS V14.01,2013-03-02 21:17:00,
2013-03-03 11:18:00,67.5,54.0,30.09,NE,45,0.0,2.0,62,0.00,,BKN050,0.00,VWS V14.01,2013-03-02 21:18:00,
2013-03-03 11:19:00,67.5,54.0,30.09,NE,45,0.0,1.0,62,0.00,,BKN050,0.00,VWS V14.01,2013-03-02 21:19:00,
2013-03-03 11:20:00,67.0,53.6,30.13,North,360,1.0,1.0,62,0.00,,BKN200,0.00,VWS V14.01,2013-03-02 21:20:00,
2013-03-03 11:21:00,67.8,54.3,30.09,NE,45,1.0,2.0,62,0.00,,BKN050,0.00,VWS V14.01,2013-03-02 21:21:00,
2013-03-03 11:22:00,67.7,53.8,30.09,NE,45,2.0,3.0,61,0.00,,BKN050,0.00,VWS V14.01,2013-03-02 21:22:00,
2013-03-03 11:23:00,67.6,53.7,30.09,NE,45,0.0,2.0,61,0.00,,BKN050,0.00,VWS V14.01,2013-03-02 21:23:00,
2013-03-03 11:24:00,67.6,54.1,30.09,NE,45,2.0,3.0,62,0.00,,BKN050,0.00,VWS V14.01,2013-03-02 21:24:00,
2013-03-03 11:25:00,66.5,53.5,30.12,NNE,12,1.0,2.0,63,0.00,,BKN200,0.00,VWS V14.01,2013-03-02 21:25:00,
2013-03-03 11:26:00,67.6,53.7,30.08,NE,46,2.0,3.0,61,0.00,,BKN050,0.00,VWS V14.01,2013-03-02 21:26:00,
2013-03-03 11:27:00,67.6,53.7,30.08,NE,47,1.0,4.0,61,0.00,,BKN050,0.00,VWS V14.01,2013-03-02 21:27:00,
2013-03-03 11:28:00,67.6,53.7,30.09,NE,47,3.0,3.0,61,0.00,,BKN050,0.00,VWS V14.01,2013-03-02 21:28:00,
2013-03-03 11:29:00,67.7,53.8,30.09,NE,47,1.0,3.0,61,0.00,,BKN050,0.00,VWS V14.01,2013-03-02 21:29:00,
2013-03-03 11:30:00,67.0,54.0,30.12,NNE,12,0.0,1.0,63,0.00,,BKN200,0.00,VWS V14.01,2013-03-02 21:30:00,
2013-03-03 11:31:00,67.9,54.0,30.09,NE,47,2.0,3.0,61,0.00,,BKN050,0.00,VWS V14.01,2013-03-02 21:31:00,
2013-03-03 11:32:00,67.9,54.0,30.08,NE,47,2.0,3.0,61,0.00,,BKN050,0.00,VWS V14.01,2013-03-02 21:32:00,
2013-03-03 11:33:00,68.0,54.1,30.08,NE,47,1.0,2.0,61,0.00,,BKN050,0.00,VWS V14.01,2013-03-02 21:33:00,
2013-03-03 11:34:00,68.0,54.1,30.08,NE,47,1.0,1.0,61,0.00,,BKN050,0.00,VWS V14.01,2013-03-02 21:34:00,
2013-03-03 11:35:00,66.5,53.5,30.11,NE,44,2.0,2.0,63,0.00,,BKN200,0.00,VWS V14.01,2013-03-02 21:35:00,
2013-03-03 11:36:00,67.9,53.5,30.08,NE,47,0.0,2.0,60,0.00,,BKN050,0.00,VWS V14.01,2013-03-02 21:36:00,
2013-03-03 11:37:00,67.9,53.5,30.08,NE,47,1.0,2.0,60,0.00,,BKN050,0.00,VWS V14.01,2013-03-02 21:37:00,
2013-03-03 11:38:00,67.9,54.0,30.08,NE,47,0.0,1.0,61,0.00,,BKN050,0.00,VWS V14.01,2013-03-02 21:38:00,
2013-03-03 11:39:00,68.0,53.6,30.08,NE,47,0.0,2.0,60,0.00,,BKN050,0.00,VWS V14.01,2013-03-02 21:39:00,
2013-03-03 11:40:00,66.8,54.2,30.11,NE,44,0.0,1.0,64,0.00,,BKN200,0.00,VWS V14.01,2013-03-02 21:40:00,
2013-03-03 11:41:00,68.1,53.7,30.08,NE,47,0.0,1.0,60,0.00,,BKN050,0.00,VWS V14.01,2013-03-02 21:41:00,
2013-03-03 11:42:00,68.4,54.4,30.08,NE,47,1.0,1.0,61,0.00,,BKN050,0.00,VWS V14.01,2013-03-02 21:42:00,
2013-03-03 11:43:00,68.6,54.2,30.08,NE,47,0.0,1.0,60,0.00,,BKN050,0.00,VWS V14.01,2013-03-02 21:43:00,
2013-03-03 11:44:00,68.6,53.7,30.08,NE,47,2.0,2.0,59,0.00,,BKN050,0.00,VWS V14.01,2013-03-02 21:44:00,
2013-03-03 11:45:00,67.2,54.2,30.11,NE,44,1.0,1.0,63,0.00,,BKN200,0.00,VWS V14.01,2013-03-02 21:45:00,
2013-03-03 11:46:00,68.4,53.5,30.09,NE,47,1.0,1.0,59,0.00,,BKN050,0.00,VWS V14.01,2013-03-02 21:46:00,
2013-03-03 11:47:00,68.5,53.6,30.09,NE,47,0.0,3.0,59,0.00,,BKN050,0.00,VWS V14.01,2013-03-02 21:47:00,
2013-03-03 11:50:00,66.8,53.8,30.10,NE,44,0.0,0.0,63,0.00,,BKN200,0.00,VWS V14.01,2013-03-02 21:50:00,
2013-03-03 11:51:00,68.3,53.4,30.09,NE,47,1.0,2.0,59,0.00,,BKN050,0.00,VWS V14.01,2013-03-02 21:51:00,
2013-03-03 11:52:00,68.3,53.4,30.09,NE,47,2.0,3.0,59,0.00,,BKN050,0.00,VWS V14.01,2013-03-02 21:52:00,
2013-03-03 11:53:00,68.3,53.0,30.08,ENE,57,5.0,5.0,58,0.00,,BKN050,0.00,VWS V14.01,2013-03-02 21:53:00,
2013-03-03 11:54:00,68.1,52.8,30.08,ENE,58,4.0,7.0,58,0.00,,BKN050,0.00,VWS V14.01,2013-03-02 21:54:00,
2013-03-03 11:55:00,67.7,54.2,30.10,NE,42,1.0,1.0,62,0.00,,BKN200,0.00,VWS V14.01,2013-03-02 21:55:00,
2013-03-03 11:56:00,67.8,53.4,30.08,ENE,58,2.0,2.0,60,0.00,,BKN050,0.00,VWS V14.01,2013-03-02 21:56:00,
2013-03-03 11:57:00,67.7,53.3,30.08,ENE,58,2.0,3.0,60,0.00,,BKN050,0.00,VWS V14.01,2013-03-02 21:57:00,
2013-03-03 11:58:00,67.5,53.1,30.08,ENE,58,2.0,2.0,60,0.00,,BKN050,0.00,VWS V14.01,2013-03-02 21:58:00,
2013-03-03 11:59:00,67.5,53.6,30.08,ENE,58,0.0,2.0,61,0.00,,BKN050,0.00,VWS V14.01,2013-03-02 21:59:00,
2013-03-03 12:00:00,67.9,54.4,30.10,NE,42,1.0,1.0,62,0.00,,BKN200,0.00,VWS V14.01,2013-03-02 22:00:00,
2013-03-03 12:02:00,67.7,53.3,30.08,ENE,58,1.0,2.0,60,0.00,,BKN050,0.00,VWS V14.01,2013-03-02 22:02:00,
2013-03-03 12:05:00,68.5,55.0,30.10,NE,42,0.0,0.0,62,0.00,,BKN180,0.00,VWS V14.01,2013-03-02 22:05:00,
2013-03-03 12:06:00,67.8,53.9,30.08,ENE,58,1.0,2.0,61,0.00,,BKN050,0.00,VWS V14.01,2013-03-02 22:06:00,
2013-03-03 12:07:00,67.8,53.4,30.08,ENE,58,0.0,2.0,60,0.00,,BKN050,0.00,VWS V14.01,2013-03-02 22:07:00,
2013-03-03 12:09:00,67.8,53.4,30.08,ENE,58,2.0,2.0,60,0.00,,BKN050,0.00,VWS V14.01,2013-03-02 22:09:00,
2013-03-03 12:10:00,67.6,54.1,30.09,NE,42,2.0,2.0,62,0.00,,BKN180,0.00,VWS V14.01,2013-03-02 22:10:00,
2013-03-03 12:15:00,67.6,54.1,30.09,NE,45,2.0,2.0,62,0.00,,BKN180,0.00,VWS V14.01,2013-03-02 22:15:00,
2013-03-03 12:17:00,66.1,52.7,30.08,NE,49,2.0,2.0,62,0.00,,BKN050,0.00,VWS V14.01,2013-03-02 22:17:00,
2013-03-03 12:20:00,67.7,54.2,30.09,NE,45,1.0,1.0,62,0.00,,BKN180,0.00,VWS V14.01,2013-03-02 22:20:00,
2013-03-03 12:24:00,65.7,51.9,30.08,NE,40,2.0,2.0,61,0.00,,BKN050,0.00,VWS V14.01,2013-03-02 22:24:00,
2013-03-03 12:25:00,67.6,53.7,30.08,NE,46,2.0,2.0,61,0.00,,BKN180,0.00,VWS V14.01,2013-03-02 22:25:00,
2013-03-03 12:26:00,65.7,52.3,30.07,NE,39,0.0,2.0,62,0.00,,BKN050,0.00,VWS V14.01,2013-03-02 22:26:00,
2013-03-03 12:28:00,66.0,52.6,30.07,NE,39,0.0,1.0,62,0.00,,BKN050,0.00,VWS V14.01,2013-03-02 22:28:00,
2013-03-03 12:29:00,66.1,52.7,30.07,NE,39,0.0,1.0,62,0.00,,BKN050,0.00,VWS V14.01,2013-03-02 22:29:00,
2013-03-03 12:30:00,67.9,54.0,30.08,NE,47,2.0,2.0,61,0.00,,BKN180,0.00,VWS V14.01,2013-03-02 22:30:00,
2013-03-03 12:31:00,66.3,52.9,30.08,NE,39,2.0,2.0,62,0.00,,BKN050,0.00,VWS V14.01,2013-03-02 22:31:00,
2013-03-03 12:32:00,66.4,52.6,30.08,North,350,1.0,3.0,61,0.00,,BKN050,0.00,VWS V14.01,2013-03-02 22:32:00,
2013-03-03 12:33:00,66.3,52.5,30.08,North,350,1.0,2.0,61,0.00,,BKN050,0.00,VWS V14.01,2013-03-02 22:33:00,
2013-03-03 12:34:00,66.3,52.0,30.08,North,355,0.0,1.0,60,0.00,,BKN050,0.00,VWS V14.01,2013-03-02 22:34:00,
2013-03-03 12:35:00,67.9,53.5,30.08,NE,47,0.0,0.0,60,0.00,,BKN180,0.00,VWS V14.01,2013-03-02 22:35:00,
2013-03-03 12:36:00,66.3,52.0,30.08,North,349,0.0,3.0,60,0.00,,BKN050,0.00,VWS V14.01,2013-03-02 22:36:00,
2013-03-03 12:37:00,66.2,51.9,30.08,North,349,2.0,2.0,60,0.00,,BKN050,0.00,VWS V14.01,2013-03-02 22:37:00,
2013-03-03 12:38:00,66.2,51.9,30.07,North,349,0.0,2.0,60,0.00,,BKN050,0.00,VWS V14.01,2013-03-02 22:38:00,
2013-03-03 12:39:00,66.1,51.8,30.07,NW,324,2.0,4.0,60,0.00,,BKN050,0.00,VWS V14.01,2013-03-02 22:39:00,
2013-03-03 12:40:00,68.1,53.7,30.08,NE,47,0.0,1.0,60,0.00,,BKN180,0.00,VWS V14.01,2013-03-02 22:40:00,
2013-03-03 12:41:00,66.1,52.3,30.07,North,351,2.0,5.0,61,0.00,,BKN050,0.00,VWS V14.01,2013-03-02 22:41:00,
2013-03-03 12:42:00,66.1,51.8,30.07,North,355,1.0,3.0,60,0.00,,BKN050,0.00,VWS V14.01,2013-03-02 22:42:00,
2013-03-03 12:43:00,66.0,51.7,30.07,NNE,12,1.0,5.0,60,0.00,,BKN050,0.00,VWS V14.01,2013-03-02 22:43:00,
2013-03-03 12:44:00,65.9,52.1,30.07,North,355,3.0,4.0,61,0.00,,BKN050,0.00,VWS V14.01,2013-03-02 22:44:00,
2013-03-03 12:45:00,68.5,53.6,30.09,NE,47,3.0,3.0,59,0.00,,BKN180,0.00,VWS V14.01,2013-03-02 22:45:00,
2013-03-03 12:46:00,65.6,51.4,30.07,NNW,344,2.0,4.0,60,0.00,,BKN050,0.00,VWS V14.01,2013-03-02 22:46:00,
2013-03-03 12:47:00,65.4,51.2,30.07,NW,324,3.0,3.0,60,0.00,,BKN050,0.00,VWS V14.01,2013-03-02 22:47:00,
2013-03-03 12:48:00,65.3,51.5,30.07,NNW,346,3.0,7.0,61,0.00,,BKN050,0.00,VWS V14.01,2013-03-02 22:48:00,
2013-03-03 12:49:00,65.1,51.3,30.07,North,349,5.0,6.0,61,0.00,,BKN050,0.00,VWS V14.01,2013-03-02 22:49:00,
2013-03-03 12:50:00,68.3,53.4,30.09,NE,47,1.0,1.0,59,0.00,,BKN180,0.00,VWS V14.01,2013-03-02 22:50:00,
2013-03-03 12:51:00,64.9,51.6,30.08,North,355,3.0,5.0,62,0.00,,BKN050,0.00,VWS V14.01,2013-03-02 22:51:00,
2013-03-03 12:53:00,64.7,51.8,30.07,North,355,4.0,4.0,63,0.00,,BKN050,0.00,VWS V14.01,2013-03-02 22:53:00,
2013-03-03 12:54:00,64.7,52.3,30.08,North,349,2.0,4.0,64,0.00,,BKN050,0.00,VWS V14.01,2013-03-02 22:54:00,
2013-03-03 12:55:00,67.8,53.4,30.08,ENE,58,2.0,3.0,60,0.00,,BKN180,0.00,VWS V14.01,2013-03-02 22:55:00,
2013-03-03 12:56:00,64.5,52.1,30.08,NW,315,1.0,4.0,64,0.00,,BKN050,0.00,VWS V14.01,2013-03-02 22:56:00,
2013-03-03 12:57:00,64.5,52.1,30.08,NW,315,1.0,2.0,64,0.00,,BKN050,0.00,VWS V14.01,2013-03-02 22:57:00,
2013-03-03 12:58:00,64.4,52.0,30.08,NW,315,2.0,4.0,64,0.00,,BKN050,0.00,VWS V14.01,2013-03-02 22:58:00,
2013-03-03 12:59:00,64.5,52.1,30.08,NNW,342,3.0,5.0,64,0.00,,BKN050,0.00,VWS V14.01,2013-03-02 22:59:00,
2013-03-03 13:00:00,67.7,53.8,30.08,ENE,58,1.0,1.0,61,0.00,,BKN180,0.00,VWS V14.01,2013-03-02 23:00:00,
2013-03-03 13:01:00,64.4,52.4,30.08,NNW,348,2.0,3.0,65,0.00,,BKN050,0.00,VWS V14.01,2013-03-02 23:01:00,
2013-03-03 13:02:00,64.4,52.4,30.08,NNW,348,1.0,3.0,65,0.00,,BKN050,0.00,VWS V14.01,2013-03-02 23:02:00,
2013-03-03 13:03:00,64.4,52.4,30.08,NNW,339,2.0,5.0,65,0.00,,BKN050,0.00,VWS V14.01,2013-03-02 23:03:00,
2013-03-03 13:04:00,64.4,52.4,30.08,North,360,1.0,5.0,65,0.00,,BKN050,0.00,VWS V14.01,2013-03-02 23:04:00,
2013-03-03 13:05:00,67.8,53.4,30.08,ENE,58,1.0,2.0,60,0.00,,BKN180,0.00,VWS V14.01,2013-03-02 23:05:00,
2013-03-03 13:06:00,64.4,52.8,30.08,NW,313,4.0,4.0,66,0.00,,BKN050,0.00,VWS V14.01,2013-03-02 23:06:00,
2013-03-03 13:08:00,64.5,52.9,30.08,NW,309,3.0,5.0,66,0.00,,BKN050,0.00,VWS V14.01,2013-03-02 23:08:00,
2013-03-03 13:09:00,64.5,52.9,30.08,NNW,327,1.0,3.0,66,0.00,,BKN050,0.00,VWS V14.01,2013-03-02 23:09:00,
2013-03-03 13:10:00,67.4,53.5,30.08,NE,51,3.0,4.0,61,0.00,,BKN180,0.00,VWS V14.01,2013-03-02 23:10:00,
2013-03-03 13:11:00,64.4,52.8,30.08,NNE,18,2.0,6.0,66,0.00,,BKN050,0.00,VWS V14.01,2013-03-02 23:11:00,
2013-03-03 13:12:00,64.4,52.4,30.08,NNW,338,1.0,5.0,65,0.00,,BKN050,0.00,VWS V14.01,2013-03-02 23:12:00,
2013-03-03 13:13:00,64.3,52.3,30.08,NNW,335,1.0,6.0,65,0.00,,BKN050,0.00,VWS V14.01,2013-03-02 23:13:00,
2013-03-03 13:14:00,64.3,52.7,30.08,North,355,2.0,4.0,66,0.00,,BKN050,0.00,VWS V14.01,2013-03-02 23:14:00,
2013-03-03 13:15:00,66.2,52.8,30.08,NE,49,1.0,2.0,62,0.00,,BKN180,0.00,VWS V14.01,2013-03-02 23:15:00,
2013-03-03 13:16:00,64.1,52.1,30.07,NNW,327,3.0,5.0,65,0.00,,BKN050,0.00,VWS V14.01,2013-03-02 23:16:00,
2013-03-03 13:17:00,64.1,52.5,30.07,NW,317,3.0,5.0,66,0.00,,BKN050,0.00,VWS V14.01,2013-03-02 23:17:00,
2013-03-03 13:18:00,64.1,52.5,30.07,NW,319,0.0,4.0,66,0.00,,BKN050,0.00,VWS V14.01,2013-03-02 23:18:00,
2013-03-03 13:19:00,64.1,52.5,30.07,NW,319,0.0,1.0,66,0.00,,BKN050,0.00,VWS V14.01,2013-03-02 23:19:00,
2013-03-03 13:20:00,65.7,51.9,30.08,NE,49,0.0,2.0,61,0.00,,BKN180,0.00,VWS V14.01,2013-03-02 23:20:00,
2013-03-03 13:21:00,64.0,52.8,30.07,NNW,327,0.0,2.0,67,0.00,,BKN050,0.00,VWS V14.01,2013-03-02 23:21:00,
2013-03-03 13:22:00,64.0,52.8,30.07,NNW,327,0.0,1.0,67,0.00,,BKN050,0.00,VWS V14.01,2013-03-02 23:22:00,
2013-03-03 13:23:00,63.9,53.2,30.07,NNW,327,1.0,2.0,68,0.00,,BKN050,0.00,VWS V14.01,2013-03-02 23:23:00,
2013-03-03 13:24:00,63.9,53.2,30.06,NNW,327,0.0,1.0,68,0.00,,BKN050,0.00,VWS V14.01,2013-03-02 23:24:00,
2013-03-03 13:25:00,65.8,52.4,30.07,NE,39,0.0,1.0,62,0.00,,BKN180,0.00,VWS V14.01,2013-03-02 23:25:00,
2013-03-03 13:26:00,63.8,53.0,30.06,NNW,331,1.0,2.0,68,0.00,,BKN050,0.00,VWS V14.01,2013-03-02 23:26:00,
2013-03-03 13:27:00,63.8,53.0,30.07,NNW,331,1.0,1.0,68,0.00,,BKN050,0.00,VWS V14.01,2013-03-02 23:27:00,
2013-03-03 13:28:00,63.7,53.0,30.06,NNW,331,1.0,1.0,68,0.00,,BKN050,0.00,VWS V14.01,2013-03-02 23:28:00,
2013-03-03 13:29:00,63.6,52.5,30.06,NNW,328,5.0,5.0,67,0.00,,BKN050,0.00,VWS V14.01,2013-03-02 23:29:00,
2013-03-03 13:30:00,66.3,52.9,30.08,NNE,32,3.0,3.0,62,0.00,,BKN180,0.00,VWS V14.01,2013-03-02 23:30:00,
2013-03-03 13:31:00,63.5,52.4,30.06,NNW,339,4.0,5.0,67,0.00,,BKN050,0.00,VWS V14.01,2013-03-02 23:31:00,
2013-03-03 13:32:00,63.5,52.4,30.06,NW,306,4.0,5.0,67,0.00,,BKN050,0.00,VWS V14.01,2013-03-02 23:32:00,
2013-03-03 13:33:00,63.4,52.3,30.06,NNW,336,2.0,5.0,67,0.00,,BKN050,0.00,VWS V14.01,2013-03-02 23:33:00,
2013-03-03 13:34:00,63.4,52.3,30.06,NNW,336,1.0,2.0,67,0.00,,BKN050,0.00,VWS V14.01,2013-03-02 23:34:00,
2013-03-03 13:35:00,66.3,52.0,30.08,North,349,1.0,1.0,60,0.00,,BKN180,0.00,VWS V14.01,2013-03-02 23:35:00,
2013-03-03 13:36:00,63.4,52.3,30.07,NW,326,1.0,3.0,67,0.00,,BKN050,0.00,VWS V14.01,2013-03-02 23:36:00,
2013-03-03 13:37:00,63.4,52.3,30.07,NW,326,2.0,3.0,67,0.00,,BKN050,0.00,VWS V14.01,2013-03-02 23:37:00,
2013-03-03 13:38:00,63.4,52.3,30.07,NNW,333,1.0,3.0,67,0.00,,BKN050,0.00,VWS V14.01,2013-03-02 23:38:00,
2013-03-03 13:39:00,63.4,52.3,30.07,NNW,333,1.0,1.0,67,0.00,,BKN050,0.00,VWS V14.01,2013-03-02 23:39:00,
2013-03-03 13:40:00,66.1,52.3,30.07,North,351,1.0,3.0,61,0.00,,BKN180,0.00,VWS V14.01,2013-03-02 23:40:00,
2013-03-03 13:41:00,63.5,52.4,30.07,NNW,329,4.0,4.0,67,0.00,,BKN050,0.00,VWS V14.01,2013-03-02 23:41:00,
2013-03-03 13:42:00,63.5,52.4,30.07,NNW,329,0.0,5.0,67,0.00,,BKN050,0.00,VWS V14.01,2013-03-02 23:42:00,
2013-03-03 13:43:00,63.6,52.5,30.07,NW,315,5.0,5.0,67,0.00,,BKN050,0.00,VWS V14.01,2013-03-02 23:43:00,
2013-03-03 13:44:00,63.7,52.5,30.07,NNW,337,3.0,5.0,67,0.00,,BKN050,0.00,VWS V14.01,2013-03-02 23:44:00,
2013-03-03 13:45:00,65.5,51.3,30.07,NNW,344,2.0,2.0,60,0.00,,BKN180,0.00,VWS V14.01,2013-03-02 23:45:00,
2013-03-03 13:46:00,63.6,52.5,30.07,NNW,337,1.0,3.0,67,0.00,,BKN050,0.00,VWS V14.01,2013-03-02 23:46:00,
2013-03-03 13:47:00,63.6,52.5,30.07,NNW,337,1.0,1.0,67,0.00,,BKN050,0.00,VWS V14.01,2013-03-02 23:47:00,
2013-03-03 13:48:00,63.6,52.5,30.07,NNW,346,2.0,3.0,67,0.00,,BKN050,0.00,VWS V14.01,2013-03-02 23:48:00,
2013-03-03 13:49:00,63.6,52.5,30.06,NNW,346,0.0,3.0,67,0.00,,BKN050,0.00,VWS V14.01,2013-03-02 23:49:00,
2013-03-03 13:50:00,64.9,52.0,30.08,North,355,1.0,3.0,63,0.00,,BKN180,0.00,VWS V14.01,2013-03-02 23:50:00,
2013-03-03 13:51:00,63.7,52.5,30.06,NNW,336,1.0,3.0,67,0.00,,BKN050,0.00,VWS V14.01,2013-03-02 23:51:00,
2013-03-03 13:52:00,63.7,52.5,30.07,NW,312,4.0,4.0,67,0.00,,BKN050,0.00,VWS V14.01,2013-03-02 23:52:00,
2013-03-03 13:53:00,63.7,52.5,30.07,NW,321,3.0,4.0,67,0.00,,BKN050,0.00,VWS V14.01,2013-03-02 23:53:00,
2013-03-03 13:54:00,63.7,52.1,30.07,North,355,1.0,4.0,66,0.00,,BKN050,0.00,VWS V14.01,2013-03-02 23:54:00,
2013-03-03 13:55:00,64.5,52.1,30.08,NW,315,1.0,1.0,64,0.00,,BKN180,0.00,VWS V14.01,2013-03-02 23:55:00,
2013-03-03 13:56:00,63.8,52.2,30.07,North,355,2.0,2.0,66,0.00,,BKN050,0.00,VWS V14.01,2013-03-02 23:56:00,
2013-03-03 13:57:00,63.8,52.2,30.07,North,355,1.0,2.0,66,0.00,,BKN050,0.00,VWS V14.01,2013-03-02 23:57:00,
2013-03-03 13:59:00,63.9,52.3,30.07,North,355,0.0,1.0,66,0.00,,BKN050,0.00,VWS V14.01,2013-03-02 23:59:00,
2013-03-03 14:00:00,64.4,52.4,30.08,NNW,348,2.0,3.0,65,0.00,,OVC180,0.00,VWS V14.01,2013-03-03 00:00:00,
2013-03-03 14:02:00,63.9,52.3,30.07,North,355,0.0,2.0,66,0.00,,BKN050,0.00,VWS V14.01,2013-03-03 00:02:00,
2013-03-03 14:03:00,63.9,52.3,30.07,North,355,0.0,0.0,66,0.00,,BKN050,0.00,VWS V14.01,2013-03-03 00:03:00,
2013-03-03 14:04:00,63.9,52.3,30.07,North,351,1.0,3.0,66,0.00,,BKN050,0.00,VWS V14.01,2013-03-03 00:04:00,
2013-03-03 14:05:00,64.4,52.8,30.08,NNW,346,3.0,5.0,66,0.00,,OVC180,0.00,VWS V14.01,2013-03-03 00:05:00,
2013-03-03 14:06:00,64.0,52.4,30.07,North,351,0.0,1.0,66,0.00,,BKN050,0.00,VWS V14.01,2013-03-03 00:06:00,
2013-03-03 14:07:00,64.0,52.4,30.07,North,351,1.0,2.0,66,0.00,,BKN050,0.00,VWS V14.01,2013-03-03 00:07:00,
2013-03-03 14:08:00,64.0,52.4,30.07,North,351,0.0,1.0,66,0.00,,BKN050,0.00,VWS V14.01,2013-03-03 00:08:00,
2013-03-03 14:09:00,64.0,52.4,30.07,NNW,342,3.0,3.0,66,0.00,,BKN050,0.00,VWS V14.01,2013-03-03 00:09:00,
2013-03-03 14:10:00,64.4,52.8,30.08,NNW,338,2.0,5.0,66,0.00,,OVC180,0.00,VWS V14.01,2013-03-03 00:10:00,
2013-03-03 14:12:00,64.0,52.0,30.07,NNW,342,1.0,3.0,65,0.00,,BKN050,0.00,VWS V14.01,2013-03-03 00:12:00,
2013-03-03 14:13:00,64.0,52.0,30.07,NNW,342,0.0,1.0,65,0.00,,BKN050,0.00,VWS V14.01,2013-03-03 00:13:00,
2013-03-03 14:14:00,64.0,52.0,30.07,NNW,342,1.0,1.0,65,0.00,,BKN050,0.00,VWS V14.01,2013-03-03 00:14:00,
2013-03-03 14:15:00,64.1,52.5,30.07,NW,326,3.0,4.0,66,0.00,,OVC180,0.00,VWS V14.01,2013-03-03 00:15:00,
2013-03-03 14:16:00,63.9,52.3,30.07,NNW,342,0.0,2.0,66,0.00,,BKN050,0.00,VWS V14.01,2013-03-03 00:16:00,
2013-03-03 14:17:00,63.9,52.3,30.07,NNW,342,1.0,3.0,66,0.00,,BKN050,0.00,VWS V14.01,2013-03-03 00:17:00,
2013-03-03 14:18:00,63.8,52.2,30.07,NNW,342,0.0,1.0,66,0.00,,BKN050,0.00,VWS V14.01,2013-03-03 00:18:00,
2013-03-03 14:19:00,63.8,52.2,30.07,NNW,342,2.0,2.0,66,0.00,,BKN050,0.00,VWS V14.01,2013-03-03 00:19:00,
2013-03-03 14:20:00,64.0,52.8,30.07,NNW,327,1.0,1.0,67,0.00,,OVC180,0.00,VWS V14.01,2013-03-03 00:20:00,
2013-03-03 14:21:00,63.7,52.1,30.07,NNW,342,0.0,1.0,66,0.00,,BKN050,0.00,VWS V14.01,2013-03-03 00:21:00,
2013-03-03 14:22:00,63.7,52.1,30.07,NNW,342,2.0,2.0,66,0.00,,BKN050,0.00,VWS V14.01,2013-03-03 00:22:00,
2013-03-03 14:23:00,63.7,52.1,30.07,NNW,338,3.0,3.0,66,0.00,,BKN050,0.00,VWS V14.01,2013-03-03 00:23:00,
2013-03-03 14:24:00,63.6,52.0,30.07,NNW,327,2.0,4.0,66,0.00,,BKN050,0.00,VWS V14.01,2013-03-03 00:24:00,
2013-03-03 14:25:00,63.8,53.0,30.07,NNW,331,0.0,1.0,68,0.00,,OVC180,0.00,VWS V14.01,2013-03-03 00:25:00,
2013-03-03 14:26:00,63.6,51.6,30.07,WNW,302,1.0,4.0,65,0.00,,BKN050,0.00,VWS V14.01,2013-03-03 00:26:00,
2013-03-03 14:27:00,63.6,51.6,30.08,WNW,302,2.0,2.0,65,0.00,,BKN050,0.00,VWS V14.01,2013-03-03 00:27:00,
2013-03-03 14:28:00,63.7,51.7,30.08,NW,307,1.0,4.0,65,0.00,,BKN050,0.00,VWS V14.01,2013-03-03 00:28:00,
2013-03-03 14:29:00,63.7,51.7,30.08,NW,307,0.0,2.0,65,0.00,,BKN050,0.00,VWS V14.01,2013-03-03 00:29:00,
2013-03-03 14:30:00,63.5,52.4,30.06,NNW,340,5.0,5.0,67,0.00,,OVC180,0.00,VWS V14.01,2013-03-03 00:30:00,
2013-03-03 14:31:00,63.8,51.8,30.08,NW,307,0.0,2.0,65,0.00,,BKN050,0.00,VWS V14.01,2013-03-03 00:31:00,
2013-03-03 14:32:00,63.8,51.8,30.08,NW,307,0.0,2.0,65,0.00,,BKN050,0.00,VWS V14.01,2013-03-03 00:32:00,
2013-03-03 14:33:00,63.8,51.8,30.08,NW,307,2.0,2.0,65,0.00,,BKN050,0.00,VWS V14.01,2013-03-03 00:33:00,
2013-03-03 14:34:00,63.8,51.4,30.08,NW,308,2.0,2.0,64,0.00,,BKN050,0.00,VWS V14.01,2013-03-03 00:34:00,
2013-03-03 14:35:00,63.4,52.3,30.07,NW,326,3.0,3.0,67,0.00,,OVC180,0.00,VWS V14.01,2013-03-03 00:35:00,
2013-03-03 14:36:00,63.7,51.3,30.08,NW,308,1.0,3.0,64,0.00,,BKN050,0.00,VWS V14.01,2013-03-03 00:36:00,
2013-03-03 14:37:00,63.7,51.3,30.08,NW,308,0.0,1.0,64,0.00,,BKN050,0.00,VWS V14.01,2013-03-03 00:37:00,
2013-03-03 14:38:00,63.7,51.7,30.08,NW,308,0.0,1.0,65,0.00,,BKN050,0.00,VWS V14.01,2013-03-03 00:38:00,
2013-03-03 14:40:00,63.5,52.4,30.07,NNW,329,4.0,5.0,67,0.00,,OVC180,0.00,VWS V14.01,2013-03-03 00:40:00,
2013-03-03 14:41:00,63.6,51.6,30.08,NW,308,0.0,2.0,65,0.00,,BKN050,0.00,VWS V14.01,2013-03-03 00:41:00,
2013-03-03 14:42:00,63.6,51.6,30.08,NW,308,1.0,1.0,65,0.00,,BKN050,0.00,VWS V14.01,2013-03-03 00:42:00,
2013-03-03 14:43:00,63.6,51.6,30.07,NW,308,1.0,2.0,65,0.00,,BKN050,0.00,VWS V14.01,2013-03-03 00:43:00,
2013-03-03 14:44:00,63.5,51.5,30.07,NW,308,0.0,1.0,65,0.00,,BKN050,0.00,VWS V14.01,2013-03-03 00:44:00,
2013-03-03 14:45:00,63.6,52.5,30.07,NNW,337,1.0,1.0,67,0.00,,OVC180,0.00,VWS V14.01,2013-03-03 00:45:00,
2013-03-03 14:46:00,63.4,51.9,30.08,NW,308,0.0,0.0,66,0.00,,BKN050,0.00,VWS V14.01,2013-03-03 00:46:00,
2013-03-03 14:47:00,63.3,51.8,30.08,NW,308,0.0,0.0,66,0.00,,BKN050,0.00,VWS V14.01,2013-03-03 00:47:00,
2013-03-03 14:48:00,63.3,51.8,30.07,NW,308,0.0,0.0,66,0.00,,BKN050,0.00,VWS V14.01,2013-03-03 00:48:00,
2013-03-03 14:49:00,63.2,51.7,30.08,NW,308,0.0,0.0,66,0.00,,BKN050,0.00,VWS V14.01,2013-03-03 00:49:00,
2013-03-03 14:50:00,63.7,52.5,30.06,NNW,336,0.0,1.0,67,0.00,,OVC180,0.00,VWS V14.01,2013-03-03 00:50:00,
2013-03-03 14:51:00,63.1,52.4,30.08,NW,308,1.0,1.0,68,0.00,,BKN050,0.00,VWS V14.01,2013-03-03 00:51:00,
2013-03-03 14:52:00,63.0,52.3,30.08,NW,308,0.0,1.0,68,0.00,,BKN050,0.00,VWS V14.01,2013-03-03 00:52:00,
2013-03-03 14:53:00,63.0,52.7,30.08,NW,308,0.0,1.0,69,0.00,,BKN050,0.00,VWS V14.01,2013-03-03 00:53:00,
2013-03-03 14:54:00,62.9,52.6,30.08,NW,308,1.0,1.0,69,0.00,,BKN050,0.00,VWS V14.01,2013-03-03 00:54:00,
2013-03-03 14:55:00,63.8,52.2,30.07,North,355,1.0,2.0,66,0.00,,OVC180,0.00,VWS V14.01,2013-03-03 00:55:00,
2013-03-03 14:56:00,62.7,52.8,30.08,NW,308,1.0,2.0,70,0.00,,BKN050,0.00,VWS V14.01,2013-03-03 00:56:00,
2013-03-03 14:57:00,62.6,53.1,30.08,NW,308,1.0,2.0,71,0.00,,BKN050,0.00,VWS V14.01,2013-03-03 00:57:00,
2013-03-03 14:58:00,62.5,53.0,30.08,NW,308,0.0,1.0,71,0.00,,BKN050,0.00,VWS V14.01,2013-03-03 00:58:00,
2013-03-03 14:59:00,62.3,53.2,30.08,NW,308,0.0,1.0,72,0.00,,BKN050,0.00,VWS V14.01,2013-03-03 00:59:00,
2013-03-03 15:00:00,63.9,52.3,30.07,North,355,2.0,2.0,66,0.00,,OVC180,0.00,VWS V14.01,2013-03-03 01:00:00,
2013-03-03 15:01:00,62.1,53.3,30.08,NW,308,0.0,1.0,73,0.00,,BKN050,0.00,VWS V14.01,2013-03-03 01:01:00,
2013-03-03 15:02:00,61.9,53.2,30.08,NW,308,0.0,1.0,73,0.00,,BKN050,0.00,VWS V14.01,2013-03-03 01:02:00,
2013-03-03 15:03:00,61.8,53.4,30.08,NW,308,1.0,1.0,74,0.00,,BKN050,0.00,VWS V14.01,2013-03-03 01:03:00,
2013-03-03 15:04:00,61.6,53.2,30.08,NW,308,0.0,1.0,74,0.00,,BKN050,0.00,VWS V14.01,2013-03-03 01:04:00,
2013-03-03 15:05:00,64.0,52.4,30.07,North,351,0.0,1.0,66,0.00,,OVC180,0.00,VWS V14.01,2013-03-03 01:05:00,
2013-03-03 15:06:00,61.4,53.0,30.08,NW,308,0.0,1.0,74,0.00,,BKN050,0.00,VWS V14.01,2013-03-03 01:06:00,
2013-03-03 15:07:00,61.3,53.0,30.08,NW,308,1.0,1.0,74,0.00,,BKN050,0.00,VWS V14.01,2013-03-03 01:07:00,
2013-03-03 15:08:00,61.2,53.2,30.08,NW,308,0.0,1.0,75,0.00,,BKN050,0.00,VWS V14.01,2013-03-03 01:08:00,
2013-03-03 15:09:00,61.1,53.1,30.08,NW,308,0.0,1.0,75,0.00,,BKN050,0.00,VWS V14.01,2013-03-03 01:09:00,
2013-03-03 15:10:00,64.0,52.0,30.07,NNW,342,2.0,3.0,65,0.00,,OVC180,0.00,VWS V14.01,2013-03-03 01:10:00,
2013-03-03 15:11:00,60.9,52.9,30.08,NW,308,0.0,0.0,75,0.00,,BKN050,0.00,VWS V14.01,2013-03-03 01:11:00,
2013-03-03 15:12:00,60.9,52.9,30.08,NW,308,1.0,1.0,75,0.00,,BKN050,0.00,VWS V14.01,2013-03-03 01:12:00,
2013-03-03 15:13:00,60.8,52.8,30.08,NW,308,1.0,2.0,75,0.00,,BKN050,0.00,VWS V14.01,2013-03-03 01:13:00,
2013-03-03 15:14:00,60.8,52.8,30.08,NW,309,1.0,2.0,75,0.00,,BKN050,0.00,VWS V14.01,2013-03-03 01:14:00,
2013-03-03 15:15:00,63.9,52.3,30.07,NNW,342,1.0,1.0,66,0.00,,OVC180,0.00,VWS V14.01,2013-03-03 01:15:00,
2013-03-03 15:16:00,60.6,52.6,30.08,NE,34,2.0,3.0,75,0.00,,BKN050,0.00,VWS V14.01,2013-03-03 01:16:00,
2013-03-03 15:17:00,60.5,52.5,30.08,NE,34,3.0,4.0,75,0.00,,BKN050,0.00,VWS V14.01,2013-03-03 01:17:00,
2013-03-03 15:18:00,60.4,52.5,30.08,NE,35,2.0,3.0,75,0.00,,BKN050,0.00,VWS V14.01,2013-03-03 01:18:00,
2013-03-03 15:19:00,60.3,52.3,30.08,NE,42,1.0,4.0,75,0.00,,BKN050,0.00,VWS V14.01,2013-03-03 01:19:00,
2013-03-03 15:20:00,63.7,52.1,30.07,NNW,342,0.0,0.0,66,0.00,,OVC180,0.00,VWS V14.01,2013-03-03 01:20:00,
2013-03-03 15:21:00,60.0,52.4,30.09,NE,42,1.0,1.0,76,0.00,,BKN050,0.00,VWS V14.01,2013-03-03 01:21:00,
2013-03-03 15:22:00,59.9,52.3,30.09,NE,42,0.0,1.0,76,0.00,,BKN050,0.00,VWS V14.01,2013-03-03 01:22:00,
2013-03-03 15:23:00,59.8,52.2,30.09,NE,42,2.0,2.0,76,0.00,,BKN050,0.00,VWS V14.01,2013-03-03 01:23:00,
2013-03-03 15:24:00,59.7,52.1,30.09,NE,42,0.0,2.0,76,0.00,,BKN050,0.00,VWS V14.01,2013-03-03 01:24:00,
2013-03-03 15:25:00,63.6,51.6,30.08,WNW,302,0.0,1.0,65,0.00,,OVC180,0.00,VWS V14.01,2013-03-03 01:25:00,
2013-03-03 15:26:00,59.5,51.9,30.09,NE,44,2.0,4.0,76,0.00,,BKN050,0.00,VWS V14.01,2013-03-03 01:26:00,
2013-03-03 15:27:00,59.5,51.9,30.09,NE,44,1.0,2.0,76,0.00,,BKN050,0.00,VWS V14.01,2013-03-03 01:27:00,
2013-03-03 15:28:00,59.4,52.2,30.09,NE,44,2.0,3.0,77,0.00,,BKN050,0.00,VWS V14.01,2013-03-03 01:28:00,
2013-03-03 15:29:00,59.3,52.1,30.09,NE,44,0.0,3.0,77,0.00,,BKN050,0.00,VWS V14.01,2013-03-03 01:29:00,
2013-03-03 15:30:00,63.8,51.8,30.08,NW,307,1.0,1.0,65,0.00,,OVC180,0.00,VWS V14.01,2013-03-03 01:30:00,
2013-03-03 15:31:00,59.2,52.0,30.09,NE,44,0.0,2.0,77,0.00,,BKN050,0.00,VWS V14.01,2013-03-03 01:31:00,
2013-03-03 15:32:00,59.1,51.9,30.09,NE,44,0.0,1.0,77,0.00,,BKN050,0.00,VWS V14.01,2013-03-03 01:32:00,
2013-03-03 15:33:00,59.1,52.3,30.09,NE,44,0.0,1.0,78,0.00,,BKN050,0.00,VWS V14.01,2013-03-03 01:33:00,
2013-03-03 15:34:00,59.0,52.2,30.09,NE,44,0.0,1.0,78,0.00,,BKN050,0.00,VWS V14.01,2013-03-03 01:34:00,
2013-03-03 15:35:00,63.7,51.3,30.08,NW,308,0.0,1.0,64,0.00,,OVC180,0.00,VWS V14.01,2013-03-03 01:35:00,
2013-03-03 15:36:00,58.9,52.1,30.09,NE,44,2.0,3.0,78,0.00,,BKN050,0.00,VWS V14.01,2013-03-03 01:36:00,
2013-03-03 15:37:00,58.9,52.1,30.09,ENE,58,4.0,5.0,78,0.00,,BKN050,0.00,VWS V14.01,2013-03-03 01:37:00,
2013-03-03 15:38:00,58.8,52.0,30.09,ENE,58,1.0,4.0,78,0.00,,BKN050,0.00,VWS V14.01,2013-03-03 01:38:00,
2013-03-03 15:39:00,58.7,52.2,30.09,ENE,58,1.0,3.0,79,0.00,,BKN050,0.00,VWS V14.01,2013-03-03 01:39:00,
2013-03-03 15:40:00,63.6,51.6,30.08,NW,308,1.0,1.0,65,0.00,,OVC180,0.00,VWS V14.01,2013-03-03 01:40:00,
2013-03-03 15:41:00,58.5,52.0,30.09,ENE,58,0.0,2.0,79,0.00,,BKN050,0.00,VWS V14.01,2013-03-03 01:41:00,
2013-03-03 15:42:00,58.4,51.9,30.10,ENE,58,1.0,1.0,79,0.00,,BKN050,0.00,VWS V14.01,2013-03-03 01:42:00,
2013-03-03 15:43:00,58.3,51.8,30.10,ENE,58,0.0,1.0,79,0.00,,BKN050,0.00,VWS V14.01,2013-03-03 01:43:00,
2013-03-03 15:44:00,58.2,51.7,30.10,ENE,58,0.0,0.0,79,0.00,,BKN050,0.00,VWS V14.01,2013-03-03 01:44:00,
2013-03-03 15:45:00,63.4,51.9,30.08,NW,308,0.0,0.0,66,0.00,,OVC180,0.00,VWS V14.01,2013-03-03 01:45:00,
2013-03-03 15:46:00,58.0,51.5,30.10,ENE,58,1.0,3.0,79,0.00,,BKN050,0.00,VWS V14.01,2013-03-03 01:46:00,
2013-03-03 15:47:00,57.9,51.8,30.10,ENE,58,1.0,2.0,80,0.00,,BKN050,0.00,VWS V14.01,2013-03-03 01:47:00,
2013-03-03 15:48:00,57.8,51.7,30.10,ENE,58,1.0,4.0,80,0.00,,BKN050,0.00,VWS V14.01,2013-03-03 01:48:00,
2013-03-03 15:49:00,57.8,51.7,30.10,ENE,58,2.0,4.0,80,0.00,,BKN050,0.00,VWS V14.01,2013-03-03 01:49:00,
2013-03-03 15:50:00,63.1,52.4,30.08,NW,308,0.0,1.0,68,0.00,,OVC180,0.00,VWS V14.01,2013-03-03 01:50:00,
2013-03-03 15:51:00,57.6,51.5,30.10,ENE,58,2.0,3.0,80,0.00,,BKN050,0.00,VWS V14.01,2013-03-03 01:51:00,
2013-03-03 15:52:00,57.6,51.5,30.10,ENE,58,1.0,3.0,80,0.00,,BKN050,0.00,VWS V14.01,2013-03-03 01:52:00,
2013-03-03 15:53:00,57.5,51.7,30.10,ENE,58,0.0,3.0,81,0.00,,BKN050,0.00,VWS V14.01,2013-03-03 01:53:00,
2013-03-03 15:54:00,57.4,51.6,30.10,ENE,58,1.0,1.0,81,0.00,,BKN050,0.00,VWS V14.01,2013-03-03 01:54:00,
2013-03-03 15:55:00,62.7,52.8,30.08,NW,308,1.0,1.0,70,0.00,,OVC180,0.00,VWS V14.01,2013-03-03 01:55:00,
2013-03-03 15:56:00,57.2,51.4,30.10,NE,53,2.0,7.0,81,0.00,,BKN050,0.00,VWS V14.01,2013-03-03 01:56:00,
2013-03-03 15:57:00,57.2,51.4,30.10,NE,53,2.0,4.0,81,0.00,,BKN050,0.00,VWS V14.01,2013-03-03 01:57:00,
2013-03-03 15:58:00,57.1,51.7,30.10,NE,53,3.0,3.0,82,0.00,,BKN050,0.00,VWS V14.01,2013-03-03 01:58:00,
2013-03-03 15:59:00,57.0,51.6,30.10,NE,53,0.0,3.0,82,0.00,,BKN050,0.00,VWS V14.01,2013-03-03 01:59:00,
2013-03-03 16:00:00,62.0,53.3,30.08,NW,308,0.0,1.0,73,0.00,,OVC180,0.00,VWS V14.01,2013-03-03 02:00:00,
2013-03-03 16:01:00,56.8,51.4,30.10,NE,53,2.0,3.0,82,0.00,,BKN050,0.00,VWS V14.01,2013-03-03 02:01:00,
2013-03-03 16:02:00,56.8,51.4,30.11,NE,53,1.0,3.0,82,0.00,,BKN050,0.00,VWS V14.01,2013-03-03 02:02:00,
2013-03-03 16:03:00,56.8,51.4,30.10,NE,53,2.0,3.0,82,0.00,,BKN050,0.00,VWS V14.01,2013-03-03 02:03:00,
2013-03-03 16:04:00,56.7,51.6,30.11,NE,53,0.0,2.0,83,0.00,,BKN050,0.00,VWS V14.01,2013-03-03 02:04:00,
2013-03-03 16:05:00,61.4,53.0,30.08,NW,308,0.0,0.0,74,0.00,,OVC180,0.00,VWS V14.01,2013-03-03 02:05:00,
2013-03-03 16:06:00,56.5,51.4,30.11,NE,53,2.0,3.0,83,0.00,,BKN050,0.00,VWS V14.01,2013-03-03 02:06:00,
2013-03-03 16:07:00,56.4,51.3,30.11,NE,53,0.0,4.0,83,0.00,,BKN050,0.00,VWS V14.01,2013-03-03 02:07:00,
2013-03-03 16:08:00,56.4,51.3,30.11,NE,53,1.0,4.0,83,0.00,,BKN050,0.00,VWS V14.01,2013-03-03 02:08:00,
2013-03-03 16:09:00,56.3,51.2,30.11,NE,53,1.0,2.0,83,0.00,,BKN050,0.00,VWS V14.01,2013-03-03 02:09:00,
2013-03-03 16:10:00,60.9,52.9,30.08,NW,308,1.0,1.0,75,0.00,,OVC180,0.00,VWS V14.01,2013-03-03 02:10:00,
2013-03-03 16:11:00,56.3,51.5,30.11,NE,53,1.0,1.0,84,0.00,,BKN050,0.00,VWS V14.01,2013-03-03 02:11:00,
2013-03-03 16:12:00,56.2,51.4,30.11,NE,53,0.0,1.0,84,0.00,,BKN050,0.00,VWS V14.01,2013-03-03 02:12:00,
2013-03-03 16:13:00,56.2,51.4,30.11,NE,53,0.0,0.0,84,0.00,,BKN050,0.00,VWS V14.01,2013-03-03 02:13:00,
2013-03-03 16:14:00,56.1,51.3,30.11,NE,53,1.0,2.0,84,0.00,,BKN050,0.00,VWS V14.01,2013-03-03 02:14:00,
2013-03-03 16:15:00,60.6,52.6,30.08,NE,34,2.0,2.0,75,0.00,,OVC180,0.00,VWS V14.01,2013-03-03 02:15:00,
2013-03-03 16:16:00,56.1,51.3,30.11,NE,53,4.0,4.0,84,0.00,,BKN050,0.00,VWS V14.01,2013-03-03 02:16:00,
2013-03-03 16:19:00,56.0,51.2,30.11,NE,53,2.0,4.0,84,0.00,,BKN050,0.00,VWS V14.01,2013-03-03 02:19:00,
2013-03-03 16:20:00,60.0,52.4,30.09,NE,42,0.0,1.0,76,0.00,,OVC180,0.00,VWS V14.01,2013-03-03 02:20:00,
2013-03-03 16:22:00,56.0,51.2,30.11,NE,53,1.0,3.0,84,0.00,,BKN050,0.00,VWS V14.01,2013-03-03 02:22:00,
2013-03-03 16:23:00,56.0,51.6,30.11,NE,53,0.0,2.0,85,0.00,,BKN050,0.00,VWS V14.01,2013-03-03 02:23:00,
2013-03-03 16:24:00,56.0,51.6,30.11,NE,53,0.0,1.0,85,0.00,,BKN050,0.00,VWS V14.01,2013-03-03 02:24:00,
2013-03-03 16:25:00,59.5,51.9,30.09,NE,44,2.0,2.0,76,0.00,,OVC180,0.00,VWS V14.01,2013-03-03 02:25:00,
2013-03-03 16:26:00,55.9,51.5,30.11,NE,53,0.0,2.0,85,0.00,,BKN050,0.00,VWS V14.01,2013-03-03 02:26:00,
2013-03-03 16:27:00,55.9,51.5,30.11,NE,53,3.0,3.0,85,0.00,,BKN050,0.00,VWS V14.01,2013-03-03 02:27:00,
2013-03-03 16:28:00,55.9,51.5,30.11,NE,53,1.0,5.0,85,0.00,,BKN050,0.00,VWS V14.01,2013-03-03 02:28:00,
2013-03-03 16:29:00,59.2,52.0,30.09,NE,44,0.0,2.0,77,0.00,,OVC180,0.00,VWS V14.01,2013-03-03 02:29:00,
2013-03-03 16:30:00,55.9,51.5,30.10,NE,53,3.0,4.0,85,0.00,,BKN050,0.00,VWS V14.01,2013-03-03 02:30:00,
2013-03-03 16:31:00,55.9,51.5,30.10,NE,53,0.0,3.0,85,0.00,,BKN050,0.00,VWS V14.01,2013-03-03 02:31:00,
2013-03-03 16:32:00,55.9,51.5,30.10,NE,53,1.0,2.0,85,0.00,,BKN050,0.00,VWS V14.01,2013-03-03 02:32:00,
2013-03-03 16:33:00,55.8,51.4,30.10,NE,53,0.0,1.0,85,0.00,,BKN050,0.00,VWS V14.01,2013-03-03 02:33:00,
2013-03-03 16:34:00,58.9,52.1,30.09,NE,44,2.0,3.0,78,0.00,,OVC180,0.00,VWS V14.01,2013-03-03 02:34:00,
2013-03-03 16:35:00,55.8,51.7,30.10,NE,53,2.0,2.0,86,0.00,,BKN050,0.00,VWS V14.01,2013-03-03 02:35:00,
2013-03-03 16:37:00,55.7,51.3,30.10,NE,53,2.0,3.0,85,0.00,,BKN050,0.00,VWS V14.01,2013-03-03 02:37:00,
2013-03-03 16:38:00,55.7,51.3,30.10,NE,53,0.0,2.0,85,0.00,,BKN050,0.00,VWS V14.01,2013-03-03 02:38:00,
2013-03-03 16:39:00,58.5,52.0,30.09,ENE,58,0.0,2.0,79,0.00,,OVC180,0.00,VWS V14.01,2013-03-03 02:39:00,
2013-03-03 16:40:00,55.7,51.3,30.10,NE,53,1.0,2.0,85,0.00,,BKN050,0.00,VWS V14.01,2013-03-03 02:40:00,
2013-03-03 16:41:00,55.7,51.3,30.10,NE,53,2.0,2.0,85,0.00,,BKN050,0.00,VWS V14.01,2013-03-03 02:41:00,
2013-03-03 16:42:00,55.7,51.3,30.11,NE,53,1.0,3.0,85,0.00,,BKN050,0.00,VWS V14.01,2013-03-03 02:42:00,
2013-03-03 16:43:00,55.7,51.3,30.11,NE,53,0.0,1.0,85,0.00,,BKN050,0.00,VWS V14.01,2013-03-03 02:43:00,
2013-03-03 16:44:00,58.0,51.5,30.10,ENE,58,1.0,3.0,79,0.00,,OVC180,0.00,VWS V14.01,2013-03-03 02:44:00,
2013-03-03 16:45:00,55.7,51.3,30.10,NE,53,0.0,0.0,85,0.00,,BKN050,0.00,VWS V14.01,2013-03-03 02:45:00,
2013-03-03 16:46:00,55.8,51.4,30.11,NE,53,1.0,2.0,85,0.00,,BKN050,0.00,VWS V14.01,2013-03-03 02:46:00,
2013-03-03 16:47:00,55.8,51.4,30.10,NE,53,1.0,4.0,85,0.00,,BKN050,0.00,VWS V14.01,2013-03-03 02:47:00,
2013-03-03 16:48:00,55.8,51.4,30.10,NE,53,0.0,1.0,85,0.00,,BKN050,0.00,VWS V14.01,2013-03-03 02:48:00,
2013-03-03 16:49:00,57.6,51.5,30.10,ENE,58,2.0,3.0,80,0.00,,OVC180,0.00,VWS V14.01,2013-03-03 02:49:00,
2013-03-03 16:50:00,55.7,51.3,30.11,NE,53,0.0,1.0,85,0.00,,BKN050,0.00,VWS V14.01,2013-03-03 02:50:00,
2013-03-03 16:51:00,55.7,51.3,30.11,NE,53,0.0,1.0,85,0.00,,BKN050,0.00,VWS V14.01,2013-03-03 02:51:00,
2013-03-03 16:52:00,55.7,51.3,30.11,NE,53,0.0,1.0,85,0.00,,BKN050,0.00,VWS V14.01,2013-03-03 02:52:00,
2013-03-03 16:53:00,55.7,51.3,30.11,NE,53,0.0,0.0,85,0.00,,BKN050,0.00,VWS V14.01,2013-03-03 02:53:00,
2013-03-03 16:54:00,57.2,51.4,30.10,NE,53,2.0,7.0,81,0.00,,OVC180,0.00,VWS V14.01,2013-03-03 02:54:00,
2013-03-03 16:55:00,55.7,51.3,30.11,NE,53,0.0,1.0,85,0.00,,BKN050,0.00,VWS V14.01,2013-03-03 02:55:00,
2013-03-03 16:56:00,55.7,51.3,30.11,NE,53,0.0,0.0,85,0.00,,BKN050,0.00,VWS V14.01,2013-03-03 02:56:00,
2013-03-03 16:57:00,55.7,51.3,30.11,NE,53,0.0,0.0,85,0.00,,BKN050,0.00,VWS V14.01,2013-03-03 02:57:00,
2013-03-03 16:58:00,55.7,51.3,30.11,NE,53,0.0,0.0,85,0.00,,BKN050,0.00,VWS V14.01,2013-03-03 02:58:00,
2013-03-03 16:59:00,56.9,51.5,30.10,NE,53,2.0,3.0,82,0.00,,OVC180,0.00,VWS V14.01,2013-03-03 02:59:00,
2013-03-03 17:00:00,55.8,51.4,30.11,NE,53,0.0,0.0,85,0.00,,BKN050,0.00,VWS V14.01,2013-03-03 03:00:00,
2013-03-03 17:01:00,55.8,51.4,30.11,NE,53,0.0,0.0,85,0.00,,BKN050,0.00,VWS V14.01,2013-03-03 03:01:00,
2013-03-03 17:02:00,55.8,51.4,30.11,NE,53,0.0,0.0,85,0.00,,BKN050,0.00,VWS V14.01,2013-03-03 03:02:00,
2013-03-03 17:03:00,55.8,51.4,30.11,NE,53,0.0,0.0,85,0.00,,BKN050,0.00,VWS V14.01,2013-03-03 03:03:00,
2013-03-03 17:04:00,56.5,51.4,30.11,NE,53,2.0,3.0,83,0.00,,OVC180,0.00,VWS V14.01,2013-03-03 03:04:00,
2013-03-03 17:05:00,55.8,51.4,30.11,NE,53,0.0,1.0,85,0.00,,BKN050,0.00,VWS V14.01,2013-03-03 03:05:00,
2013-03-03 17:06:00,55.8,51.4,30.11,NE,53,0.0,1.0,85,0.00,,BKN050,0.00,VWS V14.01,2013-03-03 03:06:00,
2013-03-03 17:07:00,55.8,51.4,30.11,NE,53,1.0,2.0,85,0.00,,BKN050,0.00,VWS V14.01,2013-03-03 03:07:00,
2013-03-03 17:08:00,55.8,51.4,30.10,NE,55,3.0,3.0,85,0.00,,BKN050,0.00,VWS V14.01,2013-03-03 03:08:00,
2013-03-03 17:09:00,56.3,51.5,30.11,NE,53,0.0,1.0,84,0.00,,OVC180,0.00,VWS V14.01,2013-03-03 03:09:00,
2013-03-03 17:10:00,55.8,51.4,30.10,NE,55,1.0,2.0,85,0.00,,BKN050,0.00,VWS V14.01,2013-03-03 03:10:00,
2013-03-03 17:11:00,55.8,51.4,30.10,NE,55,1.0,2.0,85,0.00,,BKN050,0.00,VWS V14.01,2013-03-03 03:11:00,
2013-03-03 17:12:00,55.8,51.4,30.10,NE,55,0.0,1.0,85,0.00,,BKN050,0.00,VWS V14.01,2013-03-03 03:12:00,
2013-03-03 17:13:00,55.8,51.4,30.10,NE,55,0.0,0.0,85,0.00,,BKN050,0.00,VWS V14.01,2013-03-03 03:13:00,
2013-03-03 17:14:00,56.1,51.3,30.11,NE,53,3.0,3.0,84,0.00,,OVC180,0.00,VWS V14.01,2013-03-03 03:14:00,
2013-03-03 17:16:00,55.8,51.4,30.10,NE,55,0.0,0.0,85,0.00,,BKN050,0.00,VWS V14.01,2013-03-03 03:16:00,
2013-03-03 17:17:00,55.8,51.4,30.10,NE,55,0.0,0.0,85,0.00,,BKN050,0.00,VWS V14.01,2013-03-03 03:17:00,
2013-03-03 17:18:00,55.9,51.1,30.10,NE,55,0.0,0.0,84,0.00,,BKN050,0.00,VWS V14.01,2013-03-03 03:18:00,
2013-03-03 17:19:00,56.0,51.2,30.11,NE,53,4.0,4.0,84,0.00,,OVC180,0.00,VWS V14.01,2013-03-03 03:19:00,
2013-03-03 17:20:00,55.8,51.0,30.10,NE,55,0.0,0.0,84,0.00,,BKN050,0.00,VWS V14.01,2013-03-03 03:20:00,
2013-03-03 17:21:00,55.8,51.0,30.10,NE,55,0.0,0.0,84,0.00,,BKN050,0.00,VWS V14.01,2013-03-03 03:21:00,
2013-03-03 17:22:00,55.8,51.0,30.09,NE,55,0.0,0.0,84,0.00,,BKN050,0.00,VWS V14.01,2013-03-03 03:22:00,
2013-03-03 17:23:00,55.7,51.0,30.09,NE,55,0.0,0.0,84,0.00,,BKN050,0.00,VWS V14.01,2013-03-03 03:23:00,
2013-03-03 17:24:00,55.9,51.5,30.11,NE,53,1.0,2.0,85,0.00,,OVC180,0.00,VWS V14.01,2013-03-03 03:24:00,
2013-03-03 17:25:00,55.7,51.3,30.09,NE,55,0.0,0.0,85,0.00,,BKN050,0.00,VWS V14.01,2013-03-03 03:25:00,
2013-03-03 17:26:00,55.8,51.4,30.09,NE,55,0.0,0.0,85,0.00,,BKN050,0.00,VWS V14.01,2013-03-03 03:26:00,
2013-03-03 17:27:00,55.8,51.4,30.10,NE,55,0.0,0.0,85,0.00,,BKN050,0.00,VWS V14.01,2013-03-03 03:27:00,
2013-03-03 17:28:00,55.8,51.4,30.09,NE,55,0.0,0.0,85,0.00,,BKN050,0.00,VWS V14.01,2013-03-03 03:28:00,
2013-03-03 17:29:00,55.9,51.5,30.10,NE,53,1.0,3.0,85,0.00,,OVC180,0.00,VWS V14.01,2013-03-03 03:29:00,
2013-03-03 17:30:00,55.8,51.0,30.09,NE,55,0.0,0.0,84,0.00,,BKN050,0.00,VWS V14.01,2013-03-03 03:30:00,
2013-03-03 17:31:00,55.8,51.0,30.09,NE,55,0.0,0.0,84,0.00,,BKN050,0.00,VWS V14.01,2013-03-03 03:31:00,
2013-03-03 17:32:00,55.8,51.0,30.09,NE,55,0.0,0.0,84,0.00,,BKN050,0.00,VWS V14.01,2013-03-03 03:32:00,
2013-03-03 17:33:00,55.8,51.0,30.09,NE,55,0.0,0.0,84,0.00,,BKN050,0.00,VWS V14.01,2013-03-03 03:33:00,
2013-03-03 17:34:00,55.8,51.7,30.10,NE,53,1.0,2.0,86,0.00,,OVC180,0.00,VWS V14.01,2013-03-03 03:34:00,
2013-03-03 17:35:00,55.8,51.4,30.09,NE,55,0.0,0.0,85,0.00,,BKN050,0.00,VWS V14.01,2013-03-03 03:35:00,
2013-03-03 17:36:00,55.8,51.4,30.09,NE,55,0.0,1.0,85,0.00,,BKN050,0.00,VWS V14.01,2013-03-03 03:36:00,
2013-03-03 17:37:00,55.8,51.4,30.09,NE,55,0.0,0.0,85,0.00,,BKN050,0.00,VWS V14.01,2013-03-03 03:37:00,
2013-03-03 17:38:00,55.8,51.4,30.09,NE,55,0.0,0.0,85,0.00,,BKN050,0.00,VWS V14.01,2013-03-03 03:38:00,
2013-03-03 17:39:00,55.7,51.3,30.10,NE,53,1.0,2.0,85,0.00,,OVC180,0.00,VWS V14.01,2013-03-03 03:39:00,
2013-03-03 17:40:00,55.8,51.4,30.09,NE,55,0.0,0.0,85,0.00,,BKN050,0.00,VWS V14.01,2013-03-03 03:40:00,
2013-03-03 17:43:00,55.8,51.4,30.09,NE,55,0.0,0.0,85,0.00,,BKN050,0.00,VWS V14.01,2013-03-03 03:43:00,
2013-03-03 17:44:00,55.8,51.4,30.11,NE,53,1.0,1.0,85,0.00,,OVC180,0.00,VWS V14.01,2013-03-03 03:44:00,
2013-03-03 17:45:00,55.8,51.4,30.09,NE,55,0.0,0.0,85,0.00,,BKN050,0.00,VWS V14.01,2013-03-03 03:45:00,
2013-03-03 17:47:00,55.8,51.4,30.09,NE,55,0.0,0.0,85,0.00,,BKN050,0.00,VWS V14.01,2013-03-03 03:47:00,
2013-03-03 17:48:00,55.8,51.4,30.09,NE,55,0.0,0.0,85,0.00,,BKN050,0.00,VWS V14.01,2013-03-03 03:48:00,
2013-03-03 17:49:00,55.7,51.3,30.11,NE,53,0.0,1.0,85,0.00,,OVC180,0.00,VWS V14.01,2013-03-03 03:49:00,
2013-03-03 17:51:00,55.9,51.5,30.09,NE,55,0.0,0.0,85,0.00,,BKN050,0.00,VWS V14.01,2013-03-03 03:51:00,
2013-03-03 17:53:00,55.9,51.5,30.09,NE,55,0.0,0.0,85,0.00,,BKN050,0.00,VWS V14.01,2013-03-03 03:53:00,
2013-03-03 17:54:00,55.7,51.3,30.11,NE,53,0.0,0.0,85,0.00,,OVC180,0.00,VWS V14.01,2013-03-03 03:54:00,
2013-03-03 17:55:00,55.8,51.4,30.09,NE,55,0.0,0.0,85,0.00,,BKN050,0.00,VWS V14.01,2013-03-03 03:55:00,
2013-03-03 17:56:00,55.8,51.4,30.09,NE,55,0.0,0.0,85,0.00,,BKN050,0.00,VWS V14.01,2013-03-03 03:56:00,
2013-03-03 17:57:00,55.8,51.4,30.10,NE,55,0.0,0.0,85,0.00,,BKN050,0.00,VWS V14.01,2013-03-03 03:57:00,
2013-03-03 17:58:00,55.8,51.4,30.09,NE,55,0.0,0.0,85,0.00,,BKN050,0.00,VWS V14.01,2013-03-03 03:58:00,
2013-03-03 17:59:00,55.8,51.4,30.11,NE,53,0.0,0.0,85,0.00,,OVC180,0.00,VWS V14.01,2013-03-03 03:59:00,
2013-03-03 18:00:00,55.9,51.5,30.10,NE,55,0.0,0.0,85,0.00,,BKN050,0.00,VWS V14.01,2013-03-03 04:00:00,
2013-03-03 18:01:00,55.9,51.5,30.10,NE,55,0.0,0.0,85,0.00,,BKN050,0.00,VWS V14.01,2013-03-03 04:01:00,
2013-03-03 18:02:00,55.9,51.5,30.10,NE,55,0.0,0.0,85,0.00,,BKN050,0.00,VWS V14.01,2013-03-03 04:02:00,
2013-03-03 18:03:00,55.9,51.5,30.10,NE,55,0.0,0.0,85,0.00,,BKN050,0.00,VWS V14.01,2013-03-03 04:03:00,
2013-03-03 18:04:00,55.8,51.4,30.11,NE,53,0.0,1.0,85,0.00,,OVC180,0.00,VWS V14.01,2013-03-03 04:04:00,
2013-03-03 18:05:00,55.9,51.5,30.10,NE,55,0.0,0.0,85,0.00,,BKN050,0.00,VWS V14.01,2013-03-03 04:05:00,
2013-03-03 18:06:00,55.9,51.5,30.10,NE,55,0.0,0.0,85,0.00,,BKN050,0.00,VWS V14.01,2013-03-03 04:06:00,
2013-03-03 18:07:00,55.9,51.5,30.10,NE,55,0.0,0.0,85,0.00,,BKN050,0.00,VWS V14.01,2013-03-03 04:07:00,
2013-03-03 18:08:00,55.9,51.5,30.10,NE,55,0.0,0.0,85,0.00,,BKN050,0.00,VWS V14.01,2013-03-03 04:08:00,
2013-03-03 18:09:00,55.8,51.4,30.10,NE,55,0.0,2.0,85,0.00,,OVC180,0.00,VWS V14.01,2013-03-03 04:09:00,
2013-03-03 18:10:00,55.9,51.5,30.10,NE,55,0.0,0.0,85,0.00,,BKN050,0.00,VWS V14.01,2013-03-03 04:10:00,
2013-03-03 18:11:00,55.9,51.5,30.10,NE,55,0.0,0.0,85,0.00,,BKN050,0.00,VWS V14.01,2013-03-03 04:11:00,
2013-03-03 18:12:00,55.9,51.5,30.10,NE,55,0.0,0.0,85,0.00,,BKN050,0.00,VWS V14.01,2013-03-03 04:12:00,
2013-03-03 18:13:00,55.9,51.5,30.10,NE,55,0.0,0.0,85,0.00,,BKN050,0.00,VWS V14.01,2013-03-03 04:13:00,
2013-03-03 18:14:00,55.9,51.5,30.10,NE,55,0.0,0.0,85,0.00,,OVC180,0.00,VWS V14.01,2013-03-03 04:14:00,
2013-03-03 18:15:00,55.9,51.5,30.10,NE,55,0.0,0.0,85,0.00,,BKN050,0.00,VWS V14.01,2013-03-03 04:15:00,
2013-03-03 18:16:00,55.9,51.5,30.10,NE,55,0.0,1.0,85,0.00,,BKN050,0.00,VWS V14.01,2013-03-03 04:16:00,
2013-03-03 18:17:00,55.9,51.5,30.10,NE,55,1.0,1.0,85,0.00,,BKN050,0.00,VWS V14.01,2013-03-03 04:17:00,
2013-03-03 18:18:00,55.9,51.5,30.10,NE,55,0.0,1.0,85,0.00,,BKN050,0.00,VWS V14.01,2013-03-03 04:18:00,
2013-03-03 18:19:00,55.8,51.0,30.10,NE,55,0.0,0.0,84,0.00,,OVC180,0.00,VWS V14.01,2013-03-03 04:19:00,
2013-03-03 18:21:00,55.9,51.5,30.10,NE,55,0.0,0.0,85,0.00,,BKN050,0.00,VWS V14.01,2013-03-03 04:21:00,
2013-03-03 18:22:00,55.9,51.5,30.10,NE,55,0.0,0.0,85,0.00,,BKN050,0.00,VWS V14.01,2013-03-03 04:22:00,
2013-03-03 18:23:00,55.9,51.5,30.10,NE,55,0.0,0.0,85,0.00,,BKN050,0.00,VWS V14.01,2013-03-03 04:23:00,
2013-03-03 18:24:00,55.7,51.3,30.09,NE,55,0.0,0.0,85,0.00,,OVC180,0.00,VWS V14.01,2013-03-03 04:24:00,
2013-03-03 18:26:00,55.9,51.5,30.10,NE,55,0.0,1.0,85,0.00,,BKN050,0.00,VWS V14.01,2013-03-03 04:26:00,
2013-03-03 18:28:00,55.9,51.5,30.10,NE,55,1.0,2.0,85,0.00,,BKN050,0.00,VWS V14.01,2013-03-03 04:28:00,
2013-03-03 18:29:00,55.8,51.0,30.09,NE,55,0.0,0.0,84,0.00,,OVC180,0.00,VWS V14.01,2013-03-03 04:29:00,
2013-03-03 18:30:00,55.8,51.4,30.10,NE,55,1.0,1.0,85,0.00,,BKN050,0.00,VWS V14.01,2013-03-03 04:30:00,
2013-03-03 18:32:00,55.8,51.4,30.10,NE,55,1.0,1.0,85,0.00,,BKN050,0.00,VWS V14.01,2013-03-03 04:32:00,
2013-03-03 18:33:00,55.8,51.4,30.10,NE,55,0.0,1.0,85,0.00,,BKN050,0.00,VWS V14.01,2013-03-03 04:33:00,
2013-03-03 18:34:00,55.8,51.4,30.09,NE,55,0.0,1.0,85,0.00,,OVC180,0.00,VWS V14.01,2013-03-03 04:34:00,
2013-03-03 18:35:00,55.9,51.5,30.10,NE,55,0.0,1.0,85,0.00,,BKN050,0.00,VWS V14.01,2013-03-03 04:35:00,
2013-03-03 18:36:00,56.0,51.6,30.10,NE,55,0.0,0.0,85,0.00,,BKN050,0.00,VWS V14.01,2013-03-03 04:36:00,
2013-03-03 18:37:00,55.9,51.5,30.10,NE,55,0.0,1.0,85,0.00,,BKN050,0.00,VWS V14.01,2013-03-03 04:37:00,
2013-03-03 18:38:00,56.0,51.6,30.10,NE,55,1.0,1.0,85,0.00,,BKN050,0.00,VWS V14.01,2013-03-03 04:38:00,
2013-03-03 18:39:00,55.8,51.4,30.09,NE,55,0.0,0.0,85,0.00,,OVC180,0.00,VWS V14.01,2013-03-03 04:39:00,
2013-03-03 18:40:00,55.9,51.5,30.10,NE,55,0.0,0.0,85,0.00,,BKN050,0.00,VWS V14.01,2013-03-03 04:40:00,
2013-03-03 18:42:00,56.0,51.6,30.10,NE,55,0.0,1.0,85,0.00,,BKN050,0.00,VWS V14.01,2013-03-03 04:42:00,
2013-03-03 18:43:00,56.0,51.6,30.10,NE,55,0.0,1.0,85,0.00,,BKN050,0.00,VWS V14.01,2013-03-03 04:43:00,
2013-03-03 18:44:00,55.9,51.5,30.09,NE,55,0.0,0.0,85,0.00,,OVC180,0.00,VWS V14.01,2013-03-03 04:44:00,
2013-03-03 18:45:00,56.0,51.6,30.10,NE,55,0.0,0.0,85,0.00,,BKN050,0.00,VWS V14.01,2013-03-03 04:45:00,
2013-03-03 18:46:00,56.0,51.6,30.10,NE,55,0.0,0.0,85,0.00,,BKN050,0.00,VWS V14.01,2013-03-03 04:46:00,
2013-03-03 18:47:00,56.0,51.6,30.10,NE,55,0.0,0.0,85,0.00,,BKN050,0.00,VWS V14.01,2013-03-03 04:47:00,
2013-03-03 18:48:00,55.9,51.5,30.10,NE,55,0.0,0.0,85,0.00,,BKN050,0.00,VWS V14.01,2013-03-03 04:48:00,
2013-03-03 18:49:00,55.8,51.4,30.09,NE,55,0.0,0.0,85,0.00,,OVC180,0.00,VWS V14.01,2013-03-03 04:49:00,
2013-03-03 18:50:00,55.9,51.5,30.10,NE,55,0.0,0.0,85,0.00,,BKN050,0.00,VWS V14.01,2013-03-03 04:50:00,
2013-03-03 18:51:00,55.8,51.4,30.10,NE,55,0.0,0.0,85,0.00,,BKN050,0.00,VWS V14.01,2013-03-03 04:51:00,
2013-03-03 18:52:00,55.8,51.4,30.10,NE,55,0.0,0.0,85,0.00,,BKN050,0.00,VWS V14.01,2013-03-03 04:52:00,
2013-03-03 18:53:00,55.7,51.3,30.10,NE,55,0.0,0.0,85,0.00,,BKN050,0.00,VWS V14.01,2013-03-03 04:53:00,
2013-03-03 18:54:00,55.8,51.4,30.09,NE,55,0.0,0.0,85,0.00,,OVC180,0.00,VWS V14.01,2013-03-03 04:54:00,
2013-03-03 18:55:00,55.7,51.6,30.10,NE,55,2.0,2.0,86,0.00,,BKN050,0.00,VWS V14.01,2013-03-03 04:55:00,
2013-03-03 18:56:00,55.7,51.3,30.10,NE,55,1.0,2.0,85,0.00,,BKN050,0.00,VWS V14.01,2013-03-03 04:56:00,
2013-03-03 18:57:00,55.7,51.6,30.10,NE,55,1.0,2.0,86,0.00,,BKN050,0.00,VWS V14.01,2013-03-03 04:57:00,
2013-03-03 18:58:00,55.7,51.6,30.10,NE,55,0.0,1.0,86,0.00,,BKN050,0.00,VWS V14.01,2013-03-03 04:58:00,
2013-03-03 18:59:00,55.9,51.5,30.10,NE,55,0.0,0.0,85,0.00,,OVC180,0.00,VWS V14.01,2013-03-03 04:59:00,
2013-03-03 19:00:00,55.9,51.5,30.10,NE,55,0.0,0.0,85,0.00,,OVC180,0.00,VWS V14.01,2013-03-03 05:00:00,
2013-03-03 19:01:00,55.8,51.7,30.10,NE,55,0.0,0.0,86,0.00,,BKN050,0.00,VWS V14.01,2013-03-03 05:01:00,
2013-03-03 19:02:00,55.8,51.7,30.10,NE,55,1.0,1.0,86,0.00,,BKN050,0.00,VWS V14.01,2013-03-03 05:02:00,
2013-03-03 19:03:00,55.8,51.7,30.10,NE,55,0.0,1.0,86,0.00,,BKN050,0.00,VWS V14.01,2013-03-03 05:03:00,
2013-03-03 19:04:00,55.8,51.7,30.11,NE,55,0.0,0.0,86,0.00,,BKN050,0.00,VWS V14.01,2013-03-03 05:04:00,
2013-03-03 19:05:00,55.9,51.5,30.10,NE,55,0.0,0.0,85,0.00,,OVC180,0.00,VWS V14.01,2013-03-03 05:05:00,
2013-03-03 19:06:00,55.8,51.7,30.11,NE,55,0.0,0.0,86,0.00,,BKN050,0.00,VWS V14.01,2013-03-03 05:06:00,
2013-03-03 19:07:00,55.8,51.7,30.11,NE,55,0.0,0.0,86,0.00,,BKN050,0.00,VWS V14.01,2013-03-03 05:07:00,
2013-03-03 19:08:00,55.9,51.8,30.11,NE,55,0.0,0.0,86,0.00,,BKN050,0.00,VWS V14.01,2013-03-03 05:08:00,
2013-03-03 19:09:00,55.8,51.4,30.11,NE,55,0.0,1.0,85,0.00,,BKN050,0.00,VWS V14.01,2013-03-03 05:09:00,
2013-03-03 19:10:00,55.9,51.5,30.10,NE,55,0.0,0.0,85,0.00,,OVC180,0.00,VWS V14.01,2013-03-03 05:10:00,
2013-03-03 19:11:00,55.8,51.4,30.11,NE,55,0.0,1.0,85,0.00,,BKN050,0.00,VWS V14.01,2013-03-03 05:11:00,
2013-03-03 19:12:00,55.8,51.4,30.11,NE,55,0.0,0.0,85,0.00,,BKN050,0.00,VWS V14.01,2013-03-03 05:12:00,
2013-03-03 19:13:00,55.8,51.4,30.11,NE,55,0.0,0.0,85,0.00,,BKN050,0.00,VWS V14.01,2013-03-03 05:13:00,
2013-03-03 19:14:00,55.8,51.7,30.11,NE,55,0.0,0.0,86,0.00,,BKN050,0.00,VWS V14.01,2013-03-03 05:14:00,
2013-03-03 19:15:00,55.9,51.5,30.10,NE,55,1.0,1.0,85,0.00,,OVC180,0.00,VWS V14.01,2013-03-03 05:15:00,
2013-03-03 19:16:00,55.7,51.6,30.11,NE,55,0.0,0.0,86,0.00,,BKN050,0.00,VWS V14.01,2013-03-03 05:16:00,
2013-03-03 19:17:00,55.7,51.3,30.11,NE,55,0.0,0.0,85,0.00,,BKN050,0.00,VWS V14.01,2013-03-03 05:17:00,
2013-03-03 19:18:00,55.7,51.3,30.11,NE,55,0.0,0.0,85,0.00,,BKN050,0.00,VWS V14.01,2013-03-03 05:18:00,
2013-03-03 19:19:00,55.7,51.3,30.10,NE,55,0.0,0.0,85,0.00,,BKN050,0.00,VWS V14.01,2013-03-03 05:19:00,
2013-03-03 19:20:00,55.9,51.5,30.10,NE,55,0.0,0.0,85,0.00,,OVC180,0.00,VWS V14.01,2013-03-03 05:20:00,
2013-03-03 19:21:00,55.6,51.5,30.11,NE,55,0.0,0.0,86,0.00,,BKN050,0.00,VWS V14.01,2013-03-03 05:21:00,
2013-03-03 19:22:00,55.6,51.5,30.11,NE,55,0.0,0.0,86,0.00,,BKN050,0.00,VWS V14.01,2013-03-03 05:22:00,
2013-03-03 19:23:00,55.6,51.5,30.11,NE,55,0.0,1.0,86,0.00,,BKN050,0.00,VWS V14.01,2013-03-03 05:23:00,
2013-03-03 19:24:00,55.6,51.5,30.11,NE,55,0.0,0.0,86,0.00,,BKN050,0.00,VWS V14.01,2013-03-03 05:24:00,
2013-03-03 19:25:00,55.9,51.5,30.10,NE,55,0.0,1.0,85,0.00,,OVC180,0.00,VWS V14.01,2013-03-03 05:25:00,
2013-03-03 19:26:00,55.6,51.5,30.11,NE,55,0.0,1.0,86,0.00,,BKN050,0.00,VWS V14.01,2013-03-03 05:26:00,
2013-03-03 19:27:00,55.5,51.4,30.11,NE,55,1.0,1.0,86,0.00,,BKN050,0.00,VWS V14.01,2013-03-03 05:27:00,
2013-03-03 19:28:00,55.5,51.4,30.11,NE,55,0.0,1.0,86,0.00,,BKN050,0.00,VWS V14.01,2013-03-03 05:28:00,
2013-03-03 19:29:00,55.5,51.4,30.11,NE,55,0.0,0.0,86,0.00,,BKN050,0.00,VWS V14.01,2013-03-03 05:29:00,
2013-03-03 19:30:00,55.8,51.4,30.10,NE,55,0.0,1.0,85,0.00,,OVC180,0.00,VWS V14.01,2013-03-03 05:30:00,
2013-03-03 19:31:00,55.5,51.4,30.11,NE,55,0.0,0.0,86,0.00,,BKN050,0.00,VWS V14.01,2013-03-03 05:31:00,
2013-03-03 19:32:00,55.5,51.4,30.11,NE,55,0.0,0.0,86,0.00,,BKN050,0.00,VWS V14.01,2013-03-03 05:32:00,
2013-03-03 19:33:00,55.5,51.4,30.11,NE,55,0.0,0.0,86,0.00,,BKN050,0.00,VWS V14.01,2013-03-03 05:33:00,
2013-03-03 19:34:00,55.5,51.4,30.10,NE,55,0.0,0.0,86,0.00,,BKN050,0.00,VWS V14.01,2013-03-03 05:34:00,
2013-03-03 19:35:00,55.9,51.5,30.10,NE,55,0.0,1.0,85,0.00,,OVC180,0.00,VWS V14.01,2013-03-03 05:35:00,
2013-03-03 19:36:00,55.5,51.4,30.10,NE,55,0.0,0.0,86,0.00,,BKN050,0.00,VWS V14.01,2013-03-03 05:36:00,
2013-03-03 19:37:00,55.5,51.4,30.10,NE,55,0.0,0.0,86,0.00,,BKN050,0.00,VWS V14.01,2013-03-03 05:37:00,
2013-03-03 19:38:00,55.5,51.4,30.10,NE,55,0.0,1.0,86,0.00,,BKN050,0.00,VWS V14.01,2013-03-03 05:38:00,
2013-03-03 19:39:00,55.5,51.4,30.10,NE,55,0.0,0.0,86,0.00,,BKN050,0.00,VWS V14.01,2013-03-03 05:39:00,
2013-03-03 19:40:00,55.9,51.5,30.10,NE,55,0.0,1.0,85,0.00,,OVC180,0.00,VWS V14.01,2013-03-03 05:40:00,
2013-03-03 19:41:00,55.5,51.4,30.10,NE,55,0.0,0.0,86,0.00,,BKN050,0.00,VWS V14.01,2013-03-03 05:41:00,
2013-03-03 19:42:00,55.5,51.4,30.10,NE,55,0.0,0.0,86,0.00,,BKN050,0.00,VWS V14.01,2013-03-03 05:42:00,
2013-03-03 19:43:00,55.4,51.3,30.10,NE,55,0.0,0.0,86,0.00,,BKN050,0.00,VWS V14.01,2013-03-03 05:43:00,
2013-03-03 19:44:00,55.4,51.3,30.10,NE,55,0.0,0.0,86,0.00,,BKN050,0.00,VWS V14.01,2013-03-03 05:44:00,
2013-03-03 19:45:00,56.0,51.6,30.10,NE,55,0.0,0.0,85,0.00,,OVC180,0.00,VWS V14.01,2013-03-03 05:45:00,
2013-03-03 19:46:00,55.4,51.3,30.10,NE,55,0.0,0.0,86,0.00,,BKN050,0.00,VWS V14.01,2013-03-03 05:46:00,
2013-03-03 19:47:00,55.4,51.3,30.10,NE,55,0.0,0.0,86,0.00,,BKN050,0.00,VWS V14.01,2013-03-03 05:47:00,
2013-03-03 19:48:00,55.4,51.3,30.10,NE,55,1.0,1.0,86,0.00,,BKN050,0.00,VWS V14.01,2013-03-03 05:48:00,
2013-03-03 19:49:00,55.4,51.3,30.10,NE,55,2.0,2.0,86,0.00,,BKN050,0.00,VWS V14.01,2013-03-03 05:49:00,
2013-03-03 19:50:00,55.8,51.4,30.10,NE,55,0.0,0.0,85,0.00,,OVC180,0.00,VWS V14.01,2013-03-03 05:50:00,
2013-03-03 19:51:00,55.4,51.3,30.10,NE,55,1.0,1.0,86,0.00,,BKN050,0.00,VWS V14.01,2013-03-03 05:51:00,
2013-03-03 19:52:00,55.4,51.3,30.10,NE,55,0.0,1.0,86,0.00,,BKN050,0.00,VWS V14.01,2013-03-03 05:52:00,
2013-03-03 19:53:00,55.4,51.3,30.10,NE,55,0.0,0.0,86,0.00,,BKN050,0.00,VWS V14.01,2013-03-03 05:53:00,
2013-03-03 19:54:00,55.4,51.3,30.10,NE,55,0.0,0.0,86,0.00,,BKN050,0.00,VWS V14.01,2013-03-03 05:54:00,
2013-03-03 19:55:00,55.7,51.6,30.10,NE,55,2.0,2.0,86,0.00,,OVC180,0.00,VWS V14.01,2013-03-03 05:55:00,
2013-03-03 19:56:00,55.4,51.3,30.10,NE,55,0.0,0.0,86,0.00,,BKN050,0.00,VWS V14.01,2013-03-03 05:56:00,
2013-03-03 19:57:00,55.4,51.3,30.10,NE,55,0.0,0.0,86,0.00,,BKN050,0.00,VWS V14.01,2013-03-03 05:57:00,
2013-03-03 19:58:00,55.4,51.3,30.10,NE,55,0.0,0.0,86,0.00,,BKN050,0.00,VWS V14.01,2013-03-03 05:58:00,
2013-03-03 19:59:00,55.4,51.3,30.10,NE,55,1.0,1.0,86,0.00,,BKN050,0.00,VWS V14.01,2013-03-03 05:59:00,
2013-03-03 20:00:00,55.8,51.7,30.10,NE,55,0.0,0.0,86,0.00,,OVC180,0.00,VWS V14.01,2013-03-03 06:00:00,
2013-03-03 20:01:00,55.3,51.2,30.10,NE,55,0.0,0.0,86,0.00,,BKN050,0.00,VWS V14.01,2013-03-03 06:01:00,
2013-03-03 20:02:00,55.3,51.2,30.10,NE,55,0.0,0.0,86,0.00,,BKN050,0.00,VWS V14.01,2013-03-03 06:02:00,
2013-03-03 20:03:00,55.3,51.2,30.10,NE,55,0.0,0.0,86,0.00,,BKN050,0.00,VWS V14.01,2013-03-03 06:03:00,
2013-03-03 20:04:00,55.3,51.2,30.10,NE,55,0.0,0.0,86,0.00,,BKN050,0.00,VWS V14.01,2013-03-03 06:04:00,
2013-03-03 20:05:00,55.8,51.7,30.11,NE,55,0.0,0.0,86,0.00,,OVC180,0.00,VWS V14.01,2013-03-03 06:05:00,
2013-03-03 20:06:00,55.3,51.2,30.11,NE,55,0.0,0.0,86,0.00,,BKN050,0.00,VWS V14.01,2013-03-03 06:06:00,
2013-03-03 20:07:00,55.3,51.2,30.11,NE,55,0.0,0.0,86,0.00,,BKN050,0.00,VWS V14.01,2013-03-03 06:07:00,
2013-03-03 20:08:00,55.3,51.2,30.11,NE,55,0.0,0.0,86,0.00,,BKN050,0.00,VWS V14.01,2013-03-03 06:08:00,
2013-03-03 20:09:00,55.3,51.2,30.11,NE,55,0.0,0.0,86,0.00,,BKN050,0.00,VWS V14.01,2013-03-03 06:09:00,
2013-03-03 20:10:00,55.8,51.4,30.11,NE,55,0.0,0.0,85,0.00,,OVC180,0.00,VWS V14.01,2013-03-03 06:10:00,
2013-03-03 20:11:00,55.2,51.1,30.10,NE,55,0.0,1.0,86,0.00,,BKN050,0.00,VWS V14.01,2013-03-03 06:11:00,
2013-03-03 20:12:00,55.2,51.1,30.10,NE,55,0.0,1.0,86,0.00,,BKN050,0.00,VWS V14.01,2013-03-03 06:12:00,
2013-03-03 20:13:00,55.2,51.1,30.10,NE,55,0.0,1.0,86,0.00,,BKN050,0.00,VWS V14.01,2013-03-03 06:13:00,
2013-03-03 20:14:00,55.2,51.4,30.10,NE,55,0.0,1.0,87,0.00,,BKN050,0.00,VWS V14.01,2013-03-03 06:14:00,
2013-03-03 20:15:00,55.7,51.6,30.11,NE,55,0.0,0.0,86,0.00,,OVC180,0.00,VWS V14.01,2013-03-03 06:15:00,
2013-03-03 20:16:00,55.3,51.5,30.10,NE,55,0.0,2.0,87,0.00,,BKN050,0.00,VWS V14.01,2013-03-03 06:16:00,
2013-03-03 20:18:00,55.3,51.5,30.10,NE,55,0.0,1.0,87,0.00,,BKN050,0.00,VWS V14.01,2013-03-03 06:18:00,
2013-03-03 20:19:00,55.3,51.5,30.10,NE,55,0.0,1.0,87,0.00,,BKN050,0.00,VWS V14.01,2013-03-03 06:19:00,
2013-03-03 20:20:00,55.6,51.5,30.11,NE,55,0.0,0.0,86,0.00,,OVC180,0.00,VWS V14.01,2013-03-03 06:20:00,
2013-03-03 20:21:00,55.4,51.6,30.10,NE,55,0.0,0.0,87,0.00,,BKN050,0.00,VWS V14.01,2013-03-03 06:21:00,
2013-03-03 20:22:00,55.4,51.6,30.10,NE,55,0.0,0.0,87,0.00,,BKN050,0.00,VWS V14.01,2013-03-03 06:22:00,
2013-03-03 20:23:00,55.4,51.6,30.10,NE,55,0.0,0.0,87,0.00,,BKN050,0.00,VWS V14.01,2013-03-03 06:23:00,
2013-03-03 20:24:00,55.4,51.6,30.10,NE,55,0.0,0.0,87,0.00,,BKN050,0.00,VWS V14.01,2013-03-03 06:24:00,
2013-03-03 20:25:00,55.6,51.5,30.11,NE,55,0.0,0.0,86,0.00,,OVC180,0.00,VWS V14.01,2013-03-03 06:25:00,
2013-03-03 20:26:00,55.3,51.5,30.10,NE,55,0.0,1.0,87,0.00,,BKN050,0.00,VWS V14.01,2013-03-03 06:26:00,
2013-03-03 20:27:00,55.3,51.8,30.10,NE,55,0.0,0.0,88,0.00,,BKN050,0.00,VWS V14.01,2013-03-03 06:27:00,
2013-03-03 20:28:00,55.3,51.8,30.10,NE,55,0.0,0.0,88,0.00,,BKN050,0.00,VWS V14.01,2013-03-03 06:28:00,
2013-03-03 20:29:00,55.3,51.8,30.10,NE,55,0.0,1.0,88,0.00,,BKN050,0.00,VWS V14.01,2013-03-03 06:29:00,
2013-03-03 20:30:00,55.5,51.4,30.11,NE,55,0.0,0.0,86,0.00,,OVC180,0.00,VWS V14.01,2013-03-03 06:30:00,
2013-03-03 20:31:00,55.4,52.2,30.10,NE,55,0.0,0.0,89,0.00,,BKN050,0.00,VWS V14.01,2013-03-03 06:31:00,
2013-03-03 20:32:00,55.3,52.1,30.10,NE,55,0.0,0.0,89,0.00,,BKN050,0.00,VWS V14.01,2013-03-03 06:32:00,
2013-03-03 20:33:00,55.3,52.1,30.10,NE,55,0.0,0.0,89,0.00,,BKN050,0.00,VWS V14.01,2013-03-03 06:33:00,
2013-03-03 20:34:00,55.3,52.1,30.10,NE,55,0.0,0.0,89,0.00,,BKN050,0.00,VWS V14.01,2013-03-03 06:34:00,
2013-03-03 20:35:00,55.5,51.4,30.10,NE,55,0.0,0.0,86,0.00,,OVC180,0.00,VWS V14.01,2013-03-03 06:35:00,
2013-03-03 20:36:00,55.2,52.0,30.10,NE,55,0.0,0.0,89,0.00,,BKN050,0.00,VWS V14.01,2013-03-03 06:36:00,
2013-03-03 20:37:00,55.2,52.0,30.10,NE,55,0.0,0.0,89,0.00,,BKN050,0.00,VWS V14.01,2013-03-03 06:37:00,
2013-03-03 20:38:00,55.2,52.0,30.10,NE,55,0.0,0.0,89,0.00,,BKN050,0.00,VWS V14.01,2013-03-03 06:38:00,
2013-03-03 20:39:00,55.2,52.0,30.10,NE,55,0.0,0.0,89,0.00,,BKN050,0.00,VWS V14.01,2013-03-03 06:39:00,
2013-03-03 20:40:00,55.4,51.3,30.10,NE,55,0.0,0.0,86,0.00,,OVC180,0.00,VWS V14.01,2013-03-03 06:40:00,
2013-03-03 20:41:00,55.1,51.9,30.10,NE,55,0.0,0.0,89,0.00,,BKN050,0.00,VWS V14.01,2013-03-03 06:41:00,
2013-03-03 20:42:00,55.2,52.0,30.10,NE,55,0.0,0.0,89,0.00,,BKN050,0.00,VWS V14.01,2013-03-03 06:42:00,
2013-03-03 20:43:00,55.2,52.0,30.10,NE,55,0.0,0.0,89,0.00,,BKN050,0.00,VWS V14.01,2013-03-03 06:43:00,
2013-03-03 20:44:00,55.1,51.9,30.10,NE,55,0.0,0.0,89,0.00,,BKN050,0.00,VWS V14.01,2013-03-03 06:44:00,
2013-03-03 20:45:00,55.4,51.3,30.10,NE,55,0.0,0.0,86,0.00,,OVC180,0.00,VWS V14.01,2013-03-03 06:45:00,
2013-03-03 20:46:00,55.1,52.2,30.10,NE,55,1.0,3.0,90,0.00,,BKN050,0.00,VWS V14.01,2013-03-03 06:46:00,
2013-03-03 20:47:00,55.1,52.2,30.10,NE,55,0.0,2.0,90,0.00,,BKN050,0.00,VWS V14.01,2013-03-03 06:47:00,
2013-03-03 20:48:00,55.1,52.2,30.10,NE,55,0.0,1.0,90,0.00,,BKN050,0.00,VWS V14.01,2013-03-03 06:48:00,
2013-03-03 20:49:00,55.1,52.2,30.10,NE,55,0.0,1.0,90,0.00,,BKN050,0.00,VWS V14.01,2013-03-03 06:49:00,
2013-03-03 20:50:00,55.4,51.3,30.10,NE,55,0.0,1.0,86,0.00,,OVC180,0.00,VWS V14.01,2013-03-03 06:50:00,
2013-03-03 20:51:00,55.0,52.1,30.10,NE,55,0.0,1.0,90,0.00,,BKN050,0.00,VWS V14.01,2013-03-03 06:51:00,
2013-03-03 20:52:00,55.0,52.1,30.10,NE,55,1.0,1.0,90,0.00,,BKN050,0.00,VWS V14.01,2013-03-03 06:52:00,
2013-03-03 20:53:00,55.0,52.1,30.10,NE,55,0.0,1.0,90,0.00,,BKN050,0.00,VWS V14.01,2013-03-03 06:53:00,
2013-03-03 20:54:00,54.9,52.0,30.10,NE,55,0.0,0.0,90,0.00,,BKN050,0.00,VWS V14.01,2013-03-03 06:54:00,
2013-03-03 20:55:00,55.4,51.3,30.10,NE,55,0.0,0.0,86,0.00,,OVC180,0.00,VWS V14.01,2013-03-03 06:55:00,
2013-03-03 20:56:00,54.8,51.9,30.10,NE,55,0.0,2.0,90,0.00,,BKN050,0.00,VWS V14.01,2013-03-03 06:56:00,
2013-03-03 20:57:00,54.8,51.9,30.10,NE,55,2.0,2.0,90,0.00,,BKN050,0.00,VWS V14.01,2013-03-03 06:57:00,
2013-03-03 20:58:00,54.8,51.9,30.10,NE,55,0.0,2.0,90,0.00,,BKN050,0.00,VWS V14.01,2013-03-03 06:58:00,
2013-03-03 20:59:00,54.7,51.8,30.10,NE,55,0.0,0.0,90,0.00,,BKN050,0.00,VWS V14.01,2013-03-03 06:59:00,
2013-03-03 21:00:00,55.3,51.2,30.10,NE,55,0.0,0.0,86,0.00,,OVC180,0.00,VWS V14.01,2013-03-03 07:00:00,
2013-03-03 21:01:00,54.6,51.7,30.10,NE,55,0.0,1.0,90,0.00,,BKN050,0.00,VWS V14.01,2013-03-03 07:01:00,
2013-03-03 21:02:00,54.6,51.7,30.10,NE,55,0.0,0.0,90,0.00,,BKN050,0.00,VWS V14.01,2013-03-03 07:02:00,
2013-03-03 21:03:00,54.5,51.6,30.10,NE,55,0.0,0.0,90,0.00,,BKN050,0.00,VWS V14.01,2013-03-03 07:03:00,
2013-03-03 21:04:00,54.5,51.6,30.10,NE,55,0.0,2.0,90,0.00,,BKN050,0.00,VWS V14.01,2013-03-03 07:04:00,
2013-03-03 21:05:00,55.3,51.2,30.11,NE,55,0.0,0.0,86,0.00,,OVC180,0.00,VWS V14.01,2013-03-03 07:05:00,
2013-03-03 21:06:00,54.4,51.5,30.10,NE,55,0.0,0.0,90,0.00,,BKN050,0.00,VWS V14.01,2013-03-03 07:06:00,
2013-03-03 21:07:00,54.4,51.5,30.10,NE,55,0.0,0.0,90,0.00,,BKN050,0.00,VWS V14.01,2013-03-03 07:07:00,
2013-03-03 21:08:00,54.3,51.4,30.10,NE,55,0.0,0.0,90,0.00,,BKN050,0.00,VWS V14.01,2013-03-03 07:08:00,
2013-03-03 21:09:00,54.3,51.4,30.10,NE,55,0.0,0.0,90,0.00,,BKN050,0.00,VWS V14.01,2013-03-03 07:09:00,
2013-03-03 21:10:00,55.2,51.1,30.10,NE,55,0.0,1.0,86,0.00,,OVC180,0.00,VWS V14.01,2013-03-03 07:10:00,
2013-03-03 21:11:00,54.2,51.3,30.10,NE,55,0.0,1.0,90,0.00,,BKN050,0.00,VWS V14.01,2013-03-03 07:11:00,
2013-03-03 21:12:00,54.2,51.3,30.10,NE,55,0.0,0.0,90,0.00,,BKN050,0.00,VWS V14.01,2013-03-03 07:12:00,
2013-03-03 21:13:00,54.1,51.2,30.10,NE,55,0.0,0.0,90,0.00,,BKN050,0.00,VWS V14.01,2013-03-03 07:13:00,
2013-03-03 21:14:00,54.1,51.2,30.10,NE,55,0.0,0.0,90,0.00,,BKN050,0.00,VWS V14.01,2013-03-03 07:14:00,
2013-03-03 21:15:00,55.3,51.5,30.10,NE,55,0.0,0.0,87,0.00,,OVC180,0.00,VWS V14.01,2013-03-03 07:15:00,
2013-03-03 21:16:00,54.1,51.2,30.10,NE,55,0.0,0.0,90,0.00,,BKN050,0.00,VWS V14.01,2013-03-03 07:16:00,
2013-03-03 21:17:00,54.1,51.2,30.10,NE,55,0.0,0.0,90,0.00,,BKN050,0.00,VWS V14.01,2013-03-03 07:17:00,
2013-03-03 21:18:00,54.1,51.2,30.10,NE,55,0.0,0.0,90,0.00,,BKN050,0.00,VWS V14.01,2013-03-03 07:18:00,
2013-03-03 21:19:00,54.0,51.1,30.10,NE,55,0.0,0.0,90,0.00,,BKN050,0.00,VWS V14.01,2013-03-03 07:19:00,
2013-03-03 21:20:00,55.4,51.6,30.10,NE,55,0.0,0.0,87,0.00,,OVC180,0.00,VWS V14.01,2013-03-03 07:20:00,
2013-03-03 21:22:00,54.0,51.1,30.10,NE,55,0.0,0.0,90,0.00,,BKN050,0.00,VWS V14.01,2013-03-03 07:22:00,
2013-03-03 21:23:00,54.0,51.4,30.10,NE,55,1.0,1.0,91,0.00,,BKN050,0.00,VWS V14.01,2013-03-03 07:23:00,
2013-03-03 21:24:00,54.0,51.4,30.10,NE,55,0.0,2.0,91,0.00,,BKN050,0.00,VWS V14.01,2013-03-03 07:24:00,
2013-03-03 21:25:00,55.3,51.5,30.10,NE,55,0.0,0.0,87,0.00,,OVC180,0.00,VWS V14.01,2013-03-03 07:25:00,
2013-03-03 21:26:00,54.0,51.4,30.10,NE,55,0.0,0.0,91,0.00,,BKN050,0.00,VWS V14.01,2013-03-03 07:26:00,
2013-03-03 21:27:00,54.0,51.4,30.10,NE,55,0.0,0.0,91,0.00,,BKN050,0.00,VWS V14.01,2013-03-03 07:27:00,
2013-03-03 21:28:00,54.0,51.4,30.10,NE,55,0.0,0.0,91,0.00,,BKN050,0.00,VWS V14.01,2013-03-03 07:28:00,
2013-03-03 21:29:00,54.0,51.4,30.10,NE,55,0.0,0.0,91,0.00,,BKN050,0.00,VWS V14.01,2013-03-03 07:29:00,
2013-03-03 21:30:00,55.3,52.1,30.10,NE,55,0.0,0.0,89,0.00,,OVC180,0.00,VWS V14.01,2013-03-03 07:30:00,
2013-03-03 21:31:00,54.0,51.4,30.10,NE,55,0.0,1.0,91,0.00,,BKN050,0.00,VWS V14.01,2013-03-03 07:31:00,
2013-03-03 21:32:00,54.0,51.4,30.10,NE,55,0.0,0.0,91,0.00,,BKN050,0.00,VWS V14.01,2013-03-03 07:32:00,
2013-03-03 21:33:00,54.0,51.4,30.10,NE,55,1.0,1.0,91,0.00,,BKN050,0.00,VWS V14.01,2013-03-03 07:33:00,
2013-03-03 21:34:00,54.0,51.4,30.10,NE,55,0.0,1.0,91,0.00,,BKN050,0.00,VWS V14.01,2013-03-03 07:34:00,
2013-03-03 21:35:00,55.2,52.0,30.10,NE,55,0.0,0.0,89,0.00,,OVC180,0.00,VWS V14.01,2013-03-03 07:35:00,
2013-03-03 21:36:00,54.0,51.4,30.10,NE,55,0.0,1.0,91,0.00,,BKN050,0.00,VWS V14.01,2013-03-03 07:36:00,
2013-03-03 21:37:00,54.0,51.4,30.10,NE,55,0.0,3.0,91,0.00,,BKN050,0.00,VWS V14.01,2013-03-03 07:37:00,
2013-03-03 21:38:00,54.0,51.4,30.10,NE,55,0.0,0.0,91,0.00,,BKN050,0.00,VWS V14.01,2013-03-03 07:38:00,
2013-03-03 21:39:00,54.0,51.4,30.10,NE,55,2.0,2.0,91,0.00,,BKN050,0.00,VWS V14.01,2013-03-03 07:39:00,
2013-03-03 21:40:00,55.2,52.0,30.10,NE,55,0.0,0.0,89,0.00,,OVC180,0.00,VWS V14.01,2013-03-03 07:40:00,
2013-03-03 21:41:00,53.9,51.3,30.10,NE,55,0.0,2.0,91,0.00,,BKN050,0.00,VWS V14.01,2013-03-03 07:41:00,
2013-03-03 21:42:00,53.9,51.3,30.10,NE,55,0.0,1.0,91,0.00,,BKN050,0.00,VWS V14.01,2013-03-03 07:42:00,
2013-03-03 21:43:00,53.9,51.3,30.10,NE,55,2.0,2.0,91,0.00,,BKN050,0.00,VWS V14.01,2013-03-03 07:43:00,
2013-03-03 21:44:00,53.9,51.3,30.10,NE,55,0.0,2.0,91,0.00,,BKN050,0.00,VWS V14.01,2013-03-03 07:44:00,
2013-03-03 21:45:00,55.1,52.2,30.10,NE,55,1.0,2.0,90,0.00,,OVC180,0.00,VWS V14.01,2013-03-03 07:45:00,
2013-03-03 21:46:00,53.9,51.3,30.10,NE,55,1.0,2.0,91,0.00,,BKN050,0.00,VWS V14.01,2013-03-03 07:46:00,
2013-03-03 21:47:00,53.9,51.3,30.10,NE,55,0.0,2.0,91,0.00,,BKN050,0.00,VWS V14.01,2013-03-03 07:47:00,
2013-03-03 21:48:00,53.8,51.2,30.10,NE,55,0.0,0.0,91,0.00,,BKN050,0.00,VWS V14.01,2013-03-03 07:48:00,
2013-03-03 21:49:00,53.8,51.2,30.10,NE,55,0.0,0.0,91,0.00,,BKN050,0.00,VWS V14.01,2013-03-03 07:49:00,
2013-03-03 21:50:00,55.0,52.1,30.10,NE,55,0.0,0.0,90,0.00,,OVC180,0.00,VWS V14.01,2013-03-03 07:50:00,
2013-03-03 21:51:00,53.8,51.2,30.10,NE,55,0.0,0.0,91,0.00,,BKN050,0.00,VWS V14.01,2013-03-03 07:51:00,
2013-03-03 21:52:00,53.8,51.2,30.10,NE,55,0.0,1.0,91,0.00,,BKN050,0.00,VWS V14.01,2013-03-03 07:52:00,
2013-03-03 21:53:00,53.8,51.2,30.10,NE,55,1.0,1.0,91,0.00,,BKN050,0.00,VWS V14.01,2013-03-03 07:53:00,
2013-03-03 21:55:00,54.8,51.9,30.10,NE,55,1.0,1.0,90,0.00,,OVC180,0.00,VWS V14.01,2013-03-03 07:55:00,
2013-03-03 21:56:00,53.8,51.2,30.10,NE,55,0.0,0.0,91,0.00,,BKN050,0.00,VWS V14.01,2013-03-03 07:56:00,
2013-03-03 21:57:00,53.8,51.2,30.10,NE,55,0.0,0.0,91,0.00,,BKN050,0.00,VWS V14.01,2013-03-03 07:57:00,
2013-03-03 22:00:00,54.6,51.7,30.10,NE,55,0.0,0.0,90,0.00,,OVC180,0.00,VWS V14.01,2013-03-03 08:00:00,
2013-03-03 22:01:00,54.6,51.7,30.10,NE,55,0.0,1.0,90,0.00,,SCT100,0.00,VWS V14.01,2013-03-03 08:01:00,
2013-03-03 22:02:00,54.6,51.7,30.10,NE,55,0.0,0.0,90,0.00,,SCT100,0.00,VWS V14.01,2013-03-03 08:02:00,
2013-03-03 22:03:00,54.5,51.6,30.10,NE,55,0.0,0.0,90,0.00,,SCT100,0.00,VWS V14.01,2013-03-03 08:03:00,
2013-03-03 22:04:00,54.5,51.6,30.10,NE,55,0.0,2.0,90,0.00,,SCT100,0.00,VWS V14.01,2013-03-03 08:04:00,
2013-03-03 22:05:00,54.4,51.5,30.10,NE,55,0.0,0.0,90,0.00,,OVC180,0.00,VWS V14.01,2013-03-03 08:05:00,
2013-03-03 22:06:00,54.4,51.5,30.10,NE,55,0.0,0.0,90,0.00,,SCT100,0.00,VWS V14.01,2013-03-03 08:06:00,
2013-03-03 22:07:00,54.4,51.5,30.10,NE,55,0.0,0.0,90,0.00,,SCT100,0.00,VWS V14.01,2013-03-03 08:07:00,
2013-03-03 22:08:00,54.3,51.4,30.10,NE,55,0.0,0.0,90,0.00,,SCT100,0.00,VWS V14.01,2013-03-03 08:08:00,
2013-03-03 22:09:00,54.3,51.4,30.10,NE,55,0.0,0.0,90,0.00,,SCT100,0.00,VWS V14.01,2013-03-03 08:09:00,
2013-03-03 22:10:00,54.2,51.3,30.10,NE,55,0.0,0.0,90,0.00,,OVC180,0.00,VWS V14.01,2013-03-03 08:10:00,
2013-03-03 22:11:00,54.2,51.3,30.10,NE,55,0.0,1.0,90,0.00,,SCT100,0.00,VWS V14.01,2013-03-03 08:11:00,
2013-03-03 22:12:00,54.2,51.3,30.10,NE,55,0.0,0.0,90,0.00,,SCT100,0.00,VWS V14.01,2013-03-03 08:12:00,
2013-03-03 22:13:00,54.1,51.2,30.10,NE,55,0.0,0.0,90,0.00,,SCT100,0.00,VWS V14.01,2013-03-03 08:13:00,
2013-03-03 22:14:00,54.1,51.2,30.10,NE,55,0.0,0.0,90,0.00,,SCT100,0.00,VWS V14.01,2013-03-03 08:14:00,
2013-03-03 22:15:00,54.1,51.2,30.10,NE,55,0.0,0.0,90,0.00,,OVC180,0.00,VWS V14.01,2013-03-03 08:15:00,
2013-03-03 22:16:00,54.1,51.2,30.10,NE,55,0.0,0.0,90,0.00,,SCT100,0.00,VWS V14.01,2013-03-03 08:16:00,
2013-03-03 22:17:00,54.1,51.2,30.10,NE,55,0.0,0.0,90,0.00,,SCT100,0.00,VWS V14.01,2013-03-03 08:17:00,
2013-03-03 22:18:00,54.1,51.2,30.10,NE,55,0.0,0.0,90,0.00,,SCT100,0.00,VWS V14.01,2013-03-03 08:18:00,
2013-03-03 22:19:00,54.0,51.1,30.10,NE,55,0.0,0.0,90,0.00,,SCT100,0.00,VWS V14.01,2013-03-03 08:19:00,
2013-03-03 22:20:00,54.0,51.4,30.10,NE,55,0.0,0.0,91,0.00,,OVC180,0.00,VWS V14.01,2013-03-03 08:20:00,
2013-03-03 22:21:00,54.0,51.4,30.10,NE,55,0.0,0.0,91,0.00,,SCT100,0.00,VWS V14.01,2013-03-03 08:21:00,
2013-03-03 22:22:00,54.0,51.1,30.10,NE,55,0.0,0.0,90,0.00,,SCT100,0.00,VWS V14.01,2013-03-03 08:22:00,
2013-03-03 22:23:00,54.0,51.4,30.10,NE,55,1.0,1.0,91,0.00,,SCT100,0.00,VWS V14.01,2013-03-03 08:23:00,
2013-03-03 22:24:00,54.0,51.4,30.10,NE,55,0.0,2.0,91,0.00,,SCT100,0.00,VWS V14.01,2013-03-03 08:24:00,
2013-03-03 22:25:00,54.0,51.4,30.10,NE,55,0.0,0.0,91,0.00,,OVC180,0.00,VWS V14.01,2013-03-03 08:25:00,
2013-03-03 22:26:00,54.0,51.4,30.10,NE,55,0.0,0.0,91,0.00,,SCT100,0.00,VWS V14.01,2013-03-03 08:26:00,
2013-03-03 22:27:00,54.0,51.4,30.10,NE,55,0.0,0.0,91,0.00,,SCT100,0.00,VWS V14.01,2013-03-03 08:27:00,
2013-03-03 22:28:00,54.0,51.4,30.10,NE,55,0.0,0.0,91,0.00,,SCT100,0.00,VWS V14.01,2013-03-03 08:28:00,
2013-03-03 22:29:00,54.0,51.4,30.10,NE,55,0.0,0.0,91,0.00,,SCT100,0.00,VWS V14.01,2013-03-03 08:29:00,
2013-03-03 22:30:00,54.0,51.4,30.10,NE,55,0.0,0.0,91,0.00,,OVC180,0.00,VWS V14.01,2013-03-03 08:30:00,
2013-03-03 22:31:00,54.0,51.4,30.10,NE,55,0.0,1.0,91,0.00,,SCT100,0.00,VWS V14.01,2013-03-03 08:31:00,
2013-03-03 22:32:00,54.0,51.4,30.10,NE,55,0.0,0.0,91,0.00,,SCT100,0.00,VWS V14.01,2013-03-03 08:32:00,
2013-03-03 22:33:00,54.0,51.4,30.10,NE,55,1.0,1.0,91,0.00,,SCT100,0.00,VWS V14.01,2013-03-03 08:33:00,
2013-03-03 22:34:00,54.0,51.4,30.10,NE,55,0.0,1.0,91,0.00,,SCT100,0.00,VWS V14.01,2013-03-03 08:34:00,
2013-03-03 22:35:00,54.0,51.4,30.10,NE,55,0.0,0.0,91,0.00,,OVC180,0.00,VWS V14.01,2013-03-03 08:35:00,
2013-03-03 22:36:00,54.0,51.4,30.10,NE,55,0.0,1.0,91,0.00,,SCT100,0.00,VWS V14.01,2013-03-03 08:36:00,
2013-03-03 22:37:00,54.0,51.4,30.10,NE,55,0.0,3.0,91,0.00,,SCT100,0.00,VWS V14.01,2013-03-03 08:37:00,
2013-03-03 22:38:00,54.0,51.4,30.10,NE,55,0.0,0.0,91,0.00,,SCT100,0.00,VWS V14.01,2013-03-03 08:38:00,
2013-03-03 22:39:00,54.0,51.4,30.10,NE,55,2.0,2.0,91,0.00,,SCT100,0.00,VWS V14.01,2013-03-03 08:39:00,
2013-03-03 22:40:00,54.0,51.4,30.10,NE,55,0.0,1.0,91,0.00,,OVC180,0.00,VWS V14.01,2013-03-03 08:40:00,
2013-03-03 22:41:00,53.9,51.3,30.10,NE,55,0.0,2.0,91,0.00,,SCT100,0.00,VWS V14.01,2013-03-03 08:41:00,
2013-03-03 22:42:00,53.9,51.3,30.10,NE,55,0.0,1.0,91,0.00,,SCT100,0.00,VWS V14.01,2013-03-03 08:42:00,
2013-03-03 22:43:00,53.9,51.3,30.10,NE,55,2.0,2.0,91,0.00,,SCT100,0.00,VWS V14.01,2013-03-03 08:43:00,
2013-03-03 22:44:00,53.9,51.3,30.10,NE,55,0.0,2.0,91,0.00,,SCT100,0.00,VWS V14.01,2013-03-03 08:44:00,
2013-03-03 22:45:00,53.9,51.3,30.10,NE,55,1.0,2.0,91,0.00,,OVC180,0.00,VWS V14.01,2013-03-03 08:45:00,
2013-03-03 22:46:00,53.9,51.3,30.10,NE,55,1.0,2.0,91,0.00,,SCT100,0.00,VWS V14.01,2013-03-03 08:46:00,
2013-03-03 22:47:00,53.9,51.3,30.10,NE,55,0.0,2.0,91,0.00,,SCT100,0.00,VWS V14.01,2013-03-03 08:47:00,
2013-03-03 22:48:00,53.8,51.2,30.10,NE,55,0.0,0.0,91,0.00,,SCT100,0.00,VWS V14.01,2013-03-03 08:48:00,
2013-03-03 22:49:00,53.8,51.2,30.10,NE,55,0.0,0.0,91,0.00,,SCT100,0.00,VWS V14.01,2013-03-03 08:49:00,
2013-03-03 22:50:00,53.8,51.2,30.10,NE,55,0.0,0.0,91,0.00,,OVC180,0.00,VWS V14.01,2013-03-03 08:50:00,
2013-03-03 22:51:00,53.8,51.2,30.10,NE,55,0.0,0.0,91,0.00,,SCT100,0.00,VWS V14.01,2013-03-03 08:51:00,
2013-03-03 22:52:00,53.8,51.2,30.10,NE,55,0.0,1.0,91,0.00,,SCT100,0.00,VWS V14.01,2013-03-03 08:52:00,
2013-03-03 22:53:00,53.8,51.2,30.10,NE,55,1.0,1.0,91,0.00,,SCT100,0.00,VWS V14.01,2013-03-03 08:53:00,
2013-03-03 22:54:00,53.8,51.2,30.10,NE,55,0.0,1.0,91,0.00,,SCT100,0.00,VWS V14.01,2013-03-03 08:54:00,
2013-03-03 22:55:00,53.8,51.2,30.10,NE,55,0.0,0.0,91,0.00,,OVC180,0.00,VWS V14.01,2013-03-03 08:55:00,
2013-03-03 22:56:00,53.8,51.2,30.10,NE,55,0.0,0.0,91,0.00,,SCT100,0.00,VWS V14.01,2013-03-03 08:56:00,
2013-03-03 22:57:00,53.8,51.2,30.10,NE,55,0.0,0.0,91,0.00,,SCT100,0.00,VWS V14.01,2013-03-03 08:57:00,
2013-03-03 22:58:00,53.8,51.2,30.10,NE,55,0.0,1.0,91,0.00,,SCT100,0.00,VWS V14.01,2013-03-03 08:58:00,
2013-03-03 22:59:00,53.7,51.1,30.10,NE,55,1.0,2.0,91,0.00,,SCT100,0.00,VWS V14.01,2013-03-03 08:59:00,
2013-03-03 23:00:00,53.7,51.1,30.10,NE,55,0.0,0.0,91,0.00,,OVC180,0.00,VWS V14.01,2013-03-03 09:00:00,
2013-03-03 23:01:00,53.7,51.1,30.09,NE,55,0.0,3.0,91,0.00,,SCT100,0.00,VWS V14.01,2013-03-03 09:01:00,
2013-03-03 23:02:00,53.7,51.1,30.10,NE,55,1.0,1.0,91,0.00,,SCT100,0.00,VWS V14.01,2013-03-03 09:02:00,
2013-03-03 23:03:00,53.7,51.1,30.10,NE,55,0.0,1.0,91,0.00,,SCT100,0.00,VWS V14.01,2013-03-03 09:03:00,
2013-03-03 23:04:00,53.8,51.2,30.10,NE,55,0.0,0.0,91,0.00,,SCT100,0.00,VWS V14.01,2013-03-03 09:04:00,
2013-03-03 23:05:00,53.7,51.1,30.10,NE,55,0.0,0.0,91,0.00,,OVC180,0.00,VWS V14.01,2013-03-03 09:05:00,
2013-03-03 23:06:00,53.8,51.2,30.10,NE,55,0.0,0.0,91,0.00,,SCT100,0.00,VWS V14.01,2013-03-03 09:06:00,
2013-03-03 23:07:00,53.7,51.1,30.10,NE,55,0.0,0.0,91,0.00,,SCT100,0.00,VWS V14.01,2013-03-03 09:07:00,
2013-03-03 23:08:00,53.7,51.1,30.10,NE,55,0.0,0.0,91,0.00,,SCT100,0.00,VWS V14.01,2013-03-03 09:08:00,
2013-03-03 23:09:00,53.7,51.1,30.10,NE,55,0.0,0.0,91,0.00,,SCT100,0.00,VWS V14.01,2013-03-03 09:09:00,
2013-03-03 23:10:00,53.7,51.1,30.10,NE,55,2.0,2.0,91,0.00,,OVC180,0.00,VWS V14.01,2013-03-03 09:10:00,
2013-03-03 23:11:00,53.7,51.1,30.10,NE,55,1.0,2.0,91,0.00,,SCT100,0.00,VWS V14.01,2013-03-03 09:11:00,
2013-03-03 23:12:00,53.6,51.0,30.10,NE,55,0.0,2.0,91,0.00,,SCT100,0.00,VWS V14.01,2013-03-03 09:12:00,
2013-03-03 23:13:00,53.6,51.0,30.10,NE,55,0.0,0.0,91,0.00,,SCT100,0.00,VWS V14.01,2013-03-03 09:13:00,
2013-03-03 23:14:00,53.6,51.0,30.10,NE,55,0.0,0.0,91,0.00,,SCT100,0.00,VWS V14.01,2013-03-03 09:14:00,
2013-03-03 23:15:00,53.6,51.0,30.10,NE,55,0.0,0.0,91,0.00,,OVC180,0.00,VWS V14.01,2013-03-03 09:15:00,
2013-03-03 23:16:00,53.6,51.0,30.10,NE,55,0.0,0.0,91,0.00,,SCT100,0.00,VWS V14.01,2013-03-03 09:16:00,
2013-03-03 23:17:00,53.6,51.0,30.10,NE,55,0.0,1.0,91,0.00,,SCT100,0.00,VWS V14.01,2013-03-03 09:17:00,
2013-03-03 23:18:00,53.6,51.0,30.10,NE,55,0.0,0.0,91,0.00,,SCT100,0.00,VWS V14.01,2013-03-03 09:18:00,
2013-03-03 23:19:00,53.6,51.0,30.10,NE,55,0.0,0.0,91,0.00,,SCT100,0.00,VWS V14.01,2013-03-03 09:19:00,
2013-03-03 23:20:00,53.6,51.0,30.09,NE,55,0.0,0.0,91,0.00,,OVC180,0.00,VWS V14.01,2013-03-03 09:20:00,
2013-03-03 23:21:00,53.5,50.9,30.09,NE,55,0.0,0.0,91,0.00,,SCT100,0.00,VWS V14.01,2013-03-03 09:21:00,
2013-03-03 23:22:00,53.6,51.0,30.09,NE,55,0.0,0.0,91,0.00,,SCT100,0.00,VWS V14.01,2013-03-03 09:22:00,
2013-03-03 23:23:00,53.5,50.9,30.10,NE,55,0.0,0.0,91,0.00,,SCT100,0.00,VWS V14.01,2013-03-03 09:23:00,
2013-03-03 23:24:00,53.5,50.9,30.10,NE,55,0.0,0.0,91,0.00,,SCT100,0.00,VWS V14.01,2013-03-03 09:24:00,
2013-03-03 23:25:00,53.5,50.9,30.10,NE,55,0.0,0.0,91,0.00,,OVC180,0.00,VWS V14.01,2013-03-03 09:25:00,
2013-03-03 23:26:00,53.6,51.0,30.10,NE,55,0.0,0.0,91,0.00,,SCT100,0.00,VWS V14.01,2013-03-03 09:26:00,
2013-03-03 23:27:00,53.5,50.9,30.10,NE,55,0.0,0.0,91,0.00,,SCT100,0.00,VWS V14.01,2013-03-03 09:27:00,
2013-03-03 23:28:00,53.6,51.0,30.10,NE,55,0.0,1.0,91,0.00,,SCT100,0.00,VWS V14.01,2013-03-03 09:28:00,
2013-03-03 23:29:00,53.5,50.9,30.10,NE,55,0.0,0.0,91,0.00,,SCT100,0.00,VWS V14.01,2013-03-03 09:29:00,
2013-03-03 23:30:00,53.5,50.9,30.10,NE,55,1.0,1.0,91,0.00,,OVC180,0.00,VWS V14.01,2013-03-03 09:30:00,
2013-03-03 23:31:00,53.5,50.9,30.10,NE,55,0.0,2.0,91,0.00,,SCT100,0.00,VWS V14.01,2013-03-03 09:31:00,
2013-03-03 23:32:00,53.5,50.9,30.10,NE,55,0.0,1.0,91,0.00,,SCT100,0.00,VWS V14.01,2013-03-03 09:32:00,
2013-03-03 23:33:00,53.5,50.9,30.10,NE,55,0.0,1.0,91,0.00,,SCT100,0.00,VWS V14.01,2013-03-03 09:33:00,
2013-03-03 23:34:00,53.5,50.9,30.10,NE,55,0.0,0.0,91,0.00,,SCT100,0.00,VWS V14.01,2013-03-03 09:34:00,
2013-03-03 23:35:00,53.5,50.9,30.10,NE,55,0.0,0.0,91,0.00,,OVC180,0.00,VWS V14.01,2013-03-03 09:35:00,
2013-03-03 23:36:00,53.3,50.7,30.08,West,260,0.0,1.0,91,0.00,,BKN050,0.00,VWS V14.01,2013-03-03 09:36:00,
2013-03-03 23:37:00,53.5,50.9,30.10,NE,55,0.0,1.0,91,0.00,,SCT100,0.00,VWS V14.01,2013-03-03 09:37:00,
2013-03-03 23:38:00,53.5,50.9,30.10,NE,55,0.0,0.0,91,0.00,,SCT100,0.00,VWS V14.01,2013-03-03 09:38:00,
2013-03-03 23:39:00,53.5,50.9,30.10,NE,55,0.0,0.0,91,0.00,,SCT100,0.00,VWS V14.01,2013-03-03 09:39:00,
2013-03-03 23:40:00,53.5,50.9,30.10,NE,55,1.0,2.0,91,0.00,,OVC180,0.00,VWS V14.01,2013-03-03 09:40:00,
2013-03-03 23:41:00,53.5,50.9,30.10,NE,55,1.0,2.0,91,0.00,,SCT100,0.00,VWS V14.01,2013-03-03 09:41:00,
2013-03-03 23:42:00,53.5,50.9,30.10,NE,55,0.0,2.0,91,0.00,,SCT100,0.00,VWS V14.01,2013-03-03 09:42:00,
2013-03-03 23:43:00,53.5,50.9,30.10,NE,55,0.0,0.0,91,0.00,,SCT100,0.00,VWS V14.01,2013-03-03 09:43:00,
2013-03-03 23:44:00,53.5,50.9,30.10,NE,55,0.0,0.0,91,0.00,,SCT100,0.00,VWS V14.01,2013-03-03 09:44:00,
2013-03-03 23:45:00,53.5,50.6,30.10,NE,55,0.0,0.0,90,0.00,,OVC180,0.00,VWS V14.01,2013-03-03 09:45:00,
2013-03-03 23:46:00,53.5,50.7,30.10,NE,55,0.0,0.0,90,0.00,,SCT100,0.00,VWS V14.01,2013-03-03 09:46:00,
2013-03-03 23:47:00,53.5,50.7,30.10,NE,55,0.0,0.0,90,0.00,,SCT100,0.00,VWS V14.01,2013-03-03 09:47:00,
2013-03-03 23:48:00,53.5,50.7,30.10,NE,55,0.0,1.0,90,0.00,,SCT100,0.00,VWS V14.01,2013-03-03 09:48:00,
2013-03-03 23:49:00,53.4,50.8,30.10,NE,55,0.0,1.0,91,0.00,,SCT100,0.00,VWS V14.01,2013-03-03 09:49:00,
2013-03-03 23:50:00,53.4,50.8,30.10,NE,55,0.0,0.0,91,0.00,,OVC180,0.00,VWS V14.01,2013-03-03 09:50:00,
2013-03-03 23:51:00,53.4,50.8,30.09,NE,55,0.0,0.0,91,0.00,,SCT100,0.00,VWS V14.01,2013-03-03 09:51:00,
2013-03-03 23:52:00,53.4,50.8,30.10,NE,55,0.0,1.0,91,0.00,,SCT100,0.00,VWS V14.01,2013-03-03 09:52:00,
2013-03-03 23:53:00,53.4,50.8,30.10,NE,55,0.0,1.0,91,0.00,,SCT100,0.00,VWS V14.01,2013-03-03 09:53:00,
2013-03-03 23:54:00,53.4,50.8,30.10,NE,55,0.0,1.0,91,0.00,,SCT100,0.00,VWS V14.01,2013-03-03 09:54:00,
2013-03-03 23:55:00,53.4,50.8,30.09,NE,55,0.0,0.0,91,0.00,,OVC180,0.00,VWS V14.01,2013-03-03 09:55:00,
2013-03-03 23:56:00,53.4,50.8,30.10,NE,55,0.0,1.0,91,0.00,,SCT100,0.00,VWS V14.01,2013-03-03 09:56:00,
2013-03-03 23:57:00,53.4,50.8,30.09,NE,55,0.0,0.0,91,0.00,,SCT100,0.00,VWS V14.01,2013-03-03 09:57:00,
2013-03-03 23:58:00,53.4,50.8,30.09,NE,55,0.0,0.0,91,0.00,,SCT100,0.00,VWS V14.01,2013-03-03 09:58:00,
2013-03-03 23:59:00,53.4,50.8,30.09,NE,55,0.0,1.0,91,0.00,,SCT100,0.00,VWS V14.01,2013-03-03 09:59:00,